﻿<?xml version="1.0" encoding="utf-8"?><gpx creator="Garmin Desktop App" version="1.1" xsi:schemaLocation="http://www.topografix.com/GPX/1/1 http://www.topografix.com/GPX/1/1/gpx.xsd http://www.garmin.com/xmlschemas/WaypointExtension/v1 http://www8.garmin.com/xmlschemas/WaypointExtensionv1.xsd http://www.garmin.com/xmlschemas/TrackPointExtension/v1 http://www.garmin.com/xmlschemas/TrackPointExtensionv1.xsd http://www.garmin.com/xmlschemas/GpxExtensions/v3 http://www8.garmin.com/xmlschemas/GpxExtensionsv3.xsd http://www.garmin.com/xmlschemas/ActivityExtension/v1 http://www8.garmin.com/xmlschemas/ActivityExtensionv1.xsd http://www.garmin.com/xmlschemas/AdventuresExtensions/v1 http://www8.garmin.com/xmlschemas/AdventuresExtensionv1.xsd http://www.garmin.com/xmlschemas/PressureExtension/v1 http://www.garmin.com/xmlschemas/PressureExtensionv1.xsd http://www.garmin.com/xmlschemas/TripExtensions/v1 http://www.garmin.com/xmlschemas/TripExtensionsv1.xsd http://www.garmin.com/xmlschemas/TripMetaDataExtensions/v1 http://www.garmin.com/xmlschemas/TripMetaDataExtensionsv1.xsd http://www.garmin.com/xmlschemas/ViaPointTransportationModeExtensions/v1 http://www.garmin.com/xmlschemas/ViaPointTransportationModeExtensionsv1.xsd http://www.garmin.com/xmlschemas/CreationTimeExtension/v1 http://www.garmin.com/xmlschemas/CreationTimeExtensionsv1.xsd http://www.garmin.com/xmlschemas/AccelerationExtension/v1 http://www.garmin.com/xmlschemas/AccelerationExtensionv1.xsd http://www.garmin.com/xmlschemas/PowerExtension/v1 http://www.garmin.com/xmlschemas/PowerExtensionv1.xsd http://www.garmin.com/xmlschemas/VideoExtension/v1 http://www.garmin.com/xmlschemas/VideoExtensionv1.xsd" xmlns="http://www.topografix.com/GPX/1/1" xmlns:xsi="http://www.w3.org/2001/XMLSchema-instance" xmlns:wptx1="http://www.garmin.com/xmlschemas/WaypointExtension/v1" xmlns:gpxtrx="http://www.garmin.com/xmlschemas/GpxExtensions/v3" xmlns:gpxtpx="http://www.garmin.com/xmlschemas/TrackPointExtension/v1" xmlns:gpxx="http://www.garmin.com/xmlschemas/GpxExtensions/v3" xmlns:trp="http://www.garmin.com/xmlschemas/TripExtensions/v1" xmlns:adv="http://www.garmin.com/xmlschemas/AdventuresExtensions/v1" xmlns:prs="http://www.garmin.com/xmlschemas/PressureExtension/v1" xmlns:tmd="http://www.garmin.com/xmlschemas/TripMetaDataExtensions/v1" xmlns:vptm="http://www.garmin.com/xmlschemas/ViaPointTransportationModeExtensions/v1" xmlns:ctx="http://www.garmin.com/xmlschemas/CreationTimeExtension/v1" xmlns:gpxacc="http://www.garmin.com/xmlschemas/AccelerationExtension/v1" xmlns:gpxpx="http://www.garmin.com/xmlschemas/PowerExtension/v1" xmlns:vidx1="http://www.garmin.com/xmlschemas/VideoExtension/v1">

  <metadata>
    <link href="http://www.garmin.com">
      <text>Garmin International</text>
    </link>
    <time>2015-03-03T12:38:48Z</time>
    <bounds maxlat="46.232405388727784" maxlon="8.300261171534658" minlat="46.204025186598301" minlon="8.283460652455688" />
  </metadata>

  <trk>
    <name>alpe genuina2015-03-01 16:04:20</name>
    <extensions>
      <gpxx:TrackExtension>
        <gpxx:DisplayColor>Yellow</gpxx:DisplayColor>
      </gpxx:TrackExtension>
      <gpxtrkx:TrackStatsExtension xmlns:gpxtrkx="http://www.garmin.com/xmlschemas/TrackStatsExtension/v1">
        <gpxtrkx:Distance>12272</gpxtrkx:Distance>
        <gpxtrkx:TotalElapsedTime>24404</gpxtrkx:TotalElapsedTime>
        <gpxtrkx:MovingTime>14055</gpxtrkx:MovingTime>
        <gpxtrkx:StoppedTime>10308</gpxtrkx:StoppedTime>
        <gpxtrkx:MovingSpeed>1</gpxtrkx:MovingSpeed>
        <gpxtrkx:MaxSpeed>3</gpxtrkx:MaxSpeed>
        <gpxtrkx:MaxElevation>1751</gpxtrkx:MaxElevation>
        <gpxtrkx:MinElevation>1204</gpxtrkx:MinElevation>
        <gpxtrkx:Ascent>661</gpxtrkx:Ascent>
        <gpxtrkx:Descent>660</gpxtrkx:Descent>
        <gpxtrkx:AvgAscentRate>0</gpxtrkx:AvgAscentRate>
        <gpxtrkx:MaxAscentRate>0</gpxtrkx:MaxAscentRate>
        <gpxtrkx:AvgDescentRate>0</gpxtrkx:AvgDescentRate>
        <gpxtrkx:MaxDescentRate>-0</gpxtrkx:MaxDescentRate>
      </gpxtrkx:TrackStatsExtension>
    </extensions>
    <trkseg>
      <trkpt lat="46.232344368472695" lon="8.290171790868044">
        <ele>1226.3</ele>
        <time>2015-03-01T08:17:38Z</time>
      </trkpt>
      <trkpt lat="46.232343865558505" lon="8.2901706174016">
        <ele>1226.3</ele>
        <time>2015-03-01T08:17:39Z</time>
      </trkpt>
      <trkpt lat="46.232339758425951" lon="8.29014278948307">
        <ele>1226.3</ele>
        <time>2015-03-01T08:17:54Z</time>
      </trkpt>
      <trkpt lat="46.232319725677371" lon="8.290166174992919">
        <ele>1226.3</ele>
        <time>2015-03-01T08:18:14Z</time>
      </trkpt>
      <trkpt lat="46.232353169471025" lon="8.290183693170548">
        <ele>1226.3</ele>
        <time>2015-03-01T08:18:29Z</time>
      </trkpt>
      <trkpt lat="46.232368927448988" lon="8.290179753676057">
        <ele>1226.3</ele>
        <time>2015-03-01T08:18:30Z</time>
      </trkpt>
      <trkpt lat="46.232405388727784" lon="8.290161145851016">
        <ele>1225.3399999999999</ele>
        <time>2015-03-01T08:18:36Z</time>
      </trkpt>
      <trkpt lat="46.232399521395564" lon="8.290156116709113">
        <ele>1225.8199999999999</ele>
        <time>2015-03-01T08:18:49Z</time>
      </trkpt>
      <trkpt lat="46.232340931892395" lon="8.290144549682736">
        <ele>1226.3</ele>
        <time>2015-03-01T08:18:59Z</time>
      </trkpt>
      <trkpt lat="46.232350906357169" lon="8.290172126144171">
        <ele>1225.8199999999999</ele>
        <time>2015-03-01T08:19:16Z</time>
      </trkpt>
      <trkpt lat="46.232344200834632" lon="8.290157709270716">
        <ele>1226.3</ele>
        <time>2015-03-01T08:19:29Z</time>
      </trkpt>
      <trkpt lat="46.232331627979875" lon="8.290199199691415">
        <ele>1225.8199999999999</ele>
        <time>2015-03-01T08:19:51Z</time>
      </trkpt>
      <trkpt lat="46.232334058731794" lon="8.29015888273716">
        <ele>1226.78</ele>
        <time>2015-03-01T08:20:09Z</time>
      </trkpt>
      <trkpt lat="46.23233431018889" lon="8.2901481539011">
        <ele>1225.8199999999999</ele>
        <time>2015-03-01T08:20:16Z</time>
      </trkpt>
      <trkpt lat="46.232371693477035" lon="8.290072213858366">
        <ele>1225.8199999999999</ele>
        <time>2015-03-01T08:20:22Z</time>
      </trkpt>
      <trkpt lat="46.232336657121778" lon="8.290035501122475">
        <ele>1226.3</ele>
        <time>2015-03-01T08:20:40Z</time>
      </trkpt>
      <trkpt lat="46.232345039024949" lon="8.290047822520137">
        <ele>1226.78</ele>
        <time>2015-03-01T08:20:52Z</time>
      </trkpt>
      <trkpt lat="46.232357695698738" lon="8.29013055190444">
        <ele>1226.3</ele>
        <time>2015-03-01T08:21:04Z</time>
      </trkpt>
      <trkpt lat="46.232364987954497" lon="8.290148405358195">
        <ele>1226.3</ele>
        <time>2015-03-01T08:21:16Z</time>
      </trkpt>
      <trkpt lat="46.232368592172861" lon="8.290151255205274">
        <ele>1226.78</ele>
        <time>2015-03-01T08:21:37Z</time>
      </trkpt>
      <trkpt lat="46.232343195006251" lon="8.290173131972551">
        <ele>1226.78</ele>
        <time>2015-03-01T08:21:52Z</time>
      </trkpt>
      <trkpt lat="46.232304722070694" lon="8.29017598181963">
        <ele>1226.78</ele>
        <time>2015-03-01T08:22:09Z</time>
      </trkpt>
      <trkpt lat="46.232202965766191" lon="8.290177490562201">
        <ele>1228.22</ele>
        <time>2015-03-01T08:22:22Z</time>
      </trkpt>
      <trkpt lat="46.232090229168534" lon="8.290215879678726">
        <ele>1229.1800000000001</ele>
        <time>2015-03-01T08:22:38Z</time>
      </trkpt>
      <trkpt lat="46.232002303004265" lon="8.290258208289743">
        <ele>1231.1099999999999</ele>
        <time>2015-03-01T08:22:52Z</time>
      </trkpt>
      <trkpt lat="46.231889314949512" lon="8.29028301872313">
        <ele>1232.0699999999999</ele>
        <time>2015-03-01T08:23:05Z</time>
      </trkpt>
      <trkpt lat="46.231826450675726" lon="8.290214790031314">
        <ele>1233.51</ele>
        <time>2015-03-01T08:23:20Z</time>
      </trkpt>
      <trkpt lat="46.231743721291423" lon="8.290109261870384">
        <ele>1234.95</ele>
        <time>2015-03-01T08:23:34Z</time>
      </trkpt>
      <trkpt lat="46.231696028262377" lon="8.290024856105447">
        <ele>1236.3900000000001</ele>
        <time>2015-03-01T08:23:47Z</time>
      </trkpt>
      <trkpt lat="46.231651771813631" lon="8.290000129491091">
        <ele>1236.8699999999999</ele>
        <time>2015-03-01T08:23:59Z</time>
      </trkpt>
      <trkpt lat="46.231604497879744" lon="8.289981940761209">
        <ele>1236.3900000000001</ele>
        <time>2015-03-01T08:24:04Z</time>
      </trkpt>
      <trkpt lat="46.23154079541564" lon="8.289981773123145">
        <ele>1236.8699999999999</ele>
        <time>2015-03-01T08:24:10Z</time>
      </trkpt>
      <trkpt lat="46.231400649994612" lon="8.289971547201276">
        <ele>1237.8299999999999</ele>
        <time>2015-03-01T08:24:24Z</time>
      </trkpt>
      <trkpt lat="46.231260253116488" lon="8.28996442258358">
        <ele>1238.8</ele>
        <time>2015-03-01T08:24:41Z</time>
      </trkpt>
      <trkpt lat="46.231157910078764" lon="8.289879094809294">
        <ele>1239.28</ele>
        <time>2015-03-01T08:24:54Z</time>
      </trkpt>
      <trkpt lat="46.231075096875429" lon="8.289822600781918">
        <ele>1239.76</ele>
        <time>2015-03-01T08:25:05Z</time>
      </trkpt>
      <trkpt lat="46.2309954687953" lon="8.289799047634006">
        <ele>1240.72</ele>
        <time>2015-03-01T08:25:16Z</time>
      </trkpt>
      <trkpt lat="46.230896059423685" lon="8.289699219167233">
        <ele>1241.6800000000001</ele>
        <time>2015-03-01T08:25:32Z</time>
      </trkpt>
      <trkpt lat="46.23087870888412" lon="8.289567958563566">
        <ele>1242.6400000000001</ele>
        <time>2015-03-01T08:25:45Z</time>
      </trkpt>
      <trkpt lat="46.230870075523853" lon="8.289512805640698">
        <ele>1242.6400000000001</ele>
        <time>2015-03-01T08:25:59Z</time>
      </trkpt>
      <trkpt lat="46.23086110688746" lon="8.289517750963569">
        <ele>1243.1199999999999</ele>
        <time>2015-03-01T08:26:09Z</time>
      </trkpt>
      <trkpt lat="46.230836044996977" lon="8.289507357403636">
        <ele>1243.1199999999999</ele>
        <time>2015-03-01T08:26:12Z</time>
      </trkpt>
      <trkpt lat="46.230659773573279" lon="8.28949042595923">
        <ele>1242.6400000000001</ele>
        <time>2015-03-01T08:26:27Z</time>
      </trkpt>
      <trkpt lat="46.230537230148911" lon="8.289511129260063">
        <ele>1243.1199999999999</ele>
        <time>2015-03-01T08:26:40Z</time>
      </trkpt>
      <trkpt lat="46.2304721865803" lon="8.289491515606642">
        <ele>1243.5999999999999</ele>
        <time>2015-03-01T08:26:51Z</time>
      </trkpt>
      <trkpt lat="46.230452740564942" lon="8.289484977722168">
        <ele>1243.1199999999999</ele>
        <time>2015-03-01T08:26:53Z</time>
      </trkpt>
      <trkpt lat="46.230258950963616" lon="8.28938003629446">
        <ele>1243.1199999999999</ele>
        <time>2015-03-01T08:27:09Z</time>
      </trkpt>
      <trkpt lat="46.230114949867129" lon="8.289394369348884">
        <ele>1242.1600000000001</ele>
        <time>2015-03-01T08:27:23Z</time>
      </trkpt>
      <trkpt lat="46.229963740333915" lon="8.289403254166246">
        <ele>1242.1600000000001</ele>
        <time>2015-03-01T08:27:37Z</time>
      </trkpt>
      <trkpt lat="46.229863073676825" lon="8.289392609149218">
        <ele>1242.1600000000001</ele>
        <time>2015-03-01T08:27:51Z</time>
      </trkpt>
      <trkpt lat="46.229766765609384" lon="8.289423706009984">
        <ele>1241.2</ele>
        <time>2015-03-01T08:28:05Z</time>
      </trkpt>
      <trkpt lat="46.229679007083178" lon="8.289455473423004">
        <ele>1240.72</ele>
        <time>2015-03-01T08:28:19Z</time>
      </trkpt>
      <trkpt lat="46.229516733437777" lon="8.289415491744876">
        <ele>1240.72</ele>
        <time>2015-03-01T08:28:33Z</time>
      </trkpt>
      <trkpt lat="46.229423275217414" lon="8.289333181455731">
        <ele>1237.8299999999999</ele>
        <time>2015-03-01T08:28:48Z</time>
      </trkpt>
      <trkpt lat="46.229410786181688" lon="8.289310047402978">
        <ele>1237.3499999999999</ele>
        <time>2015-03-01T08:28:52Z</time>
      </trkpt>
      <trkpt lat="46.229365188628435" lon="8.289199406281114">
        <ele>1235.4300000000001</ele>
        <time>2015-03-01T08:29:01Z</time>
      </trkpt>
      <trkpt lat="46.229333840310574" lon="8.289058674126864">
        <ele>1235.4300000000001</ele>
        <time>2015-03-01T08:29:13Z</time>
      </trkpt>
      <trkpt lat="46.229242393746972" lon="8.288973765447736">
        <ele>1235.9100000000001</ele>
        <time>2015-03-01T08:29:27Z</time>
      </trkpt>
      <trkpt lat="46.229180200025439" lon="8.288837391883135">
        <ele>1237.3499999999999</ele>
        <time>2015-03-01T08:29:42Z</time>
      </trkpt>
      <trkpt lat="46.229097470641136" lon="8.288716357201338">
        <ele>1237.8299999999999</ele>
        <time>2015-03-01T08:29:56Z</time>
      </trkpt>
      <trkpt lat="46.229064026847482" lon="8.288725074380636">
        <ele>1237.8299999999999</ele>
        <time>2015-03-01T08:30:01Z</time>
      </trkpt>
      <trkpt lat="46.22899261303246" lon="8.288740664720535">
        <ele>1238.3199999999999</ele>
        <time>2015-03-01T08:30:13Z</time>
      </trkpt>
      <trkpt lat="46.228895634412766" lon="8.288766397163272">
        <ele>1240.72</ele>
        <time>2015-03-01T08:30:28Z</time>
      </trkpt>
      <trkpt lat="46.228821119293571" lon="8.288700012490153">
        <ele>1243.5999999999999</ele>
        <time>2015-03-01T08:30:46Z</time>
      </trkpt>
      <trkpt lat="46.228785580024123" lon="8.288571601733565">
        <ele>1246.01</ele>
        <time>2015-03-01T08:31:02Z</time>
      </trkpt>
      <trkpt lat="46.228745765984058" lon="8.288488453254104">
        <ele>1247.45</ele>
        <time>2015-03-01T08:31:18Z</time>
      </trkpt>
      <trkpt lat="46.228692121803761" lon="8.288378482684493">
        <ele>1248.8900000000001</ele>
        <time>2015-03-01T08:31:32Z</time>
      </trkpt>
      <trkpt lat="46.228655828163028" lon="8.288215706124902">
        <ele>1251.29</ele>
        <time>2015-03-01T08:31:49Z</time>
      </trkpt>
      <trkpt lat="46.22860268689692" lon="8.288070950657129">
        <ele>1253.7</ele>
        <time>2015-03-01T08:32:04Z</time>
      </trkpt>
      <trkpt lat="46.22857728973031" lon="8.287932816892862">
        <ele>1255.1400000000001</ele>
        <time>2015-03-01T08:32:18Z</time>
      </trkpt>
      <trkpt lat="46.228539822623134" lon="8.287844387814403">
        <ele>1257.0599999999999</ele>
        <time>2015-03-01T08:32:32Z</time>
      </trkpt>
      <trkpt lat="46.228507636114955" lon="8.287798035889864">
        <ele>1258.02</ele>
        <time>2015-03-01T08:32:46Z</time>
      </trkpt>
      <trkpt lat="46.228507552295923" lon="8.287824019789696">
        <ele>1258.02</ele>
        <time>2015-03-01T08:32:59Z</time>
      </trkpt>
      <trkpt lat="46.22852842323482" lon="8.287777835503221">
        <ele>1258.5</ele>
        <time>2015-03-01T08:33:12Z</time>
      </trkpt>
      <trkpt lat="46.228527333587408" lon="8.28774849884212">
        <ele>1258.5</ele>
        <time>2015-03-01T08:33:24Z</time>
      </trkpt>
      <trkpt lat="46.228536302223802" lon="8.287731148302555">
        <ele>1258.5</ele>
        <time>2015-03-01T08:33:46Z</time>
      </trkpt>
      <trkpt lat="46.228572512045503" lon="8.287746990099549">
        <ele>1258.02</ele>
        <time>2015-03-01T08:34:04Z</time>
      </trkpt>
      <trkpt lat="46.228563543409109" lon="8.287787642329931">
        <ele>1258.5</ele>
        <time>2015-03-01T08:34:24Z</time>
      </trkpt>
      <trkpt lat="46.228574775159359" lon="8.287785882130265">
        <ele>1258.02</ele>
        <time>2015-03-01T08:34:52Z</time>
      </trkpt>
      <trkpt lat="46.228533536195755" lon="8.287785965949297">
        <ele>1258.5</ele>
        <time>2015-03-01T08:35:09Z</time>
      </trkpt>
      <trkpt lat="46.228533117100596" lon="8.287783032283187">
        <ele>1258.5</ele>
        <time>2015-03-01T08:35:36Z</time>
      </trkpt>
      <trkpt lat="46.228517191484571" lon="8.287685550749302">
        <ele>1259.46</ele>
        <time>2015-03-01T08:35:42Z</time>
      </trkpt>
      <trkpt lat="46.228475533425808" lon="8.287666942924261">
        <ele>1259.46</ele>
        <time>2015-03-01T08:35:48Z</time>
      </trkpt>
      <trkpt lat="46.228352319449186" lon="8.28768203034997">
        <ele>1261.3900000000001</ele>
        <time>2015-03-01T08:36:02Z</time>
      </trkpt>
      <trkpt lat="46.228274200111628" lon="8.287646574899554">
        <ele>1263.3099999999999</ele>
        <time>2015-03-01T08:36:16Z</time>
      </trkpt>
      <trkpt lat="46.228232709690928" lon="8.287568874657154">
        <ele>1265.71</ele>
        <time>2015-03-01T08:36:29Z</time>
      </trkpt>
      <trkpt lat="46.228183759376407" lon="8.287528473883867">
        <ele>1268.1199999999999</ele>
        <time>2015-03-01T08:36:44Z</time>
      </trkpt>
      <trkpt lat="46.228116536512971" lon="8.287498718127608">
        <ele>1270.52</ele>
        <time>2015-03-01T08:36:59Z</time>
      </trkpt>
      <trkpt lat="46.228062221780419" lon="8.287407020106912">
        <ele>1272.4400000000001</ele>
        <time>2015-03-01T08:37:14Z</time>
      </trkpt>
      <trkpt lat="46.227998267859221" lon="8.287365864962339">
        <ele>1274.8499999999999</ele>
        <time>2015-03-01T08:37:28Z</time>
      </trkpt>
      <trkpt lat="46.227932972833514" lon="8.287279447540641">
        <ele>1276.29</ele>
        <time>2015-03-01T08:37:43Z</time>
      </trkpt>
      <trkpt lat="46.227852338925004" lon="8.287291768938303">
        <ele>1278.21</ele>
        <time>2015-03-01T08:37:58Z</time>
      </trkpt>
      <trkpt lat="46.22776759788394" lon="8.287316747009754">
        <ele>1279.1700000000001</ele>
        <time>2015-03-01T08:38:12Z</time>
      </trkpt>
      <trkpt lat="46.227671205997467" lon="8.287246087566018">
        <ele>1281.0899999999999</ele>
        <time>2015-03-01T08:38:27Z</time>
      </trkpt>
      <trkpt lat="46.227591829374433" lon="8.287231838330627">
        <ele>1282.0599999999999</ele>
        <time>2015-03-01T08:38:42Z</time>
      </trkpt>
      <trkpt lat="46.227482110261917" lon="8.287166627123952">
        <ele>1283.02</ele>
        <time>2015-03-01T08:38:58Z</time>
      </trkpt>
      <trkpt lat="46.227397536858916" lon="8.287111390382052">
        <ele>1284.9400000000001</ele>
        <time>2015-03-01T08:39:15Z</time>
      </trkpt>
      <trkpt lat="46.227293433621526" lon="8.287107618525624">
        <ele>1286.8599999999999</ele>
        <time>2015-03-01T08:39:33Z</time>
      </trkpt>
      <trkpt lat="46.227209279313684" lon="8.287034444510937">
        <ele>1289.75</ele>
        <time>2015-03-01T08:39:53Z</time>
      </trkpt>
      <trkpt lat="46.227147420868278" lon="8.287083143368363">
        <ele>1291.6700000000001</ele>
        <time>2015-03-01T08:40:07Z</time>
      </trkpt>
      <trkpt lat="46.227075252681971" lon="8.287174003198743">
        <ele>1292.1500000000001</ele>
        <time>2015-03-01T08:40:21Z</time>
      </trkpt>
      <trkpt lat="46.226966874673963" lon="8.287163442000747">
        <ele>1293.1099999999999</ele>
        <time>2015-03-01T08:40:37Z</time>
      </trkpt>
      <trkpt lat="46.226865705102682" lon="8.287164866924286">
        <ele>1295.03</ele>
        <time>2015-03-01T08:40:54Z</time>
      </trkpt>
      <trkpt lat="46.226789262145758" lon="8.287167130038142">
        <ele>1297.4400000000001</ele>
        <time>2015-03-01T08:41:12Z</time>
      </trkpt>
      <trkpt lat="46.226748190820217" lon="8.287200573831797">
        <ele>1299.3599999999999</ele>
        <time>2015-03-01T08:41:27Z</time>
      </trkpt>
      <trkpt lat="46.226668311282992" lon="8.287220690399408">
        <ele>1302.24</ele>
        <time>2015-03-01T08:41:38Z</time>
      </trkpt>
      <trkpt lat="46.226586503908038" lon="8.287190515547991">
        <ele>1303.2</ele>
        <time>2015-03-01T08:41:53Z</time>
      </trkpt>
      <trkpt lat="46.226518526673317" lon="8.287205183878541">
        <ele>1306.0899999999999</ele>
        <time>2015-03-01T08:42:11Z</time>
      </trkpt>
      <trkpt lat="46.226433785632253" lon="8.287216415628791">
        <ele>1308.01</ele>
        <time>2015-03-01T08:42:27Z</time>
      </trkpt>
      <trkpt lat="46.226381231099367" lon="8.28720711171627">
        <ele>1310.9000000000001</ele>
        <time>2015-03-01T08:42:44Z</time>
      </trkpt>
      <trkpt lat="46.226398078724742" lon="8.287078281864524">
        <ele>1312.8199999999999</ele>
        <time>2015-03-01T08:43:00Z</time>
      </trkpt>
      <trkpt lat="46.226368825882673" lon="8.287018015980721">
        <ele>1315.22</ele>
        <time>2015-03-01T08:43:16Z</time>
      </trkpt>
      <trkpt lat="46.226328257471323" lon="8.287032432854176">
        <ele>1317.1400000000001</ele>
        <time>2015-03-01T08:43:30Z</time>
      </trkpt>
      <trkpt lat="46.226353486999869" lon="8.286952888593078">
        <ele>1318.5899999999999</ele>
        <time>2015-03-01T08:43:46Z</time>
      </trkpt>
      <trkpt lat="46.22631493024528" lon="8.286927742883563">
        <ele>1320.51</ele>
        <time>2015-03-01T08:43:58Z</time>
      </trkpt>
      <trkpt lat="46.226314092054963" lon="8.2868757750839">
        <ele>1321.95</ele>
        <time>2015-03-01T08:44:09Z</time>
      </trkpt>
      <trkpt lat="46.226294310763478" lon="8.286891365423799">
        <ele>1321.95</ele>
        <time>2015-03-01T08:44:32Z</time>
      </trkpt>
      <trkpt lat="46.226264555007219" lon="8.286906033754349">
        <ele>1323.3900000000001</ele>
        <time>2015-03-01T08:44:48Z</time>
      </trkpt>
      <trkpt lat="46.226281402632594" lon="8.286823472008109">
        <ele>1325.3099999999999</ele>
        <time>2015-03-01T08:45:03Z</time>
      </trkpt>
      <trkpt lat="46.226259106770158" lon="8.286784579977393">
        <ele>1327.24</ele>
        <time>2015-03-01T08:45:14Z</time>
      </trkpt>
      <trkpt lat="46.226287018507719" lon="8.286720961332321">
        <ele>1329.1600000000001</ele>
        <time>2015-03-01T08:45:28Z</time>
      </trkpt>
      <trkpt lat="46.226266734302044" lon="8.286702521145344">
        <ele>1330.5999999999999</ele>
        <time>2015-03-01T08:45:43Z</time>
      </trkpt>
      <trkpt lat="46.226200684905052" lon="8.286709981039167">
        <ele>1332.04</ele>
        <time>2015-03-01T08:45:54Z</time>
      </trkpt>
      <trkpt lat="46.2261619605124" lon="8.286775443702936">
        <ele>1333.01</ele>
        <time>2015-03-01T08:46:06Z</time>
      </trkpt>
      <trkpt lat="46.226199679076672" lon="8.286753231659532">
        <ele>1332.04</ele>
        <time>2015-03-01T08:46:20Z</time>
      </trkpt>
      <trkpt lat="46.226198757067323" lon="8.286750130355358">
        <ele>1332.52</ele>
        <time>2015-03-01T08:46:35Z</time>
      </trkpt>
      <trkpt lat="46.226154919713736" lon="8.286779718473554">
        <ele>1333.01</ele>
        <time>2015-03-01T08:46:53Z</time>
      </trkpt>
      <trkpt lat="46.226153243333101" lon="8.286783238872886">
        <ele>1333.01</ele>
        <time>2015-03-01T08:47:08Z</time>
      </trkpt>
      <trkpt lat="46.226145196706057" lon="8.286819867789745">
        <ele>1332.52</ele>
        <time>2015-03-01T08:47:21Z</time>
      </trkpt>
      <trkpt lat="46.226171180605888" lon="8.286814335733652">
        <ele>1333.49</ele>
        <time>2015-03-01T08:47:41Z</time>
      </trkpt>
      <trkpt lat="46.226210156455636" lon="8.28677854500711">
        <ele>1333.01</ele>
        <time>2015-03-01T08:47:59Z</time>
      </trkpt>
      <trkpt lat="46.226204372942448" lon="8.286741077899933">
        <ele>1333.01</ele>
        <time>2015-03-01T08:48:16Z</time>
      </trkpt>
      <trkpt lat="46.226230943575501" lon="8.286635968834162">
        <ele>1333.97</ele>
        <time>2015-03-01T08:48:29Z</time>
      </trkpt>
      <trkpt lat="46.226179478690028" lon="8.286559442058206">
        <ele>1336.8499999999999</ele>
        <time>2015-03-01T08:48:42Z</time>
      </trkpt>
      <trkpt lat="46.226118458434939" lon="8.286553071811795">
        <ele>1338.77</ele>
        <time>2015-03-01T08:48:57Z</time>
      </trkpt>
      <trkpt lat="46.226095408201218" lon="8.286547958850861">
        <ele>1339.73</ele>
        <time>2015-03-01T08:49:01Z</time>
      </trkpt>
      <trkpt lat="46.226001614704728" lon="8.286538571119309">
        <ele>1342.1400000000001</ele>
        <time>2015-03-01T08:49:15Z</time>
      </trkpt>
      <trkpt lat="46.225975379347801" lon="8.28644628636539">
        <ele>1344.54</ele>
        <time>2015-03-01T08:49:28Z</time>
      </trkpt>
      <trkpt lat="46.225949982181191" lon="8.286361796781421">
        <ele>1346.46</ele>
        <time>2015-03-01T08:49:40Z</time>
      </trkpt>
      <trkpt lat="46.225948641076684" lon="8.286345200613141">
        <ele>1348.3900000000001</ele>
        <time>2015-03-01T08:49:42Z</time>
      </trkpt>
      <trkpt lat="46.225910503417253" lon="8.28629826195538">
        <ele>1348.8699999999999</ele>
        <time>2015-03-01T08:49:51Z</time>
      </trkpt>
      <trkpt lat="46.225868929177523" lon="8.286204803735018">
        <ele>1350.79</ele>
        <time>2015-03-01T08:50:03Z</time>
      </trkpt>
      <trkpt lat="46.225837916135788" lon="8.286187704652548">
        <ele>1353.1900000000001</ele>
        <time>2015-03-01T08:50:15Z</time>
      </trkpt>
      <trkpt lat="46.225801119580865" lon="8.286113189533353">
        <ele>1356.0799999999999</ele>
        <time>2015-03-01T08:50:32Z</time>
      </trkpt>
      <trkpt lat="46.225790977478027" lon="8.286035489290953">
        <ele>1358.96</ele>
        <time>2015-03-01T08:50:45Z</time>
      </trkpt>
      <trkpt lat="46.225796341896057" lon="8.28598259948194">
        <ele>1360.8800000000001</ele>
        <time>2015-03-01T08:50:58Z</time>
      </trkpt>
      <trkpt lat="46.225719060748816" lon="8.286026772111654">
        <ele>1362.8099999999999</ele>
        <time>2015-03-01T08:51:16Z</time>
      </trkpt>
      <trkpt lat="46.225687712430954" lon="8.286076057702303">
        <ele>1363.77</ele>
        <time>2015-03-01T08:51:23Z</time>
      </trkpt>
      <trkpt lat="46.225639432668686" lon="8.286170857027173">
        <ele>1365.21</ele>
        <time>2015-03-01T08:51:39Z</time>
      </trkpt>
      <trkpt lat="46.225604983046651" lon="8.286182675510645">
        <ele>1367.6099999999999</ele>
        <time>2015-03-01T08:51:43Z</time>
      </trkpt>
      <trkpt lat="46.225520661100745" lon="8.28626599162817">
        <ele>1368.0899999999999</ele>
        <time>2015-03-01T08:51:58Z</time>
      </trkpt>
      <trkpt lat="46.225478248670697" lon="8.286325335502625">
        <ele>1370.5</ele>
        <time>2015-03-01T08:52:11Z</time>
      </trkpt>
      <trkpt lat="46.225416976958513" lon="8.286402113735676">
        <ele>1371.9400000000001</ele>
        <time>2015-03-01T08:52:25Z</time>
      </trkpt>
      <trkpt lat="46.225374648347497" lon="8.286495404317975">
        <ele>1373.3800000000001</ele>
        <time>2015-03-01T08:52:39Z</time>
      </trkpt>
      <trkpt lat="46.225307090207934" lon="8.286551982164383">
        <ele>1374.3399999999999</ele>
        <time>2015-03-01T08:52:50Z</time>
      </trkpt>
      <trkpt lat="46.225212123245001" lon="8.286630185320973">
        <ele>1376.75</ele>
        <time>2015-03-01T08:53:05Z</time>
      </trkpt>
      <trkpt lat="46.225160490721464" lon="8.286683661863208">
        <ele>1378.6700000000001</ele>
        <time>2015-03-01T08:53:17Z</time>
      </trkpt>
      <trkpt lat="46.225116401910782" lon="8.286763541400433">
        <ele>1380.5899999999999</ele>
        <time>2015-03-01T08:53:31Z</time>
      </trkpt>
      <trkpt lat="46.225071055814624" lon="8.286837637424469">
        <ele>1383.96</ele>
        <time>2015-03-01T08:53:44Z</time>
      </trkpt>
      <trkpt lat="46.225001234561205" lon="8.286883737891913">
        <ele>1383.96</ele>
        <time>2015-03-01T08:53:53Z</time>
      </trkpt>
      <trkpt lat="46.224909704178572" lon="8.286915253847837">
        <ele>1385.4000000000001</ele>
        <time>2015-03-01T08:54:05Z</time>
      </trkpt>
      <trkpt lat="46.224888330325484" lon="8.286920702084899">
        <ele>1385.8800000000001</ele>
        <time>2015-03-01T08:54:08Z</time>
      </trkpt>
      <trkpt lat="46.22483585961163" lon="8.286873428151012">
        <ele>1387.3199999999999</ele>
        <time>2015-03-01T08:54:20Z</time>
      </trkpt>
      <trkpt lat="46.224830914288759" lon="8.286878541111946">
        <ele>1387.8</ele>
        <time>2015-03-01T08:54:22Z</time>
      </trkpt>
      <trkpt lat="46.22481725178659" lon="8.28689337708056">
        <ele>1388.28</ele>
        <time>2015-03-01T08:54:24Z</time>
      </trkpt>
      <trkpt lat="46.224778024479747" lon="8.286975184455514">
        <ele>1388.28</ele>
        <time>2015-03-01T08:54:33Z</time>
      </trkpt>
      <trkpt lat="46.224762769415975" lon="8.287090016528964">
        <ele>1389.24</ele>
        <time>2015-03-01T08:54:44Z</time>
      </trkpt>
      <trkpt lat="46.224691271781921" lon="8.287166208028793">
        <ele>1388.76</ele>
        <time>2015-03-01T08:54:52Z</time>
      </trkpt>
      <trkpt lat="46.224669562652707" lon="8.287184983491898">
        <ele>1388.28</ele>
        <time>2015-03-01T08:54:55Z</time>
      </trkpt>
      <trkpt lat="46.224639471620321" lon="8.287194706499577">
        <ele>1388.76</ele>
        <time>2015-03-01T08:54:56Z</time>
      </trkpt>
      <trkpt lat="46.224618349224329" lon="8.287243656814098">
        <ele>1388.76</ele>
        <time>2015-03-01T08:55:13Z</time>
      </trkpt>
      <trkpt lat="46.224578870460391" lon="8.287287913262844">
        <ele>1389.24</ele>
        <time>2015-03-01T08:55:31Z</time>
      </trkpt>
      <trkpt lat="46.22454022988677" lon="8.287366954609752">
        <ele>1392.6099999999999</ele>
        <time>2015-03-01T08:55:44Z</time>
      </trkpt>
      <trkpt lat="46.224538721144199" lon="8.287367038428783">
        <ele>1392.6099999999999</ele>
        <time>2015-03-01T08:55:45Z</time>
      </trkpt>
      <trkpt lat="46.224461691454053" lon="8.287437865510583">
        <ele>1393.5699999999999</ele>
        <time>2015-03-01T08:56:00Z</time>
      </trkpt>
      <trkpt lat="46.224396312609315" lon="8.287554709240794">
        <ele>1395.01</ele>
        <time>2015-03-01T08:56:13Z</time>
      </trkpt>
      <trkpt lat="46.22433646582067" lon="8.287594439461827">
        <ele>1395.49</ele>
        <time>2015-03-01T08:56:19Z</time>
      </trkpt>
      <trkpt lat="46.224277876317501" lon="8.287628386169672">
        <ele>1395.97</ele>
        <time>2015-03-01T08:56:24Z</time>
      </trkpt>
      <trkpt lat="46.224207635968924" lon="8.287752103060484">
        <ele>1397.8900000000001</ele>
        <time>2015-03-01T08:56:39Z</time>
      </trkpt>
      <trkpt lat="46.224170671775937" lon="8.287783702835441">
        <ele>1398.3699999999999</ele>
        <time>2015-03-01T08:56:45Z</time>
      </trkpt>
      <trkpt lat="46.224144520238042" lon="8.287816643714905">
        <ele>1399.3399999999999</ele>
        <time>2015-03-01T08:56:50Z</time>
      </trkpt>
      <trkpt lat="46.224052235484123" lon="8.287901803851128">
        <ele>1401.74</ele>
        <time>2015-03-01T08:57:05Z</time>
      </trkpt>
      <trkpt lat="46.223994484171271" lon="8.287946814671159">
        <ele>1403.1800000000001</ele>
        <time>2015-03-01T08:57:19Z</time>
      </trkpt>
      <trkpt lat="46.223918963223696" lon="8.2879654224962">
        <ele>1404.1400000000001</ele>
        <time>2015-03-01T08:57:29Z</time>
      </trkpt>
      <trkpt lat="46.223812010139227" lon="8.288018731400371">
        <ele>1404.6199999999999</ele>
        <time>2015-03-01T08:57:43Z</time>
      </trkpt>
      <trkpt lat="46.223801868036389" lon="8.288035159930587">
        <ele>1406.55</ele>
        <time>2015-03-01T08:57:46Z</time>
      </trkpt>
      <trkpt lat="46.223800107836723" lon="8.288040356710553">
        <ele>1405.0999999999999</ele>
        <time>2015-03-01T08:57:47Z</time>
      </trkpt>
      <trkpt lat="46.223779991269112" lon="8.288077069446445">
        <ele>1405.0999999999999</ele>
        <time>2015-03-01T08:57:49Z</time>
      </trkpt>
      <trkpt lat="46.223690891638398" lon="8.288158206269145">
        <ele>1406.0699999999999</ele>
        <time>2015-03-01T08:58:01Z</time>
      </trkpt>
      <trkpt lat="46.223651077598333" lon="8.288181591778994">
        <ele>1406.55</ele>
        <time>2015-03-01T08:58:06Z</time>
      </trkpt>
      <trkpt lat="46.223530126735568" lon="8.288190728053451">
        <ele>1407.51</ele>
        <time>2015-03-01T08:58:18Z</time>
      </trkpt>
      <trkpt lat="46.223433231934905" lon="8.288181843236089">
        <ele>1409.4300000000001</ele>
        <time>2015-03-01T08:58:32Z</time>
      </trkpt>
      <trkpt lat="46.223341031000018" lon="8.288162397220731">
        <ele>1411.8299999999999</ele>
        <time>2015-03-01T08:58:47Z</time>
      </trkpt>
      <trkpt lat="46.22325805015862" lon="8.288167426362634">
        <ele>1412.3099999999999</ele>
        <time>2015-03-01T08:58:59Z</time>
      </trkpt>
      <trkpt lat="46.223191330209374" lon="8.288176646456122">
        <ele>1413.76</ele>
        <time>2015-03-01T08:59:11Z</time>
      </trkpt>
      <trkpt lat="46.223143804818392" lon="8.288139263167977">
        <ele>1414.72</ele>
        <time>2015-03-01T08:59:20Z</time>
      </trkpt>
      <trkpt lat="46.223091166466475" lon="8.288171952590346">
        <ele>1415.6800000000001</ele>
        <time>2015-03-01T08:59:27Z</time>
      </trkpt>
      <trkpt lat="46.223048586398363" lon="8.288185028359294">
        <ele>1416.1600000000001</ele>
        <time>2015-03-01T08:59:31Z</time>
      </trkpt>
      <trkpt lat="46.222930736839771" lon="8.288260130211711">
        <ele>1417.5999999999999</ele>
        <time>2015-03-01T08:59:45Z</time>
      </trkpt>
      <trkpt lat="46.222911877557635" lon="8.288275972008705">
        <ele>1419.04</ele>
        <time>2015-03-01T08:59:47Z</time>
      </trkpt>
      <trkpt lat="46.222889330238104" lon="8.288288544863462">
        <ele>1417.5999999999999</ele>
        <time>2015-03-01T08:59:49Z</time>
      </trkpt>
      <trkpt lat="46.222855383530259" lon="8.288311511278153">
        <ele>1418.0799999999999</ele>
        <time>2015-03-01T08:59:53Z</time>
      </trkpt>
      <trkpt lat="46.2227738276124" lon="8.288383595645428">
        <ele>1419.04</ele>
        <time>2015-03-01T09:00:05Z</time>
      </trkpt>
      <trkpt lat="46.222729990258813" lon="8.288493817672133">
        <ele>1420.49</ele>
        <time>2015-03-01T09:00:14Z</time>
      </trkpt>
      <trkpt lat="46.222603423520923" lon="8.288574116304517">
        <ele>1421.45</ele>
        <time>2015-03-01T09:00:26Z</time>
      </trkpt>
      <trkpt lat="46.222576685249805" lon="8.28860898502171">
        <ele>1421.9300000000001</ele>
        <time>2015-03-01T09:00:33Z</time>
      </trkpt>
      <trkpt lat="46.222498146817088" lon="8.288667323067784">
        <ele>1423.8499999999999</ele>
        <time>2015-03-01T09:00:44Z</time>
      </trkpt>
      <trkpt lat="46.222410723567009" lon="8.288724487647414">
        <ele>1425.77</ele>
        <time>2015-03-01T09:00:59Z</time>
      </trkpt>
      <trkpt lat="46.22234920039773" lon="8.288767989724875">
        <ele>1427.21</ele>
        <time>2015-03-01T09:01:13Z</time>
      </trkpt>
      <trkpt lat="46.222288683056831" lon="8.28882247209549">
        <ele>1428.1800000000001</ele>
        <time>2015-03-01T09:01:26Z</time>
      </trkpt>
      <trkpt lat="46.222179550677538" lon="8.288854574784637">
        <ele>1429.6199999999999</ele>
        <time>2015-03-01T09:01:38Z</time>
      </trkpt>
      <trkpt lat="46.222115093842149" lon="8.288858095183969">
        <ele>1431.0599999999999</ele>
        <time>2015-03-01T09:01:50Z</time>
      </trkpt>
      <trkpt lat="46.222038399428129" lon="8.288859436288476">
        <ele>1432.02</ele>
        <time>2015-03-01T09:02:04Z</time>
      </trkpt>
      <trkpt lat="46.222043428570032" lon="8.288830183446407">
        <ele>1432.5</ele>
        <time>2015-03-01T09:02:24Z</time>
      </trkpt>
      <trkpt lat="46.22195734642446" lon="8.288829009979963">
        <ele>1433.9400000000001</ele>
        <time>2015-03-01T09:02:40Z</time>
      </trkpt>
      <trkpt lat="46.221888195723295" lon="8.288784082978964">
        <ele>1435.3900000000001</ele>
        <time>2015-03-01T09:02:53Z</time>
      </trkpt>
      <trkpt lat="46.221917364746332" lon="8.28871451318264">
        <ele>1437.3099999999999</ele>
        <time>2015-03-01T09:03:05Z</time>
      </trkpt>
      <trkpt lat="46.221896409988403" lon="8.288718201220036">
        <ele>1437.79</ele>
        <time>2015-03-01T09:03:08Z</time>
      </trkpt>
      <trkpt lat="46.221813596785069" lon="8.288637567311525">
        <ele>1440.6700000000001</ele>
        <time>2015-03-01T09:03:23Z</time>
      </trkpt>
      <trkpt lat="46.221744697540998" lon="8.28854008577764">
        <ele>1443.0799999999999</ele>
        <time>2015-03-01T09:03:39Z</time>
      </trkpt>
      <trkpt lat="46.221745451912284" lon="8.288445537909865">
        <ele>1445</ele>
        <time>2015-03-01T09:03:53Z</time>
      </trkpt>
      <trkpt lat="46.221710918471217" lon="8.288435060530901">
        <ele>1445.96</ele>
        <time>2015-03-01T09:04:08Z</time>
      </trkpt>
      <trkpt lat="46.22163774445653" lon="8.288382422178984">
        <ele>1446.9200000000001</ele>
        <time>2015-03-01T09:04:24Z</time>
      </trkpt>
      <trkpt lat="46.221651658415794" lon="8.288275049999356">
        <ele>1450.29</ele>
        <time>2015-03-01T09:04:33Z</time>
      </trkpt>
      <trkpt lat="46.221653083339334" lon="8.288271948695183">
        <ele>1450.29</ele>
        <time>2015-03-01T09:04:34Z</time>
      </trkpt>
      <trkpt lat="46.221654675900936" lon="8.288266751915216">
        <ele>1448.8399999999999</ele>
        <time>2015-03-01T09:04:35Z</time>
      </trkpt>
      <trkpt lat="46.221632296219468" lon="8.288155859336257">
        <ele>1450.29</ele>
        <time>2015-03-01T09:04:49Z</time>
      </trkpt>
      <trkpt lat="46.221633469685912" lon="8.288071285933256">
        <ele>1452.21</ele>
        <time>2015-03-01T09:04:59Z</time>
      </trkpt>
      <trkpt lat="46.221631206572056" lon="8.287997022271156">
        <ele>1454.1300000000001</ele>
        <time>2015-03-01T09:05:11Z</time>
      </trkpt>
      <trkpt lat="46.221556272357702" lon="8.287977576255798">
        <ele>1455.5699999999999</ele>
        <time>2015-03-01T09:05:23Z</time>
      </trkpt>
      <trkpt lat="46.22150874696672" lon="8.28794932924211">
        <ele>1457.5</ele>
        <time>2015-03-01T09:05:36Z</time>
      </trkpt>
      <trkpt lat="46.221490977331996" lon="8.287870874628425">
        <ele>1458.9400000000001</ele>
        <time>2015-03-01T09:05:48Z</time>
      </trkpt>
      <trkpt lat="46.221478236839175" lon="8.28780809417367">
        <ele>1460.3800000000001</ele>
        <time>2015-03-01T09:06:01Z</time>
      </trkpt>
      <trkpt lat="46.221444960683584" lon="8.287775237113237">
        <ele>1462.3</ele>
        <time>2015-03-01T09:06:14Z</time>
      </trkpt>
      <trkpt lat="46.221419228240848" lon="8.28770549967885">
        <ele>1463.74</ele>
        <time>2015-03-01T09:06:25Z</time>
      </trkpt>
      <trkpt lat="46.221382096409798" lon="8.287692340090871">
        <ele>1465.1900000000001</ele>
        <time>2015-03-01T09:06:37Z</time>
      </trkpt>
      <trkpt lat="46.221322333440185" lon="8.28769669868052">
        <ele>1466.6300000000001</ele>
        <time>2015-03-01T09:06:48Z</time>
      </trkpt>
      <trkpt lat="46.221283441409469" lon="8.287723185494542">
        <ele>1468.0699999999999</ele>
        <time>2015-03-01T09:07:01Z</time>
      </trkpt>
      <trkpt lat="46.221233820542693" lon="8.287664679810405">
        <ele>1469.51</ele>
        <time>2015-03-01T09:07:12Z</time>
      </trkpt>
      <trkpt lat="46.221203980967402" lon="8.287639115005732">
        <ele>1471.4400000000001</ele>
        <time>2015-03-01T09:07:26Z</time>
      </trkpt>
      <trkpt lat="46.221154192462564" lon="8.287590583786368">
        <ele>1472.8800000000001</ele>
        <time>2015-03-01T09:07:39Z</time>
      </trkpt>
      <trkpt lat="46.221119575202465" lon="8.287539202719927">
        <ele>1474.8</ele>
        <time>2015-03-01T09:07:55Z</time>
      </trkpt>
      <trkpt lat="46.221081102266908" lon="8.287505423650146">
        <ele>1476.24</ele>
        <time>2015-03-01T09:08:07Z</time>
      </trkpt>
      <trkpt lat="46.221044221892953" lon="8.287469213828445">
        <ele>1478.1600000000001</ele>
        <time>2015-03-01T09:08:20Z</time>
      </trkpt>
      <trkpt lat="46.22102745808661" lon="8.28747633844614">
        <ele>1479.6099999999999</ele>
        <time>2015-03-01T09:08:34Z</time>
      </trkpt>
      <trkpt lat="46.220998372882605" lon="8.287427388131619">
        <ele>1481.53</ele>
        <time>2015-03-01T09:08:47Z</time>
      </trkpt>
      <trkpt lat="46.220959983766079" lon="8.287429651245475">
        <ele>1482.97</ele>
        <time>2015-03-01T09:09:02Z</time>
      </trkpt>
      <trkpt lat="46.22093559242785" lon="8.28743769787252">
        <ele>1483.9300000000001</ele>
        <time>2015-03-01T09:09:20Z</time>
      </trkpt>
      <trkpt lat="46.22087650001049" lon="8.287385730072856">
        <ele>1482.97</ele>
        <time>2015-03-01T09:09:35Z</time>
      </trkpt>
      <trkpt lat="46.220901980996132" lon="8.287403248250485">
        <ele>1484.4100000000001</ele>
        <time>2015-03-01T09:09:44Z</time>
      </trkpt>
      <trkpt lat="46.220877841114998" lon="8.287427807226777">
        <ele>1486.3399999999999</ele>
        <time>2015-03-01T09:09:57Z</time>
      </trkpt>
      <trkpt lat="46.220843056216836" lon="8.287451863288879">
        <ele>1488.26</ele>
        <time>2015-03-01T09:10:10Z</time>
      </trkpt>
      <trkpt lat="46.220779772847891" lon="8.287461083382368">
        <ele>1490.1800000000001</ele>
        <time>2015-03-01T09:10:23Z</time>
      </trkpt>
      <trkpt lat="46.220747753977776" lon="8.287478350102902">
        <ele>1492.5799999999999</ele>
        <time>2015-03-01T09:10:37Z</time>
      </trkpt>
      <trkpt lat="46.220699977129698" lon="8.287533335387707">
        <ele>1494.99</ele>
        <time>2015-03-01T09:10:52Z</time>
      </trkpt>
      <trkpt lat="46.220599981024861" lon="8.287540124729276">
        <ele>1496.4300000000001</ele>
        <time>2015-03-01T09:11:05Z</time>
      </trkpt>
      <trkpt lat="46.220552790910006" lon="8.287503244355321">
        <ele>1497.8699999999999</ele>
        <time>2015-03-01T09:11:19Z</time>
      </trkpt>
      <trkpt lat="46.220546253025532" lon="8.287446331232786">
        <ele>1499.79</ele>
        <time>2015-03-01T09:11:30Z</time>
      </trkpt>
      <trkpt lat="46.220564777031541" lon="8.287392184138298">
        <ele>1501.72</ele>
        <time>2015-03-01T09:11:44Z</time>
      </trkpt>
      <trkpt lat="46.220614481717348" lon="8.287360416725278">
        <ele>1501.72</ele>
        <time>2015-03-01T09:11:57Z</time>
      </trkpt>
      <trkpt lat="46.220619427040219" lon="8.287345496937633">
        <ele>1502.6800000000001</ele>
        <time>2015-03-01T09:12:14Z</time>
      </trkpt>
      <trkpt lat="46.220604842528701" lon="8.287216499447823">
        <ele>1505.0799999999999</ele>
        <time>2015-03-01T09:12:29Z</time>
      </trkpt>
      <trkpt lat="46.220567459240556" lon="8.287163861095905">
        <ele>1507.97</ele>
        <time>2015-03-01T09:12:50Z</time>
      </trkpt>
      <trkpt lat="46.2205427326262" lon="8.28709814697504">
        <ele>1509.8900000000001</ele>
        <time>2015-03-01T09:13:07Z</time>
      </trkpt>
      <trkpt lat="46.220498727634549" lon="8.287066295742989">
        <ele>1511.3299999999999</ele>
        <time>2015-03-01T09:13:20Z</time>
      </trkpt>
      <trkpt lat="46.220451286062598" lon="8.287100410088897">
        <ele>1513.25</ele>
        <time>2015-03-01T09:13:35Z</time>
      </trkpt>
      <trkpt lat="46.220403760671616" lon="8.287105020135641">
        <ele>1515.1800000000001</ele>
        <time>2015-03-01T09:13:48Z</time>
      </trkpt>
      <trkpt lat="46.220354977995157" lon="8.287052130326629">
        <ele>1516.6199999999999</ele>
        <time>2015-03-01T09:14:03Z</time>
      </trkpt>
      <trkpt lat="46.22034047730267" lon="8.287000246345997">
        <ele>1518.54</ele>
        <time>2015-03-01T09:14:17Z</time>
      </trkpt>
      <trkpt lat="46.220334023237228" lon="8.28695984557271">
        <ele>1519.98</ele>
        <time>2015-03-01T09:14:31Z</time>
      </trkpt>
      <trkpt lat="46.220348523929715" lon="8.28688164241612">
        <ele>1521.9000000000001</ele>
        <time>2015-03-01T09:14:46Z</time>
      </trkpt>
      <trkpt lat="46.220309799537063" lon="8.286881810054183">
        <ele>1523.8299999999999</ele>
        <time>2015-03-01T09:15:00Z</time>
      </trkpt>
      <trkpt lat="46.220263196155429" lon="8.286862783133984">
        <ele>1526.23</ele>
        <time>2015-03-01T09:15:15Z</time>
      </trkpt>
      <trkpt lat="46.220210222527385" lon="8.286843840032816">
        <ele>1528.1500000000001</ele>
        <time>2015-03-01T09:15:29Z</time>
      </trkpt>
      <trkpt lat="46.220159092918038" lon="8.286875020712614">
        <ele>1529.5899999999999</ele>
        <time>2015-03-01T09:15:42Z</time>
      </trkpt>
      <trkpt lat="46.220100587233901" lon="8.286896478384733">
        <ele>1531.52</ele>
        <time>2015-03-01T09:15:58Z</time>
      </trkpt>
      <trkpt lat="46.22004141099751" lon="8.286893796175718">
        <ele>1533.4400000000001</ele>
        <time>2015-03-01T09:16:11Z</time>
      </trkpt>
      <trkpt lat="46.219992963597178" lon="8.28689681366086">
        <ele>1534.8800000000001</ele>
        <time>2015-03-01T09:16:25Z</time>
      </trkpt>
      <trkpt lat="46.219958681613207" lon="8.286887090653181">
        <ele>1536.8</ele>
        <time>2015-03-01T09:16:40Z</time>
      </trkpt>
      <trkpt lat="46.219893470406532" lon="8.286794973537326">
        <ele>1538.73</ele>
        <time>2015-03-01T09:16:54Z</time>
      </trkpt>
      <trkpt lat="46.219856925308704" lon="8.286769827827811">
        <ele>1540.1700000000001</ele>
        <time>2015-03-01T09:17:08Z</time>
      </trkpt>
      <trkpt lat="46.219876371324062" lon="8.286764295771718">
        <ele>1540.1700000000001</ele>
        <time>2015-03-01T09:17:27Z</time>
      </trkpt>
      <trkpt lat="46.219880310818553" lon="8.28677074983716">
        <ele>1540.6500000000001</ele>
        <time>2015-03-01T09:17:44Z</time>
      </trkpt>
      <trkpt lat="46.219864469021559" lon="8.286752980202436">
        <ele>1540.1700000000001</ele>
        <time>2015-03-01T09:18:04Z</time>
      </trkpt>
      <trkpt lat="46.219894895330071" lon="8.286777706816793">
        <ele>1540.1700000000001</ele>
        <time>2015-03-01T09:18:24Z</time>
      </trkpt>
      <trkpt lat="46.219893554225564" lon="8.286732360720635">
        <ele>1540.6500000000001</ele>
        <time>2015-03-01T09:18:44Z</time>
      </trkpt>
      <trkpt lat="46.21994317509234" lon="8.286651810631156">
        <ele>1543.05</ele>
        <time>2015-03-01T09:18:59Z</time>
      </trkpt>
      <trkpt lat="46.21994761750102" lon="8.286585342139006">
        <ele>1544.98</ele>
        <time>2015-03-01T09:19:14Z</time>
      </trkpt>
      <trkpt lat="46.21997301466763" lon="8.286544186994433">
        <ele>1546.9000000000001</ele>
        <time>2015-03-01T09:19:27Z</time>
      </trkpt>
      <trkpt lat="46.2200419139117" lon="8.286497080698609">
        <ele>1547.8599999999999</ele>
        <time>2015-03-01T09:19:43Z</time>
      </trkpt>
      <trkpt lat="46.220078459009528" lon="8.286401694640517">
        <ele>1549.3</ele>
        <time>2015-03-01T09:19:57Z</time>
      </trkpt>
      <trkpt lat="46.220087260007858" lon="8.286352241411805">
        <ele>1550.74</ele>
        <time>2015-03-01T09:20:11Z</time>
      </trkpt>
      <trkpt lat="46.220052475109696" lon="8.286377135664225">
        <ele>1552.1900000000001</ele>
        <time>2015-03-01T09:20:26Z</time>
      </trkpt>
      <trkpt lat="46.220003273338079" lon="8.286351235583425">
        <ele>1554.1099999999999</ele>
        <time>2015-03-01T09:20:41Z</time>
      </trkpt>
      <trkpt lat="46.219955328851938" lon="8.286315025761724">
        <ele>1556.03</ele>
        <time>2015-03-01T09:20:53Z</time>
      </trkpt>
      <trkpt lat="46.219939067959785" lon="8.286257945001125">
        <ele>1557.47</ele>
        <time>2015-03-01T09:21:08Z</time>
      </trkpt>
      <trkpt lat="46.219957927241921" lon="8.28618636354804">
        <ele>1558.4300000000001</ele>
        <time>2015-03-01T09:21:21Z</time>
      </trkpt>
      <trkpt lat="46.220012828707695" lon="8.286190135404468">
        <ele>1558.4300000000001</ele>
        <time>2015-03-01T09:21:45Z</time>
      </trkpt>
      <trkpt lat="46.219953317195177" lon="8.286126097664237">
        <ele>1558.4300000000001</ele>
        <time>2015-03-01T09:22:20Z</time>
      </trkpt>
      <trkpt lat="46.219984497874975" lon="8.286124337464571">
        <ele>1558.4300000000001</ele>
        <time>2015-03-01T09:22:43Z</time>
      </trkpt>
      <trkpt lat="46.220010062679648" lon="8.286107154563069">
        <ele>1560.3599999999999</ele>
        <time>2015-03-01T09:23:00Z</time>
      </trkpt>
      <trkpt lat="46.220020707696676" lon="8.286023586988449">
        <ele>1562.28</ele>
        <time>2015-03-01T09:23:13Z</time>
      </trkpt>
      <trkpt lat="46.220022719353437" lon="8.285997686907649">
        <ele>1562.76</ele>
        <time>2015-03-01T09:23:21Z</time>
      </trkpt>
      <trkpt lat="46.220086254179478" lon="8.285898193717003">
        <ele>1564.6800000000001</ele>
        <time>2015-03-01T09:23:35Z</time>
      </trkpt>
      <trkpt lat="46.220096899196506" lon="8.285838263109326">
        <ele>1566.6099999999999</ele>
        <time>2015-03-01T09:23:49Z</time>
      </trkpt>
      <trkpt lat="46.220131264999509" lon="8.285783780738711">
        <ele>1569.01</ele>
        <time>2015-03-01T09:24:04Z</time>
      </trkpt>
      <trkpt lat="46.22007560916245" lon="8.285785373300314">
        <ele>1570.45</ele>
        <time>2015-03-01T09:24:19Z</time>
      </trkpt>
      <trkpt lat="46.220024395734072" lon="8.285779841244221">
        <ele>1572.3699999999999</ele>
        <time>2015-03-01T09:24:32Z</time>
      </trkpt>
      <trkpt lat="46.219990029931068" lon="8.28575293533504">
        <ele>1574.3</ele>
        <time>2015-03-01T09:24:47Z</time>
      </trkpt>
      <trkpt lat="46.21992364525795" lon="8.285745810717344">
        <ele>1575.26</ele>
        <time>2015-03-01T09:25:04Z</time>
      </trkpt>
      <trkpt lat="46.219846364110708" lon="8.285774141550064">
        <ele>1575.74</ele>
        <time>2015-03-01T09:25:17Z</time>
      </trkpt>
      <trkpt lat="46.21979171410203" lon="8.285738686099649">
        <ele>1578.1400000000001</ele>
        <time>2015-03-01T09:25:34Z</time>
      </trkpt>
      <trkpt lat="46.219745445996523" lon="8.285715887323022">
        <ele>1580.0599999999999</ele>
        <time>2015-03-01T09:25:49Z</time>
      </trkpt>
      <trkpt lat="46.21968861669302" lon="8.285661321133375">
        <ele>1581.99</ele>
        <time>2015-03-01T09:26:07Z</time>
      </trkpt>
      <trkpt lat="46.219619633629918" lon="8.285677330568433">
        <ele>1583.4300000000001</ele>
        <time>2015-03-01T09:26:25Z</time>
      </trkpt>
      <trkpt lat="46.219530617818236" lon="8.285724855959415">
        <ele>1584.8699999999999</ele>
        <time>2015-03-01T09:26:40Z</time>
      </trkpt>
      <trkpt lat="46.219470603391528" lon="8.285818733274937">
        <ele>1585.3499999999999</ele>
        <time>2015-03-01T09:26:54Z</time>
      </trkpt>
      <trkpt lat="46.219415115192533" lon="8.285790234804153">
        <ele>1587.27</ele>
        <time>2015-03-01T09:27:07Z</time>
      </trkpt>
      <trkpt lat="46.219353256747127" lon="8.285793671384454">
        <ele>1588.72</ele>
        <time>2015-03-01T09:27:22Z</time>
      </trkpt>
      <trkpt lat="46.219295337796211" lon="8.285801215097308">
        <ele>1590.6400000000001</ele>
        <time>2015-03-01T09:27:37Z</time>
      </trkpt>
      <trkpt lat="46.219212776049972" lon="8.285765508189797">
        <ele>1592.5599999999999</ele>
        <time>2015-03-01T09:27:52Z</time>
      </trkpt>
      <trkpt lat="46.219181260094047" lon="8.285722173750401">
        <ele>1594.48</ele>
        <time>2015-03-01T09:28:08Z</time>
      </trkpt>
      <trkpt lat="46.219173381105065" lon="8.285718653351069">
        <ele>1594.48</ele>
        <time>2015-03-01T09:28:19Z</time>
      </trkpt>
      <trkpt lat="46.219174303114414" lon="8.285714127123356">
        <ele>1593.52</ele>
        <time>2015-03-01T09:28:29Z</time>
      </trkpt>
      <trkpt lat="46.219167681410909" lon="8.285705326125026">
        <ele>1593.52</ele>
        <time>2015-03-01T09:29:09Z</time>
      </trkpt>
      <trkpt lat="46.219158042222261" lon="8.285769699141383">
        <ele>1594</ele>
        <time>2015-03-01T09:29:45Z</time>
      </trkpt>
      <trkpt lat="46.219099285081029" lon="8.285782188177109">
        <ele>1594</ele>
        <time>2015-03-01T09:30:15Z</time>
      </trkpt>
      <trkpt lat="46.219105403870344" lon="8.285905485972762">
        <ele>1594.48</ele>
        <time>2015-03-01T09:30:57Z</time>
      </trkpt>
      <trkpt lat="46.219104062765837" lon="8.285857373848558">
        <ele>1594.96</ele>
        <time>2015-03-01T09:31:38Z</time>
      </trkpt>
      <trkpt lat="46.219125939533114" lon="8.285824181511998">
        <ele>1595.45</ele>
        <time>2015-03-01T09:31:53Z</time>
      </trkpt>
      <trkpt lat="46.219134656712413" lon="8.285767184570432">
        <ele>1597.3699999999999</ele>
        <time>2015-03-01T09:32:01Z</time>
      </trkpt>
      <trkpt lat="46.219170279800892" lon="8.285697614774108">
        <ele>1595.9300000000001</ele>
        <time>2015-03-01T09:32:22Z</time>
      </trkpt>
      <trkpt lat="46.219165166839957" lon="8.285679845139384">
        <ele>1596.8900000000001</ele>
        <time>2015-03-01T09:32:37Z</time>
      </trkpt>
      <trkpt lat="46.219157706946135" lon="8.285670541226864">
        <ele>1595.45</ele>
        <time>2015-03-01T09:32:46Z</time>
      </trkpt>
      <trkpt lat="46.219134153798223" lon="8.285762323066592">
        <ele>1597.8499999999999</ele>
        <time>2015-03-01T09:33:08Z</time>
      </trkpt>
      <trkpt lat="46.219156617298722" lon="8.28572410158813">
        <ele>1596.4100000000001</ele>
        <time>2015-03-01T09:33:16Z</time>
      </trkpt>
      <trkpt lat="46.21913549490273" lon="8.285685880109668">
        <ele>1595.9300000000001</ele>
        <time>2015-03-01T09:33:36Z</time>
      </trkpt>
      <trkpt lat="46.219134237617254" lon="8.285688981413841">
        <ele>1596.4100000000001</ele>
        <time>2015-03-01T09:33:37Z</time>
      </trkpt>
      <trkpt lat="46.219048993662" lon="8.28564640134573">
        <ele>1596.8900000000001</ele>
        <time>2015-03-01T09:33:53Z</time>
      </trkpt>
      <trkpt lat="46.218911530449986" lon="8.285598624497652">
        <ele>1596.8900000000001</ele>
        <time>2015-03-01T09:34:09Z</time>
      </trkpt>
      <trkpt lat="46.218885630369186" lon="8.285576663911343">
        <ele>1599.29</ele>
        <time>2015-03-01T09:34:14Z</time>
      </trkpt>
      <trkpt lat="46.218922091647983" lon="8.285464765504003">
        <ele>1600.73</ele>
        <time>2015-03-01T09:34:27Z</time>
      </trkpt>
      <trkpt lat="46.21888387016952" lon="8.285482451319695">
        <ele>1602.1700000000001</ele>
        <time>2015-03-01T09:34:41Z</time>
      </trkpt>
      <trkpt lat="46.218804409727454" lon="8.285461412742734">
        <ele>1604.0999999999999</ele>
        <time>2015-03-01T09:34:55Z</time>
      </trkpt>
      <trkpt lat="46.218746909871697" lon="8.285450516268611">
        <ele>1607.9400000000001</ele>
        <time>2015-03-01T09:35:10Z</time>
      </trkpt>
      <trkpt lat="46.218664012849331" lon="8.285373821854591">
        <ele>1608.4200000000001</ele>
        <time>2015-03-01T09:35:27Z</time>
      </trkpt>
      <trkpt lat="46.218588072806597" lon="8.285367451608181">
        <ele>1610.3499999999999</ele>
        <time>2015-03-01T09:35:40Z</time>
      </trkpt>
      <trkpt lat="46.218537949025631" lon="8.285269550979137">
        <ele>1612.27</ele>
        <time>2015-03-01T09:35:53Z</time>
      </trkpt>
      <trkpt lat="46.218485981225967" lon="8.285228228196502">
        <ele>1614.1900000000001</ele>
        <time>2015-03-01T09:36:06Z</time>
      </trkpt>
      <trkpt lat="46.218424877151847" lon="8.285166705027223">
        <ele>1617.0699999999999</ele>
        <time>2015-03-01T09:36:23Z</time>
      </trkpt>
      <trkpt lat="46.218393193557858" lon="8.285053968429565">
        <ele>1619</ele>
        <time>2015-03-01T09:36:36Z</time>
      </trkpt>
      <trkpt lat="46.218386739492416" lon="8.285012142732739">
        <ele>1619.48</ele>
        <time>2015-03-01T09:36:41Z</time>
      </trkpt>
      <trkpt lat="46.218382632359862" lon="8.284986913204193">
        <ele>1619.48</ele>
        <time>2015-03-01T09:36:43Z</time>
      </trkpt>
      <trkpt lat="46.218359414488077" lon="8.284924803301692">
        <ele>1619</ele>
        <time>2015-03-01T09:36:56Z</time>
      </trkpt>
      <trkpt lat="46.218358743935823" lon="8.284916756674647">
        <ele>1619</ele>
        <time>2015-03-01T09:36:58Z</time>
      </trkpt>
      <trkpt lat="46.218350864946842" lon="8.284876020625234">
        <ele>1619</ele>
        <time>2015-03-01T09:37:01Z</time>
      </trkpt>
      <trkpt lat="46.218336783349514" lon="8.284734953194857">
        <ele>1620.9200000000001</ele>
        <time>2015-03-01T09:37:12Z</time>
      </trkpt>
      <trkpt lat="46.218335190787911" lon="8.284723469987512">
        <ele>1619.48</ele>
        <time>2015-03-01T09:37:13Z</time>
      </trkpt>
      <trkpt lat="46.218333765864372" lon="8.284716680645943">
        <ele>1619.96</ele>
        <time>2015-03-01T09:37:14Z</time>
      </trkpt>
      <trkpt lat="46.218323037028313" lon="8.284668903797865">
        <ele>1619.96</ele>
        <time>2015-03-01T09:37:19Z</time>
      </trkpt>
      <trkpt lat="46.218328317627311" lon="8.284615762531757">
        <ele>1619.96</ele>
        <time>2015-03-01T09:37:37Z</time>
      </trkpt>
      <trkpt lat="46.218311218544841" lon="8.284501181915402">
        <ele>1621.4000000000001</ele>
        <time>2015-03-01T09:37:51Z</time>
      </trkpt>
      <trkpt lat="46.218317504972219" lon="8.284503361210227">
        <ele>1620.4400000000001</ele>
        <time>2015-03-01T09:38:02Z</time>
      </trkpt>
      <trkpt lat="46.218335023149848" lon="8.284517610445619">
        <ele>1620.4400000000001</ele>
        <time>2015-03-01T09:38:22Z</time>
      </trkpt>
      <trkpt lat="46.218353547155857" lon="8.284544264897704">
        <ele>1620.4400000000001</ele>
        <time>2015-03-01T09:38:38Z</time>
      </trkpt>
      <trkpt lat="46.218314990401268" lon="8.284526076167822">
        <ele>1621.4000000000001</ele>
        <time>2015-03-01T09:38:48Z</time>
      </trkpt>
      <trkpt lat="46.218294538557529" lon="8.28440822660923">
        <ele>1621.4000000000001</ele>
        <time>2015-03-01T09:39:12Z</time>
      </trkpt>
      <trkpt lat="46.21831314638257" lon="8.284487267956138">
        <ele>1621.4000000000001</ele>
        <time>2015-03-01T09:39:30Z</time>
      </trkpt>
      <trkpt lat="46.21830778196454" lon="8.284498918801546">
        <ele>1621.4000000000001</ele>
        <time>2015-03-01T09:39:58Z</time>
      </trkpt>
      <trkpt lat="46.21830484829843" lon="8.284500762820244">
        <ele>1620.9200000000001</ele>
        <time>2015-03-01T09:40:14Z</time>
      </trkpt>
      <trkpt lat="46.218308201059699" lon="8.284515431150794">
        <ele>1620.9200000000001</ele>
        <time>2015-03-01T09:40:33Z</time>
      </trkpt>
      <trkpt lat="46.218316163867712" lon="8.284487100318074">
        <ele>1620.9200000000001</ele>
        <time>2015-03-01T09:40:55Z</time>
      </trkpt>
      <trkpt lat="46.218326557427645" lon="8.284470001235604">
        <ele>1621.4000000000001</ele>
        <time>2015-03-01T09:41:16Z</time>
      </trkpt>
      <trkpt lat="46.218318343162537" lon="8.284501852467656">
        <ele>1620.9200000000001</ele>
        <time>2015-03-01T09:41:31Z</time>
      </trkpt>
      <trkpt lat="46.218324964866042" lon="8.284514006227255">
        <ele>1620.9200000000001</ele>
        <time>2015-03-01T09:41:44Z</time>
      </trkpt>
      <trkpt lat="46.218320271000266" lon="8.284506546333432">
        <ele>1621.8800000000001</ele>
        <time>2015-03-01T09:41:51Z</time>
      </trkpt>
      <trkpt lat="46.218320354819298" lon="8.28449321910739">
        <ele>1620.9200000000001</ele>
        <time>2015-03-01T09:42:12Z</time>
      </trkpt>
      <trkpt lat="46.218310380354524" lon="8.284484250470996">
        <ele>1621.4000000000001</ele>
        <time>2015-03-01T09:42:27Z</time>
      </trkpt>
      <trkpt lat="46.218319181352854" lon="8.284446364268661">
        <ele>1621.4000000000001</ele>
        <time>2015-03-01T09:42:46Z</time>
      </trkpt>
      <trkpt lat="46.218311889097095" lon="8.284443430602551">
        <ele>1621.4000000000001</ele>
        <time>2015-03-01T09:43:10Z</time>
      </trkpt>
      <trkpt lat="46.218323791399598" lon="8.284449633210897">
        <ele>1621.4000000000001</ele>
        <time>2015-03-01T09:43:22Z</time>
      </trkpt>
      <trkpt lat="46.218348685652018" lon="8.284437311813235">
        <ele>1621.4000000000001</ele>
        <time>2015-03-01T09:43:40Z</time>
      </trkpt>
      <trkpt lat="46.218338627368212" lon="8.284459942951798">
        <ele>1621.4000000000001</ele>
        <time>2015-03-01T09:43:54Z</time>
      </trkpt>
      <trkpt lat="46.218321528285742" lon="8.284446280449629">
        <ele>1621.4000000000001</ele>
        <time>2015-03-01T09:44:14Z</time>
      </trkpt>
      <trkpt lat="46.218334855511785" lon="8.284444687888026">
        <ele>1621.4000000000001</ele>
        <time>2015-03-01T09:44:32Z</time>
      </trkpt>
      <trkpt lat="46.218334017321467" lon="8.284415686503053">
        <ele>1621.4000000000001</ele>
        <time>2015-03-01T09:44:55Z</time>
      </trkpt>
      <trkpt lat="46.218312308192253" lon="8.284386098384857">
        <ele>1621.8800000000001</ele>
        <time>2015-03-01T09:45:12Z</time>
      </trkpt>
      <trkpt lat="46.218289844691753" lon="8.284399257972837">
        <ele>1621.4000000000001</ele>
        <time>2015-03-01T09:45:18Z</time>
      </trkpt>
      <trkpt lat="46.218278612941504" lon="8.284424236044288">
        <ele>1621.4000000000001</ele>
        <time>2015-03-01T09:45:29Z</time>
      </trkpt>
      <trkpt lat="46.218283642083406" lon="8.284418368712068">
        <ele>1620.9200000000001</ele>
        <time>2015-03-01T09:45:46Z</time>
      </trkpt>
      <trkpt lat="46.218253131955862" lon="8.284423900768161">
        <ele>1622.3599999999999</ele>
        <time>2015-03-01T09:46:05Z</time>
      </trkpt>
      <trkpt lat="46.21820954605937" lon="8.284380231052637">
        <ele>1622.8399999999999</ele>
        <time>2015-03-01T09:46:17Z</time>
      </trkpt>
      <trkpt lat="46.218187585473061" lon="8.284314852207899">
        <ele>1623.3199999999999</ele>
        <time>2015-03-01T09:46:24Z</time>
      </trkpt>
      <trkpt lat="46.218175431713462" lon="8.28427872620523">
        <ele>1623.3199999999999</ele>
        <time>2015-03-01T09:46:27Z</time>
      </trkpt>
      <trkpt lat="46.21810938231647" lon="8.284181831404567">
        <ele>1623.8</ele>
        <time>2015-03-01T09:46:39Z</time>
      </trkpt>
      <trkpt lat="46.218029335141182" lon="8.284137072041631">
        <ele>1625.25</ele>
        <time>2015-03-01T09:46:52Z</time>
      </trkpt>
      <trkpt lat="46.217927746474743" lon="8.284068340435624">
        <ele>1626.21</ele>
        <time>2015-03-01T09:47:05Z</time>
      </trkpt>
      <trkpt lat="46.217851554974914" lon="8.284068088978529">
        <ele>1627.1700000000001</ele>
        <time>2015-03-01T09:47:20Z</time>
      </trkpt>
      <trkpt lat="46.217820458114147" lon="8.284055599942803">
        <ele>1627.1700000000001</ele>
        <time>2015-03-01T09:47:33Z</time>
      </trkpt>
      <trkpt lat="46.217713840305805" lon="8.284014025703073">
        <ele>1627.6500000000001</ele>
        <time>2015-03-01T09:47:46Z</time>
      </trkpt>
      <trkpt lat="46.217691041529179" lon="8.284009834751487">
        <ele>1628.1300000000001</ele>
        <time>2015-03-01T09:47:49Z</time>
      </trkpt>
      <trkpt lat="46.217599930241704" lon="8.283993573859334">
        <ele>1629.0899999999999</ele>
        <time>2015-03-01T09:48:02Z</time>
      </trkpt>
      <trkpt lat="46.217517284676433" lon="8.283952921628952">
        <ele>1631.49</ele>
        <time>2015-03-01T09:48:17Z</time>
      </trkpt>
      <trkpt lat="46.217475794255733" lon="8.283927273005247">
        <ele>1632.9400000000001</ele>
        <time>2015-03-01T09:48:30Z</time>
      </trkpt>
      <trkpt lat="46.217447966337204" lon="8.283850494772196">
        <ele>1633.9000000000001</ele>
        <time>2015-03-01T09:48:41Z</time>
      </trkpt>
      <trkpt lat="46.217397088184953" lon="8.28384387306869">
        <ele>1635.8199999999999</ele>
        <time>2015-03-01T09:48:56Z</time>
      </trkpt>
      <trkpt lat="46.217349898070097" lon="8.283802969381213">
        <ele>1637.26</ele>
        <time>2015-03-01T09:49:07Z</time>
      </trkpt>
      <trkpt lat="46.217288123443723" lon="8.283746978268027">
        <ele>1639.6700000000001</ele>
        <time>2015-03-01T09:49:19Z</time>
      </trkpt>
      <trkpt lat="46.217215368524194" lon="8.283666847273707">
        <ele>1638.7</ele>
        <time>2015-03-01T09:49:33Z</time>
      </trkpt>
      <trkpt lat="46.217117132619023" lon="8.283575568348169">
        <ele>1640.6300000000001</ele>
        <time>2015-03-01T09:49:52Z</time>
      </trkpt>
      <trkpt lat="46.217045886442065" lon="8.283545980229974">
        <ele>1642.0699999999999</ele>
        <time>2015-03-01T09:50:06Z</time>
      </trkpt>
      <trkpt lat="46.216975729912519" lon="8.283493844792247">
        <ele>1643.51</ele>
        <time>2015-03-01T09:50:19Z</time>
      </trkpt>
      <trkpt lat="46.216903980821371" lon="8.283490911126137">
        <ele>1643.99</ele>
        <time>2015-03-01T09:50:33Z</time>
      </trkpt>
      <trkpt lat="46.216923259198666" lon="8.283477080985904">
        <ele>1643.51</ele>
        <time>2015-03-01T09:50:47Z</time>
      </trkpt>
      <trkpt lat="46.21692786924541" lon="8.283460652455688">
        <ele>1643.51</ele>
        <time>2015-03-01T09:51:01Z</time>
      </trkpt>
      <trkpt lat="46.216945303604007" lon="8.283475739881396">
        <ele>1644.47</ele>
        <time>2015-03-01T09:51:17Z</time>
      </trkpt>
      <trkpt lat="46.216919738799334" lon="8.28350574709475">
        <ele>1644.47</ele>
        <time>2015-03-01T09:51:38Z</time>
      </trkpt>
      <trkpt lat="46.216903729364276" lon="8.283512536436319">
        <ele>1644.95</ele>
        <time>2015-03-01T09:51:40Z</time>
      </trkpt>
      <trkpt lat="46.216782610863447" lon="8.283516643568873">
        <ele>1645.4300000000001</ele>
        <time>2015-03-01T09:51:54Z</time>
      </trkpt>
      <trkpt lat="46.216683452948928" lon="8.283633403480053">
        <ele>1645.9100000000001</ele>
        <time>2015-03-01T09:52:07Z</time>
      </trkpt>
      <trkpt lat="46.21665914542973" lon="8.283632230013609">
        <ele>1645.9100000000001</ele>
        <time>2015-03-01T09:52:12Z</time>
      </trkpt>
      <trkpt lat="46.216592844575644" lon="8.283682940527797">
        <ele>1645.4300000000001</ele>
        <time>2015-03-01T09:52:20Z</time>
      </trkpt>
      <trkpt lat="46.216506510972977" lon="8.283772459253669">
        <ele>1645.9100000000001</ele>
        <time>2015-03-01T09:52:35Z</time>
      </trkpt>
      <trkpt lat="46.216463763266802" lon="8.283810596913099">
        <ele>1646.8800000000001</ele>
        <time>2015-03-01T09:52:48Z</time>
      </trkpt>
      <trkpt lat="46.216350859031081" lon="8.283796766772866">
        <ele>1648.8</ele>
        <time>2015-03-01T09:53:02Z</time>
      </trkpt>
      <trkpt lat="46.216316157951951" lon="8.283823672682047">
        <ele>1649.28</ele>
        <time>2015-03-01T09:53:07Z</time>
      </trkpt>
      <trkpt lat="46.216201325878501" lon="8.283836748450995">
        <ele>1649.76</ele>
        <time>2015-03-01T09:53:22Z</time>
      </trkpt>
      <trkpt lat="46.216107029467821" lon="8.283800454810262">
        <ele>1650.72</ele>
        <time>2015-03-01T09:53:35Z</time>
      </trkpt>
      <trkpt lat="46.216086745262146" lon="8.283789390698075">
        <ele>1651.2</ele>
        <time>2015-03-01T09:53:38Z</time>
      </trkpt>
      <trkpt lat="46.215994544327259" lon="8.283779080957174">
        <ele>1653.1199999999999</ele>
        <time>2015-03-01T09:53:52Z</time>
      </trkpt>
      <trkpt lat="46.215977361425757" lon="8.283797604963183">
        <ele>1653.1199999999999</ele>
        <time>2015-03-01T09:53:55Z</time>
      </trkpt>
      <trkpt lat="46.215863954275846" lon="8.283781260251999">
        <ele>1654.0899999999999</ele>
        <time>2015-03-01T09:54:09Z</time>
      </trkpt>
      <trkpt lat="46.215782230719924" lon="8.283804310485721">
        <ele>1656.01</ele>
        <time>2015-03-01T09:54:23Z</time>
      </trkpt>
      <trkpt lat="46.215708302333951" lon="8.283851081505418">
        <ele>1656.97</ele>
        <time>2015-03-01T09:54:35Z</time>
      </trkpt>
      <trkpt lat="46.215697238221765" lon="8.283871533349156">
        <ele>1656.97</ele>
        <time>2015-03-01T09:54:50Z</time>
      </trkpt>
      <trkpt lat="46.215645438060164" lon="8.283916544169188">
        <ele>1656.97</ele>
        <time>2015-03-01T09:54:58Z</time>
      </trkpt>
      <trkpt lat="46.215627836063504" lon="8.283932637423277">
        <ele>1656.97</ele>
        <time>2015-03-01T09:55:00Z</time>
      </trkpt>
      <trkpt lat="46.215515350922942" lon="8.284016121178865">
        <ele>1657.45</ele>
        <time>2015-03-01T09:55:15Z</time>
      </trkpt>
      <trkpt lat="46.215440751984715" lon="8.284107986837626">
        <ele>1656.97</ele>
        <time>2015-03-01T09:55:27Z</time>
      </trkpt>
      <trkpt lat="46.215324243530631" lon="8.284209743142128">
        <ele>1658.4100000000001</ele>
        <time>2015-03-01T09:55:41Z</time>
      </trkpt>
      <trkpt lat="46.215243274345994" lon="8.284322815015912">
        <ele>1656.97</ele>
        <time>2015-03-01T09:55:54Z</time>
      </trkpt>
      <trkpt lat="46.215202454477549" lon="8.284393139183521">
        <ele>1656.49</ele>
        <time>2015-03-01T09:56:08Z</time>
      </trkpt>
      <trkpt lat="46.215176889672875" lon="8.284432115033269">
        <ele>1656.49</ele>
        <time>2015-03-01T09:56:12Z</time>
      </trkpt>
      <trkpt lat="46.215089466422796" lon="8.284595897421241">
        <ele>1656.01</ele>
        <time>2015-03-01T09:56:28Z</time>
      </trkpt>
      <trkpt lat="46.215002378448844" lon="8.28476001508534">
        <ele>1656.01</ele>
        <time>2015-03-01T09:56:42Z</time>
      </trkpt>
      <trkpt lat="46.214899700134993" lon="8.284848025068641">
        <ele>1656.97</ele>
        <time>2015-03-01T09:56:55Z</time>
      </trkpt>
      <trkpt lat="46.214802553877234" lon="8.284911140799522">
        <ele>1658.8900000000001</ele>
        <time>2015-03-01T09:57:09Z</time>
      </trkpt>
      <trkpt lat="46.214730888605118" lon="8.284972161054611">
        <ele>1660.8099999999999</ele>
        <time>2015-03-01T09:57:20Z</time>
      </trkpt>
      <trkpt lat="46.214631395414472" lon="8.285055728629232">
        <ele>1662.26</ele>
        <time>2015-03-01T09:57:34Z</time>
      </trkpt>
      <trkpt lat="46.214556461200118" lon="8.285102667286992">
        <ele>1663.22</ele>
        <time>2015-03-01T09:57:47Z</time>
      </trkpt>
      <trkpt lat="46.214491920545697" lon="8.285230994224548">
        <ele>1663.22</ele>
        <time>2015-03-01T09:58:00Z</time>
      </trkpt>
      <trkpt lat="46.214431067928672" lon="8.285352950915694">
        <ele>1663.22</ele>
        <time>2015-03-01T09:58:14Z</time>
      </trkpt>
      <trkpt lat="46.214329563081264" lon="8.285402655601502">
        <ele>1663.7</ele>
        <time>2015-03-01T09:58:28Z</time>
      </trkpt>
      <trkpt lat="46.21426778845489" lon="8.285498293116689">
        <ele>1663.7</ele>
        <time>2015-03-01T09:58:41Z</time>
      </trkpt>
      <trkpt lat="46.21427902020514" lon="8.285563671961427">
        <ele>1664.6600000000001</ele>
        <time>2015-03-01T09:58:56Z</time>
      </trkpt>
      <trkpt lat="46.214278433471918" lon="8.28572410158813">
        <ele>1665.6199999999999</ele>
        <time>2015-03-01T09:59:09Z</time>
      </trkpt>
      <trkpt lat="46.214249096810818" lon="8.285827953368425">
        <ele>1666.5799999999999</ele>
        <time>2015-03-01T09:59:20Z</time>
      </trkpt>
      <trkpt lat="46.214223112910986" lon="8.285885034129024">
        <ele>1666.5799999999999</ele>
        <time>2015-03-01T09:59:33Z</time>
      </trkpt>
      <trkpt lat="46.214195284992456" lon="8.285998189821839">
        <ele>1667.0599999999999</ele>
        <time>2015-03-01T09:59:46Z</time>
      </trkpt>
      <trkpt lat="46.214170306921005" lon="8.286052756011486">
        <ele>1667.0599999999999</ele>
        <time>2015-03-01T09:59:52Z</time>
      </trkpt>
      <trkpt lat="46.214136611670256" lon="8.286189967766404">
        <ele>1667.54</ele>
        <time>2015-03-01T10:00:06Z</time>
      </trkpt>
      <trkpt lat="46.214113309979439" lon="8.286319300532341">
        <ele>1668.51</ele>
        <time>2015-03-01T10:00:21Z</time>
      </trkpt>
      <trkpt lat="46.214079530909657" lon="8.286455003544688">
        <ele>1668.51</ele>
        <time>2015-03-01T10:00:36Z</time>
      </trkpt>
      <trkpt lat="46.213985737413168" lon="8.286563297733665">
        <ele>1668.02</ele>
        <time>2015-03-01T10:00:50Z</time>
      </trkpt>
      <trkpt lat="46.213863864541054" lon="8.286662120372057">
        <ele>1665.6199999999999</ele>
        <time>2015-03-01T10:01:06Z</time>
      </trkpt>
      <trkpt lat="46.213802928104997" lon="8.286772258579731">
        <ele>1665.6199999999999</ele>
        <time>2015-03-01T10:01:19Z</time>
      </trkpt>
      <trkpt lat="46.213739309459925" lon="8.286904944106937">
        <ele>1665.6199999999999</ele>
        <time>2015-03-01T10:01:33Z</time>
      </trkpt>
      <trkpt lat="46.213683234527707" lon="8.287028660997748">
        <ele>1666.5799999999999</ele>
        <time>2015-03-01T10:01:49Z</time>
      </trkpt>
      <trkpt lat="46.213644510135055" lon="8.287155060097575">
        <ele>1667.0599999999999</ele>
        <time>2015-03-01T10:02:02Z</time>
      </trkpt>
      <trkpt lat="46.213586088269949" lon="8.287239549681544">
        <ele>1668.02</ele>
        <time>2015-03-01T10:02:14Z</time>
      </trkpt>
      <trkpt lat="46.213548453524709" lon="8.287361841648817">
        <ele>1668.51</ele>
        <time>2015-03-01T10:02:28Z</time>
      </trkpt>
      <trkpt lat="46.213481901213527" lon="8.287465441972017">
        <ele>1668.51</ele>
        <time>2015-03-01T10:02:43Z</time>
      </trkpt>
      <trkpt lat="46.21347326785326" lon="8.287591673433781">
        <ele>1668.51</ele>
        <time>2015-03-01T10:02:56Z</time>
      </trkpt>
      <trkpt lat="46.213362291455269" lon="8.287683874368668">
        <ele>1669.47</ele>
        <time>2015-03-01T10:03:10Z</time>
      </trkpt>
      <trkpt lat="46.213287860155106" lon="8.28777976334095">
        <ele>1670.4300000000001</ele>
        <time>2015-03-01T10:03:24Z</time>
      </trkpt>
      <trkpt lat="46.213202532380819" lon="8.287824857980013">
        <ele>1671.8699999999999</ele>
        <time>2015-03-01T10:03:39Z</time>
      </trkpt>
      <trkpt lat="46.213141595944762" lon="8.287910604849458">
        <ele>1672.8299999999999</ele>
        <time>2015-03-01T10:03:53Z</time>
      </trkpt>
      <trkpt lat="46.21306523680687" lon="8.287952682003379">
        <ele>1674.27</ele>
        <time>2015-03-01T10:04:09Z</time>
      </trkpt>
      <trkpt lat="46.213042438030243" lon="8.288044044747949">
        <ele>1675.23</ele>
        <time>2015-03-01T10:04:23Z</time>
      </trkpt>
      <trkpt lat="46.212987117469311" lon="8.288133144378662">
        <ele>1676.6800000000001</ele>
        <time>2015-03-01T10:04:39Z</time>
      </trkpt>
      <trkpt lat="46.212946884334087" lon="8.28824445605278">
        <ele>1678.1199999999999</ele>
        <time>2015-03-01T10:04:54Z</time>
      </trkpt>
      <trkpt lat="46.212870106101036" lon="8.288306146860123">
        <ele>1678.5999999999999</ele>
        <time>2015-03-01T10:05:06Z</time>
      </trkpt>
      <trkpt lat="46.212779497727752" lon="8.288298603147268">
        <ele>1680.04</ele>
        <time>2015-03-01T10:05:21Z</time>
      </trkpt>
      <trkpt lat="46.21274571865797" lon="8.288243282586336">
        <ele>1681</ele>
        <time>2015-03-01T10:05:30Z</time>
      </trkpt>
      <trkpt lat="46.212694840505719" lon="8.288115710020065">
        <ele>1682.4400000000001</ele>
        <time>2015-03-01T10:05:45Z</time>
      </trkpt>
      <trkpt lat="46.21262745000422" lon="8.28802308999002">
        <ele>1682.9300000000001</ele>
        <time>2015-03-01T10:05:59Z</time>
      </trkpt>
      <trkpt lat="46.212542792782187" lon="8.288104729726911">
        <ele>1683.4100000000001</ele>
        <time>2015-03-01T10:06:12Z</time>
      </trkpt>
      <trkpt lat="46.212457465007901" lon="8.288211431354284">
        <ele>1682.4400000000001</ele>
        <time>2015-03-01T10:06:26Z</time>
      </trkpt>
      <trkpt lat="46.212415471673012" lon="8.288342272862792">
        <ele>1682.9300000000001</ele>
        <time>2015-03-01T10:06:41Z</time>
      </trkpt>
      <trkpt lat="46.212407005950809" lon="8.28850002028048">
        <ele>1683.8900000000001</ele>
        <time>2015-03-01T10:06:56Z</time>
      </trkpt>
      <trkpt lat="46.212321929633617" lon="8.288580821827054">
        <ele>1684.8499999999999</ele>
        <time>2015-03-01T10:07:11Z</time>
      </trkpt>
      <trkpt lat="46.212203577160835" lon="8.288603285327554">
        <ele>1683.8900000000001</ele>
        <time>2015-03-01T10:07:26Z</time>
      </trkpt>
      <trkpt lat="46.212104251608253" lon="8.288617953658104">
        <ele>1684.3699999999999</ele>
        <time>2015-03-01T10:07:40Z</time>
      </trkpt>
      <trkpt lat="46.21199419721961" lon="8.288634633645415">
        <ele>1685.8099999999999</ele>
        <time>2015-03-01T10:07:56Z</time>
      </trkpt>
      <trkpt lat="46.211945079267025" lon="8.288696995005012">
        <ele>1686.77</ele>
        <time>2015-03-01T10:08:10Z</time>
      </trkpt>
      <trkpt lat="46.211888082325459" lon="8.288787184283137">
        <ele>1687.73</ele>
        <time>2015-03-01T10:08:23Z</time>
      </trkpt>
      <trkpt lat="46.21180803515017" lon="8.288912493735552">
        <ele>1687.73</ele>
        <time>2015-03-01T10:08:39Z</time>
      </trkpt>
      <trkpt lat="46.211736369878054" lon="8.288976615294814">
        <ele>1689.1700000000001</ele>
        <time>2015-03-01T10:08:52Z</time>
      </trkpt>
      <trkpt lat="46.211687587201595" lon="8.289034366607666">
        <ele>1690.6199999999999</ele>
        <time>2015-03-01T10:09:06Z</time>
      </trkpt>
      <trkpt lat="46.211594548076391" lon="8.28901307657361">
        <ele>1691.5799999999999</ele>
        <time>2015-03-01T10:09:20Z</time>
      </trkpt>
      <trkpt lat="46.211535204201937" lon="8.288916097953916">
        <ele>1693.02</ele>
        <time>2015-03-01T10:09:33Z</time>
      </trkpt>
      <trkpt lat="46.211507879197598" lon="8.288931772112846">
        <ele>1694.46</ele>
        <time>2015-03-01T10:09:48Z</time>
      </trkpt>
      <trkpt lat="46.211467897519469" lon="8.288977704942226">
        <ele>1694.9400000000001</ele>
        <time>2015-03-01T10:10:06Z</time>
      </trkpt>
      <trkpt lat="46.211391370743513" lon="8.289008215069771">
        <ele>1696.8599999999999</ele>
        <time>2015-03-01T10:10:20Z</time>
      </trkpt>
      <trkpt lat="46.211311910301447" lon="8.28907267190516">
        <ele>1698.79</ele>
        <time>2015-03-01T10:10:32Z</time>
      </trkpt>
      <trkpt lat="46.211242340505123" lon="8.289039395749569">
        <ele>1700.23</ele>
        <time>2015-03-01T10:10:45Z</time>
      </trkpt>
      <trkpt lat="46.211135471239686" lon="8.289078706875444">
        <ele>1700.71</ele>
        <time>2015-03-01T10:11:00Z</time>
      </trkpt>
      <trkpt lat="46.211104793474078" lon="8.289116257801652">
        <ele>1701.6700000000001</ele>
        <time>2015-03-01T10:11:10Z</time>
      </trkpt>
      <trkpt lat="46.211044192314148" lon="8.289195047691464">
        <ele>1702.6300000000001</ele>
        <time>2015-03-01T10:11:22Z</time>
      </trkpt>
      <trkpt lat="46.210964228957891" lon="8.289186833426356">
        <ele>1704.0699999999999</ele>
        <time>2015-03-01T10:11:38Z</time>
      </trkpt>
      <trkpt lat="46.210894742980599" lon="8.289202004671097">
        <ele>1705.52</ele>
        <time>2015-03-01T10:11:50Z</time>
      </trkpt>
      <trkpt lat="46.210876889526844" lon="8.289220780134201">
        <ele>1705.52</ele>
        <time>2015-03-01T10:11:53Z</time>
      </trkpt>
      <trkpt lat="46.210830789059401" lon="8.289250703528523">
        <ele>1706.48</ele>
        <time>2015-03-01T10:12:00Z</time>
      </trkpt>
      <trkpt lat="46.210772953927517" lon="8.289319183677435">
        <ele>1706.96</ele>
        <time>2015-03-01T10:12:12Z</time>
      </trkpt>
      <trkpt lat="46.210690140724182" lon="8.289352292194963">
        <ele>1707.9200000000001</ele>
        <time>2015-03-01T10:12:27Z</time>
      </trkpt>
      <trkpt lat="46.210586037486792" lon="8.289370816200972">
        <ele>1709.8399999999999</ele>
        <time>2015-03-01T10:12:43Z</time>
      </trkpt>
      <trkpt lat="46.210519820451736" lon="8.289398644119501">
        <ele>1709.8399999999999</ele>
        <time>2015-03-01T10:12:57Z</time>
      </trkpt>
      <trkpt lat="46.210453687235713" lon="8.289472823962569">
        <ele>1710.8</ele>
        <time>2015-03-01T10:13:09Z</time>
      </trkpt>
      <trkpt lat="46.210395516827703" lon="8.289535855874419">
        <ele>1711.28</ele>
        <time>2015-03-01T10:13:21Z</time>
      </trkpt>
      <trkpt lat="46.210326114669442" lon="8.289641384035349">
        <ele>1712.73</ele>
        <time>2015-03-01T10:13:35Z</time>
      </trkpt>
      <trkpt lat="46.210247240960598" lon="8.289700476452708">
        <ele>1713.21</ele>
        <time>2015-03-01T10:13:48Z</time>
      </trkpt>
      <trkpt lat="46.210151938721538" lon="8.289722101762891">
        <ele>1713.6900000000001</ele>
        <time>2015-03-01T10:14:02Z</time>
      </trkpt>
      <trkpt lat="46.210111873224378" lon="8.289669631049037">
        <ele>1714.6500000000001</ele>
        <time>2015-03-01T10:14:14Z</time>
      </trkpt>
      <trkpt lat="46.210055463016033" lon="8.289733668789268">
        <ele>1716.5699999999999</ele>
        <time>2015-03-01T10:14:29Z</time>
      </trkpt>
      <trkpt lat="46.210017157718539" lon="8.289787815883756">
        <ele>1717.05</ele>
        <time>2015-03-01T10:14:42Z</time>
      </trkpt>
      <trkpt lat="46.209951778873801" lon="8.289809357374907">
        <ele>1718.49</ele>
        <time>2015-03-01T10:14:55Z</time>
      </trkpt>
      <trkpt lat="46.209886986762285" lon="8.289795611053705">
        <ele>1720.9000000000001</ele>
        <time>2015-03-01T10:15:09Z</time>
      </trkpt>
      <trkpt lat="46.20980316773057" lon="8.289835844188929">
        <ele>1719.9400000000001</ele>
        <time>2015-03-01T10:15:22Z</time>
      </trkpt>
      <trkpt lat="46.209717756137252" lon="8.289794772863388">
        <ele>1721.3800000000001</ele>
        <time>2015-03-01T10:15:36Z</time>
      </trkpt>
      <trkpt lat="46.209650617092848" lon="8.289876244962215">
        <ele>1723.3</ele>
        <time>2015-03-01T10:15:50Z</time>
      </trkpt>
      <trkpt lat="46.209606444463134" lon="8.289945730939508">
        <ele>1724.74</ele>
        <time>2015-03-01T10:16:02Z</time>
      </trkpt>
      <trkpt lat="46.209529414772987" lon="8.29002108424902">
        <ele>1724.74</ele>
        <time>2015-03-01T10:16:15Z</time>
      </trkpt>
      <trkpt lat="46.209484739229083" lon="8.29005234874785">
        <ele>1724.74</ele>
        <time>2015-03-01T10:16:22Z</time>
      </trkpt>
      <trkpt lat="46.20939957909286" lon="8.290103059262037">
        <ele>1724.26</ele>
        <time>2015-03-01T10:16:34Z</time>
      </trkpt>
      <trkpt lat="46.209378121420741" lon="8.290127534419298">
        <ele>1724.74</ele>
        <time>2015-03-01T10:16:38Z</time>
      </trkpt>
      <trkpt lat="46.209294134750962" lon="8.290222166106105">
        <ele>1723.3</ele>
        <time>2015-03-01T10:16:51Z</time>
      </trkpt>
      <trkpt lat="46.209230348467827" lon="8.290289388969541">
        <ele>1721.8599999999999</ele>
        <time>2015-03-01T10:17:05Z</time>
      </trkpt>
      <trkpt lat="46.209186092019081" lon="8.290326269343495">
        <ele>1720.4200000000001</ele>
        <time>2015-03-01T10:17:19Z</time>
      </trkpt>
      <trkpt lat="46.209126496687531" lon="8.290427858009934">
        <ele>1717.05</ele>
        <time>2015-03-01T10:17:31Z</time>
      </trkpt>
      <trkpt lat="46.209068661555648" lon="8.290558531880379">
        <ele>1714.1700000000001</ele>
        <time>2015-03-01T10:17:46Z</time>
      </trkpt>
      <trkpt lat="46.209043096750975" lon="8.290723906829953">
        <ele>1713.21</ele>
        <time>2015-03-01T10:18:00Z</time>
      </trkpt>
      <trkpt lat="46.208937149494886" lon="8.290798757225275">
        <ele>1712.73</ele>
        <time>2015-03-01T10:18:15Z</time>
      </trkpt>
      <trkpt lat="46.208849474787712" lon="8.29082733951509">
        <ele>1712.73</ele>
        <time>2015-03-01T10:18:28Z</time>
      </trkpt>
      <trkpt lat="46.208767499774694" lon="8.290890958160162">
        <ele>1711.28</ele>
        <time>2015-03-01T10:18:43Z</time>
      </trkpt>
      <trkpt lat="46.208688374608755" lon="8.290940662845969">
        <ele>1710.8</ele>
        <time>2015-03-01T10:18:59Z</time>
      </trkpt>
      <trkpt lat="46.208621906116605" lon="8.290979471057653">
        <ele>1711.76</ele>
        <time>2015-03-01T10:19:13Z</time>
      </trkpt>
      <trkpt lat="46.208575302734971" lon="8.291010400280356">
        <ele>1713.6900000000001</ele>
        <time>2015-03-01T10:19:24Z</time>
      </trkpt>
      <trkpt lat="46.208500619977713" lon="8.291057841852307">
        <ele>1716.0899999999999</ele>
        <time>2015-03-01T10:19:37Z</time>
      </trkpt>
      <trkpt lat="46.208491567522287" lon="8.291047364473343">
        <ele>1716.0899999999999</ele>
        <time>2015-03-01T10:19:53Z</time>
      </trkpt>
      <trkpt lat="46.208427110686898" lon="8.291090279817581">
        <ele>1718.97</ele>
        <time>2015-03-01T10:20:06Z</time>
      </trkpt>
      <trkpt lat="46.208357037976384" lon="8.291065972298384">
        <ele>1720.9000000000001</ele>
        <time>2015-03-01T10:20:19Z</time>
      </trkpt>
      <trkpt lat="46.208310937508941" lon="8.291040156036615">
        <ele>1723.3</ele>
        <time>2015-03-01T10:20:32Z</time>
      </trkpt>
      <trkpt lat="46.20826936326921" lon="8.291103355586529">
        <ele>1725.7</ele>
        <time>2015-03-01T10:20:46Z</time>
      </trkpt>
      <trkpt lat="46.208194764330983" lon="8.291129507124424">
        <ele>1728.1099999999999</ele>
        <time>2015-03-01T10:21:00Z</time>
      </trkpt>
      <trkpt lat="46.20811739936471" lon="8.291164124384522">
        <ele>1730.03</ele>
        <time>2015-03-01T10:21:15Z</time>
      </trkpt>
      <trkpt lat="46.208088481798768" lon="8.29116496257484">
        <ele>1730.99</ele>
        <time>2015-03-01T10:21:31Z</time>
      </trkpt>
      <trkpt lat="46.208058139309287" lon="8.291146187111735">
        <ele>1732.9100000000001</ele>
        <time>2015-03-01T10:21:43Z</time>
      </trkpt>
      <trkpt lat="46.208056379109621" lon="8.291185330599546">
        <ele>1733.8800000000001</ele>
        <time>2015-03-01T10:22:00Z</time>
      </trkpt>
      <trkpt lat="46.208025449886918" lon="8.291183989495039">
        <ele>1735.3199999999999</ele>
        <time>2015-03-01T10:22:16Z</time>
      </trkpt>
      <trkpt lat="46.208000974729657" lon="8.29118357039988">
        <ele>1735.8</ele>
        <time>2015-03-01T10:22:27Z</time>
      </trkpt>
      <trkpt lat="46.207968117669225" lon="8.291197400540113">
        <ele>1736.76</ele>
        <time>2015-03-01T10:22:40Z</time>
      </trkpt>
      <trkpt lat="46.207912629470229" lon="8.291254313662648">
        <ele>1739.1600000000001</ele>
        <time>2015-03-01T10:22:53Z</time>
      </trkpt>
      <trkpt lat="46.207851273939013" lon="8.291303599253297">
        <ele>1741.0799999999999</ele>
        <time>2015-03-01T10:23:04Z</time>
      </trkpt>
      <trkpt lat="46.207756390795112" lon="8.291327739134431">
        <ele>1743.49</ele>
        <time>2015-03-01T10:23:17Z</time>
      </trkpt>
      <trkpt lat="46.207690592855215" lon="8.291396219283342">
        <ele>1744.45</ele>
        <time>2015-03-01T10:23:29Z</time>
      </trkpt>
      <trkpt lat="46.207627141848207" lon="8.29144986346364">
        <ele>1744.9300000000001</ele>
        <time>2015-03-01T10:23:38Z</time>
      </trkpt>
      <trkpt lat="46.207608114928007" lon="8.291478781029582">
        <ele>1744.9300000000001</ele>
        <time>2015-03-01T10:23:41Z</time>
      </trkpt>
      <trkpt lat="46.20753837749362" lon="8.291545920073986">
        <ele>1743.97</ele>
        <time>2015-03-01T10:23:50Z</time>
      </trkpt>
      <trkpt lat="46.207501078024507" lon="8.291570814326406">
        <ele>1743.97</ele>
        <time>2015-03-01T10:23:57Z</time>
      </trkpt>
      <trkpt lat="46.207363614812493" lon="8.291659830138087">
        <ele>1741.5699999999999</ele>
        <time>2015-03-01T10:24:11Z</time>
      </trkpt>
      <trkpt lat="46.207314915955067" lon="8.291685897856951">
        <ele>1740.1199999999999</ele>
        <time>2015-03-01T10:24:17Z</time>
      </trkpt>
      <trkpt lat="46.207267055287957" lon="8.291653292253614">
        <ele>1740.1199999999999</ele>
        <time>2015-03-01T10:24:22Z</time>
      </trkpt>
      <trkpt lat="46.207180134952068" lon="8.291642144322395">
        <ele>1742.05</ele>
        <time>2015-03-01T10:24:35Z</time>
      </trkpt>
      <trkpt lat="46.207142164930701" lon="8.291696459054947">
        <ele>1742.05</ele>
        <time>2015-03-01T10:24:51Z</time>
      </trkpt>
      <trkpt lat="46.207098662853241" lon="8.291663182899356">
        <ele>1743.49</ele>
        <time>2015-03-01T10:25:08Z</time>
      </trkpt>
      <trkpt lat="46.207070918753743" lon="8.29168195836246">
        <ele>1743.97</ele>
        <time>2015-03-01T10:25:27Z</time>
      </trkpt>
      <trkpt lat="46.207060944288969" lon="8.291701823472977">
        <ele>1744.45</ele>
        <time>2015-03-01T10:25:45Z</time>
      </trkpt>
      <trkpt lat="46.207040995359421" lon="8.291688077151775">
        <ele>1744.45</ele>
        <time>2015-03-01T10:25:55Z</time>
      </trkpt>
      <trkpt lat="46.207053065299988" lon="8.291699308902025">
        <ele>1744.9300000000001</ele>
        <time>2015-03-01T10:26:14Z</time>
      </trkpt>
      <trkpt lat="46.207005707547069" lon="8.291726047173142">
        <ele>1744.9300000000001</ele>
        <time>2015-03-01T10:26:19Z</time>
      </trkpt>
      <trkpt lat="46.206925828009844" lon="8.291754797101021">
        <ele>1745.4100000000001</ele>
        <time>2015-03-01T10:26:33Z</time>
      </trkpt>
      <trkpt lat="46.2069280911237" lon="8.291743900626898">
        <ele>1743.49</ele>
        <time>2015-03-01T10:26:38Z</time>
      </trkpt>
      <trkpt lat="46.206931946799159" lon="8.291751695796847">
        <ele>1745.4100000000001</ele>
        <time>2015-03-01T10:26:43Z</time>
      </trkpt>
      <trkpt lat="46.206920966506004" lon="8.291770638898015">
        <ele>1744.9300000000001</ele>
        <time>2015-03-01T10:26:58Z</time>
      </trkpt>
      <trkpt lat="46.206917697563767" lon="8.291758820414543">
        <ele>1744.9300000000001</ele>
        <time>2015-03-01T10:27:17Z</time>
      </trkpt>
      <trkpt lat="46.206907387822866" lon="8.291741637513042">
        <ele>1744.45</ele>
        <time>2015-03-01T10:27:34Z</time>
      </trkpt>
      <trkpt lat="46.206901939585805" lon="8.291744319722056">
        <ele>1744.45</ele>
        <time>2015-03-01T10:27:53Z</time>
      </trkpt>
      <trkpt lat="46.206913003697991" lon="8.291795197874308">
        <ele>1744.9300000000001</ele>
        <time>2015-03-01T10:28:13Z</time>
      </trkpt>
      <trkpt lat="46.206907220184803" lon="8.291862588375807">
        <ele>1745.4100000000001</ele>
        <time>2015-03-01T10:28:24Z</time>
      </trkpt>
      <trkpt lat="46.206941921263933" lon="8.29192771576345">
        <ele>1747.3299999999999</ele>
        <time>2015-03-01T10:28:35Z</time>
      </trkpt>
      <trkpt lat="46.206978466361761" lon="8.291836436837912">
        <ele>1748.29</ele>
        <time>2015-03-01T10:28:47Z</time>
      </trkpt>
      <trkpt lat="46.207001097500324" lon="8.291830150410533">
        <ele>1749.26</ele>
        <time>2015-03-01T10:29:03Z</time>
      </trkpt>
      <trkpt lat="46.207039905712008" lon="8.291802909225225">
        <ele>1749.74</ele>
        <time>2015-03-01T10:29:15Z</time>
      </trkpt>
      <trkpt lat="46.206997158005834" lon="8.291839370504022">
        <ele>1749.26</ele>
        <time>2015-03-01T10:29:35Z</time>
      </trkpt>
      <trkpt lat="46.206935299560428" lon="8.29180802218616">
        <ele>1747.3299999999999</ele>
        <time>2015-03-01T10:29:49Z</time>
      </trkpt>
      <trkpt lat="46.206929013133049" lon="8.291776003316045">
        <ele>1746.8499999999999</ele>
        <time>2015-03-01T10:30:06Z</time>
      </trkpt>
      <trkpt lat="46.206934629008174" lon="8.291801400482655">
        <ele>1746.8499999999999</ele>
        <time>2015-03-01T10:30:28Z</time>
      </trkpt>
      <trkpt lat="46.20690512470901" lon="8.291786061599851">
        <ele>1744.9300000000001</ele>
        <time>2015-03-01T10:30:43Z</time>
      </trkpt>
      <trkpt lat="46.206906801089644" lon="8.291745241731405">
        <ele>1744.45</ele>
        <time>2015-03-01T10:30:46Z</time>
      </trkpt>
      <trkpt lat="46.206871764734387" lon="8.291670810431242">
        <ele>1743.97</ele>
        <time>2015-03-01T10:30:54Z</time>
      </trkpt>
      <trkpt lat="46.206843098625541" lon="8.29164675436914">
        <ele>1743.49</ele>
        <time>2015-03-01T10:31:00Z</time>
      </trkpt>
      <trkpt lat="46.206785347312689" lon="8.29165656119585">
        <ele>1742.05</ele>
        <time>2015-03-01T10:31:14Z</time>
      </trkpt>
      <trkpt lat="46.206724662333727" lon="8.291665026918054">
        <ele>1742.05</ele>
        <time>2015-03-01T10:31:34Z</time>
      </trkpt>
      <trkpt lat="46.206651069223881" lon="8.291615406051278">
        <ele>1743.97</ele>
        <time>2015-03-01T10:31:47Z</time>
      </trkpt>
      <trkpt lat="46.206559622660279" lon="8.291661087423563">
        <ele>1743.97</ele>
        <time>2015-03-01T10:31:59Z</time>
      </trkpt>
      <trkpt lat="46.206488208845258" lon="8.291710959747434">
        <ele>1743.01</ele>
        <time>2015-03-01T10:32:07Z</time>
      </trkpt>
      <trkpt lat="46.206437665969133" lon="8.291757814586163">
        <ele>1742.05</ele>
        <time>2015-03-01T10:32:14Z</time>
      </trkpt>
      <trkpt lat="46.20631780475378" lon="8.291698135435581">
        <ele>1741.0799999999999</ele>
        <time>2015-03-01T10:32:28Z</time>
      </trkpt>
      <trkpt lat="46.206212863326073" lon="8.291698638349772">
        <ele>1738.6800000000001</ele>
        <time>2015-03-01T10:32:40Z</time>
      </trkpt>
      <trkpt lat="46.206158883869648" lon="8.291695453226566">
        <ele>1738.2</ele>
        <time>2015-03-01T10:32:46Z</time>
      </trkpt>
      <trkpt lat="46.206123931333423" lon="8.291695788502693">
        <ele>1738.2</ele>
        <time>2015-03-01T10:32:50Z</time>
      </trkpt>
      <trkpt lat="46.206038603559136" lon="8.291648514568806">
        <ele>1738.2</ele>
        <time>2015-03-01T10:33:04Z</time>
      </trkpt>
      <trkpt lat="46.205944893881679" lon="8.291608281433582">
        <ele>1735.8</ele>
        <time>2015-03-01T10:33:19Z</time>
      </trkpt>
      <trkpt lat="46.205852190032601" lon="8.291596798226237">
        <ele>1732.4300000000001</ele>
        <time>2015-03-01T10:33:33Z</time>
      </trkpt>
      <trkpt lat="46.205778596922755" lon="8.291569976136088">
        <ele>1729.0699999999999</ele>
        <time>2015-03-01T10:33:48Z</time>
      </trkpt>
      <trkpt lat="46.205768538638949" lon="8.291577771306038">
        <ele>1728.5899999999999</ele>
        <time>2015-03-01T10:33:49Z</time>
      </trkpt>
      <trkpt lat="46.20568698272109" lon="8.291523540392518">
        <ele>1726.6700000000001</ele>
        <time>2015-03-01T10:34:00Z</time>
      </trkpt>
      <trkpt lat="46.205672649666667" lon="8.291534604504705">
        <ele>1726.1800000000001</ele>
        <time>2015-03-01T10:34:06Z</time>
      </trkpt>
      <trkpt lat="46.205565696582198" lon="8.291522534564138">
        <ele>1724.74</ele>
        <time>2015-03-01T10:34:19Z</time>
      </trkpt>
      <trkpt lat="46.205504927784204" lon="8.291462352499366">
        <ele>1724.74</ele>
        <time>2015-03-01T10:34:33Z</time>
      </trkpt>
      <trkpt lat="46.205501658841968" lon="8.29146989621222">
        <ele>1724.74</ele>
        <time>2015-03-01T10:34:56Z</time>
      </trkpt>
      <trkpt lat="46.205477518960834" lon="8.291516918689013">
        <ele>1723.78</ele>
        <time>2015-03-01T10:35:02Z</time>
      </trkpt>
      <trkpt lat="46.205401830375195" lon="8.291568215936422">
        <ele>1721.8599999999999</ele>
        <time>2015-03-01T10:35:12Z</time>
      </trkpt>
      <trkpt lat="46.205294039100409" lon="8.291483223438263">
        <ele>1718.49</ele>
        <time>2015-03-01T10:35:23Z</time>
      </trkpt>
      <trkpt lat="46.205290770158172" lon="8.291419353336096">
        <ele>1717.53</ele>
        <time>2015-03-01T10:35:36Z</time>
      </trkpt>
      <trkpt lat="46.205282136797905" lon="8.291396386921406">
        <ele>1717.53</ele>
        <time>2015-03-01T10:35:41Z</time>
      </trkpt>
      <trkpt lat="46.20519831776619" lon="8.29123386181891">
        <ele>1714.6500000000001</ele>
        <time>2015-03-01T10:35:54Z</time>
      </trkpt>
      <trkpt lat="46.205183146521449" lon="8.291187090799213">
        <ele>1714.6500000000001</ele>
        <time>2015-03-01T10:36:00Z</time>
      </trkpt>
      <trkpt lat="46.205172250047326" lon="8.291097823530436">
        <ele>1714.6500000000001</ele>
        <time>2015-03-01T10:36:15Z</time>
      </trkpt>
      <trkpt lat="46.20523008517921" lon="8.291017105802894">
        <ele>1715.6099999999999</ele>
        <time>2015-03-01T10:36:30Z</time>
      </trkpt>
      <trkpt lat="46.205247351899743" lon="8.290938651189208">
        <ele>1716.5699999999999</ele>
        <time>2015-03-01T10:36:43Z</time>
      </trkpt>
      <trkpt lat="46.205278532579541" lon="8.290945440530777">
        <ele>1718.01</ele>
        <time>2015-03-01T10:36:56Z</time>
      </trkpt>
      <trkpt lat="46.205246681347489" lon="8.290977207943797">
        <ele>1717.05</ele>
        <time>2015-03-01T10:37:09Z</time>
      </trkpt>
      <trkpt lat="46.205241568386555" lon="8.291015597060323">
        <ele>1717.05</ele>
        <time>2015-03-01T10:37:20Z</time>
      </trkpt>
      <trkpt lat="46.205233940854669" lon="8.291059518232942">
        <ele>1716.0899999999999</ele>
        <time>2015-03-01T10:37:38Z</time>
      </trkpt>
      <trkpt lat="46.205189013853669" lon="8.2910115737468">
        <ele>1715.1300000000001</ele>
        <time>2015-03-01T10:37:48Z</time>
      </trkpt>
      <trkpt lat="46.205198988318443" lon="8.291018614545465">
        <ele>1715.1300000000001</ele>
        <time>2015-03-01T10:38:00Z</time>
      </trkpt>
      <trkpt lat="46.205187253654003" lon="8.291015680879355">
        <ele>1714.6500000000001</ele>
        <time>2015-03-01T10:38:11Z</time>
      </trkpt>
      <trkpt lat="46.20517828501761" lon="8.291019704192877">
        <ele>1714.1700000000001</ele>
        <time>2015-03-01T10:38:27Z</time>
      </trkpt>
      <trkpt lat="46.205191612243652" lon="8.290981650352478">
        <ele>1714.6500000000001</ele>
        <time>2015-03-01T10:38:40Z</time>
      </trkpt>
      <trkpt lat="46.205208543688059" lon="8.290996318683028">
        <ele>1714.1700000000001</ele>
        <time>2015-03-01T10:38:55Z</time>
      </trkpt>
      <trkpt lat="46.205205107107759" lon="8.290996318683028">
        <ele>1714.6500000000001</ele>
        <time>2015-03-01T10:39:14Z</time>
      </trkpt>
      <trkpt lat="46.205147271975875" lon="8.290988439694047">
        <ele>1714.6500000000001</ele>
        <time>2015-03-01T10:39:20Z</time>
      </trkpt>
      <trkpt lat="46.205054735764861" lon="8.290974693372846">
        <ele>1714.1700000000001</ele>
        <time>2015-03-01T10:39:34Z</time>
      </trkpt>
      <trkpt lat="46.205066554248333" lon="8.290966898202896">
        <ele>1714.1700000000001</ele>
        <time>2015-03-01T10:40:02Z</time>
      </trkpt>
      <trkpt lat="46.205033445730805" lon="8.290969077497721">
        <ele>1714.1700000000001</ele>
        <time>2015-03-01T10:40:05Z</time>
      </trkpt>
      <trkpt lat="46.204898161813617" lon="8.290880732238293">
        <ele>1714.1700000000001</ele>
        <time>2015-03-01T10:40:20Z</time>
      </trkpt>
      <trkpt lat="46.204809816554189" lon="8.29082440584898">
        <ele>1714.1700000000001</ele>
        <time>2015-03-01T10:40:30Z</time>
      </trkpt>
      <trkpt lat="46.204690458253026" lon="8.290750728920102">
        <ele>1713.21</ele>
        <time>2015-03-01T10:40:44Z</time>
      </trkpt>
      <trkpt lat="46.204629689455032" lon="8.290573954582214">
        <ele>1710.8</ele>
        <time>2015-03-01T10:40:58Z</time>
      </trkpt>
      <trkpt lat="46.20459783822298" lon="8.290513018146157">
        <ele>1710.8</ele>
        <time>2015-03-01T10:41:04Z</time>
      </trkpt>
      <trkpt lat="46.204588869586587" lon="8.290461637079716">
        <ele>1711.28</ele>
        <time>2015-03-01T10:41:08Z</time>
      </trkpt>
      <trkpt lat="46.204556515440345" lon="8.290358288213611">
        <ele>1710.8</ele>
        <time>2015-03-01T10:41:22Z</time>
      </trkpt>
      <trkpt lat="46.204549809917808" lon="8.29035921022296">
        <ele>1710.3199999999999</ele>
        <time>2015-03-01T10:41:42Z</time>
      </trkpt>
      <trkpt lat="46.204572860151529" lon="8.290395000949502">
        <ele>1710.8</ele>
        <time>2015-03-01T10:42:01Z</time>
      </trkpt>
      <trkpt lat="46.204571770504117" lon="8.290410758927465">
        <ele>1710.3199999999999</ele>
        <time>2015-03-01T10:42:19Z</time>
      </trkpt>
      <trkpt lat="46.204579314216971" lon="8.290403466671705">
        <ele>1709.8399999999999</ele>
        <time>2015-03-01T10:42:52Z</time>
      </trkpt>
      <trkpt lat="46.204568753018975" lon="8.290388127788901">
        <ele>1709.8399999999999</ele>
        <time>2015-03-01T10:43:17Z</time>
      </trkpt>
      <trkpt lat="46.20457487180829" lon="8.29038804396987">
        <ele>1709.8399999999999</ele>
        <time>2015-03-01T10:43:40Z</time>
      </trkpt>
      <trkpt lat="46.204579398036003" lon="8.290374465286732">
        <ele>1709.8399999999999</ele>
        <time>2015-03-01T10:43:58Z</time>
      </trkpt>
      <trkpt lat="46.204588199034333" lon="8.290369855239987">
        <ele>1709.8399999999999</ele>
        <time>2015-03-01T10:44:18Z</time>
      </trkpt>
      <trkpt lat="46.204586271196604" lon="8.290456356480718">
        <ele>1709.8399999999999</ele>
        <time>2015-03-01T10:44:32Z</time>
      </trkpt>
      <trkpt lat="46.204592138528824" lon="8.29044914804399">
        <ele>1709.8399999999999</ele>
        <time>2015-03-01T10:44:47Z</time>
      </trkpt>
      <trkpt lat="46.204599430784583" lon="8.290459793061018">
        <ele>1709.3599999999999</ele>
        <time>2015-03-01T10:45:02Z</time>
      </trkpt>
      <trkpt lat="46.204591719433665" lon="8.290463145822287">
        <ele>1709.3599999999999</ele>
        <time>2015-03-01T10:45:23Z</time>
      </trkpt>
      <trkpt lat="46.204582499340177" lon="8.290431126952171">
        <ele>1709.8399999999999</ele>
        <time>2015-03-01T10:45:37Z</time>
      </trkpt>
      <trkpt lat="46.204597670584917" lon="8.290449986234307">
        <ele>1709.3599999999999</ele>
        <time>2015-03-01T10:45:57Z</time>
      </trkpt>
      <trkpt lat="46.204603789374232" lon="8.290454428642988">
        <ele>1709.3599999999999</ele>
        <time>2015-03-01T10:46:11Z</time>
      </trkpt>
      <trkpt lat="46.204586690291762" lon="8.290457027032971">
        <ele>1709.3599999999999</ele>
        <time>2015-03-01T10:46:23Z</time>
      </trkpt>
      <trkpt lat="46.204608650878072" lon="8.290495919063687">
        <ele>1709.3599999999999</ele>
        <time>2015-03-01T10:46:39Z</time>
      </trkpt>
      <trkpt lat="46.204586019739509" lon="8.290497343987227">
        <ele>1709.3599999999999</ele>
        <time>2015-03-01T10:46:48Z</time>
      </trkpt>
      <trkpt lat="46.204571854323149" lon="8.290496757254005">
        <ele>1709.3599999999999</ele>
        <time>2015-03-01T10:47:03Z</time>
      </trkpt>
      <trkpt lat="46.204566154628992" lon="8.290490554645658">
        <ele>1709.3599999999999</ele>
        <time>2015-03-01T10:47:32Z</time>
      </trkpt>
      <trkpt lat="46.204576129093766" lon="8.290503127500415">
        <ele>1709.8399999999999</ele>
        <time>2015-03-01T10:48:06Z</time>
      </trkpt>
      <trkpt lat="46.204581912606955" lon="8.290496505796909">
        <ele>1709.8399999999999</ele>
        <time>2015-03-01T10:48:31Z</time>
      </trkpt>
      <trkpt lat="46.2045933958143" lon="8.290503211319447">
        <ele>1709.8399999999999</ele>
        <time>2015-03-01T10:48:58Z</time>
      </trkpt>
      <trkpt lat="46.204592641443014" lon="8.290493069216609">
        <ele>1709.3599999999999</ele>
        <time>2015-03-01T10:49:29Z</time>
      </trkpt>
      <trkpt lat="46.204588869586587" lon="8.290487788617611">
        <ele>1709.3599999999999</ele>
        <time>2015-03-01T10:49:52Z</time>
      </trkpt>
      <trkpt lat="46.204603789374232" lon="8.290477646514773">
        <ele>1709.3599999999999</ele>
        <time>2015-03-01T10:50:20Z</time>
      </trkpt>
      <trkpt lat="46.204581158235669" lon="8.29050287604332">
        <ele>1708.8800000000001</ele>
        <time>2015-03-01T10:50:43Z</time>
      </trkpt>
      <trkpt lat="46.204573698341846" lon="8.290492901578546">
        <ele>1708.8800000000001</ele>
        <time>2015-03-01T10:50:52Z</time>
      </trkpt>
      <trkpt lat="46.20462323538959" lon="8.290554424747825">
        <ele>1709.3599999999999</ele>
        <time>2015-03-01T10:51:05Z</time>
      </trkpt>
      <trkpt lat="46.204678136855364" lon="8.290699766948819">
        <ele>1709.8399999999999</ele>
        <time>2015-03-01T10:51:19Z</time>
      </trkpt>
      <trkpt lat="46.204721136018634" lon="8.29079020768404">
        <ele>1710.8</ele>
        <time>2015-03-01T10:51:33Z</time>
      </trkpt>
      <trkpt lat="46.204835213720798" lon="8.29082197509706">
        <ele>1711.28</ele>
        <time>2015-03-01T10:51:48Z</time>
      </trkpt>
      <trkpt lat="46.204938562586904" lon="8.290901770815253">
        <ele>1712.25</ele>
        <time>2015-03-01T10:52:03Z</time>
      </trkpt>
      <trkpt lat="46.205011233687401" lon="8.290949128568173">
        <ele>1712.25</ele>
        <time>2015-03-01T10:52:17Z</time>
      </trkpt>
      <trkpt lat="46.205058675259352" lon="8.290963713079691">
        <ele>1712.25</ele>
        <time>2015-03-01T10:52:27Z</time>
      </trkpt>
      <trkpt lat="46.205144757404923" lon="8.291040742769837">
        <ele>1711.76</ele>
        <time>2015-03-01T10:52:40Z</time>
      </trkpt>
      <trkpt lat="46.205173255875707" lon="8.2910858374089">
        <ele>1712.25</ele>
        <time>2015-03-01T10:52:52Z</time>
      </trkpt>
      <trkpt lat="46.205180129036307" lon="8.291090950369835">
        <ele>1711.76</ele>
        <time>2015-03-01T10:53:10Z</time>
      </trkpt>
      <trkpt lat="46.205215668305755" lon="8.291158508509398">
        <ele>1711.28</ele>
        <time>2015-03-01T10:53:24Z</time>
      </trkpt>
      <trkpt lat="46.205272832885385" lon="8.291264707222581">
        <ele>1711.28</ele>
        <time>2015-03-01T10:53:38Z</time>
      </trkpt>
      <trkpt lat="46.205255733802915" lon="8.291266299784184">
        <ele>1710.8</ele>
        <time>2015-03-01T10:53:52Z</time>
      </trkpt>
      <trkpt lat="46.205256571993232" lon="8.291256409138441">
        <ele>1709.8399999999999</ele>
        <time>2015-03-01T10:54:04Z</time>
      </trkpt>
      <trkpt lat="46.205263780429959" lon="8.2912568282336">
        <ele>1709.8399999999999</ele>
        <time>2015-03-01T10:54:32Z</time>
      </trkpt>
      <trkpt lat="46.205256655812263" lon="8.291248949244618">
        <ele>1709.8399999999999</ele>
        <time>2015-03-01T10:55:04Z</time>
      </trkpt>
      <trkpt lat="46.205251039937139" lon="8.291227072477341">
        <ele>1710.3199999999999</ele>
        <time>2015-03-01T10:55:22Z</time>
      </trkpt>
      <trkpt lat="46.205258583649993" lon="8.291247691959143">
        <ele>1710.3199999999999</ele>
        <time>2015-03-01T10:55:52Z</time>
      </trkpt>
      <trkpt lat="46.205256320536137" lon="8.291252637282014">
        <ele>1710.3199999999999</ele>
        <time>2015-03-01T10:56:17Z</time>
      </trkpt>
      <trkpt lat="46.205242574214935" lon="8.291235622018576">
        <ele>1710.8</ele>
        <time>2015-03-01T10:56:48Z</time>
      </trkpt>
      <trkpt lat="46.2052530515939" lon="8.291247440502048">
        <ele>1712.25</ele>
        <time>2015-03-01T10:57:22Z</time>
      </trkpt>
      <trkpt lat="46.20523989200592" lon="8.291234783828259">
        <ele>1710.8</ele>
        <time>2015-03-01T10:58:02Z</time>
      </trkpt>
      <trkpt lat="46.205264450982213" lon="8.291254481300712">
        <ele>1710.8</ele>
        <time>2015-03-01T10:58:38Z</time>
      </trkpt>
      <trkpt lat="46.205234108492732" lon="8.291232269257307">
        <ele>1710.3199999999999</ele>
        <time>2015-03-01T10:59:09Z</time>
      </trkpt>
      <trkpt lat="46.205247770994902" lon="8.291250374168158">
        <ele>1710.8</ele>
        <time>2015-03-01T10:59:40Z</time>
      </trkpt>
      <trkpt lat="46.205231845378876" lon="8.291247943416238">
        <ele>1710.3199999999999</ele>
        <time>2015-03-01T11:00:12Z</time>
      </trkpt>
      <trkpt lat="46.205248357728124" lon="8.291241573169828">
        <ele>1710.3199999999999</ele>
        <time>2015-03-01T11:00:51Z</time>
      </trkpt>
      <trkpt lat="46.205235198140144" lon="8.291250877082348">
        <ele>1710.8</ele>
        <time>2015-03-01T11:01:28Z</time>
      </trkpt>
      <trkpt lat="46.205231510102749" lon="8.291232772171497">
        <ele>1710.3199999999999</ele>
        <time>2015-03-01T11:02:06Z</time>
      </trkpt>
      <trkpt lat="46.205236623063684" lon="8.291270406916738">
        <ele>1710.8</ele>
        <time>2015-03-01T11:02:40Z</time>
      </trkpt>
      <trkpt lat="46.205233437940478" lon="8.291297983378172">
        <ele>1711.28</ele>
        <time>2015-03-01T11:02:59Z</time>
      </trkpt>
      <trkpt lat="46.205241233110428" lon="8.2912568282336">
        <ele>1710.3199999999999</ele>
        <time>2015-03-01T11:03:17Z</time>
      </trkpt>
      <trkpt lat="46.205257158726454" lon="8.291239142417908">
        <ele>1710.3199999999999</ele>
        <time>2015-03-01T11:03:42Z</time>
      </trkpt>
      <trkpt lat="46.205258499830961" lon="8.291241070255637">
        <ele>1710.3199999999999</ele>
        <time>2015-03-01T11:04:11Z</time>
      </trkpt>
      <trkpt lat="46.205261265859008" lon="8.291274262592197">
        <ele>1710.3199999999999</ele>
        <time>2015-03-01T11:04:33Z</time>
      </trkpt>
      <trkpt lat="46.205256907269359" lon="8.291275687515736">
        <ele>1710.3199999999999</ele>
        <time>2015-03-01T11:05:03Z</time>
      </trkpt>
      <trkpt lat="46.205259086564183" lon="8.291252134367824">
        <ele>1710.3199999999999</ele>
        <time>2015-03-01T11:05:29Z</time>
      </trkpt>
      <trkpt lat="46.205252297222614" lon="8.29127199947834">
        <ele>1710.8</ele>
        <time>2015-03-01T11:05:57Z</time>
      </trkpt>
      <trkpt lat="46.205253303050995" lon="8.291275938972831">
        <ele>1710.8</ele>
        <time>2015-03-01T11:06:30Z</time>
      </trkpt>
      <trkpt lat="46.205246346071362" lon="8.291275352239609">
        <ele>1711.28</ele>
        <time>2015-03-01T11:07:06Z</time>
      </trkpt>
      <trkpt lat="46.20524425059557" lon="8.291266048327088">
        <ele>1711.28</ele>
        <time>2015-03-01T11:07:37Z</time>
      </trkpt>
      <trkpt lat="46.205246346071362" lon="8.29128080047667">
        <ele>1711.28</ele>
        <time>2015-03-01T11:08:16Z</time>
      </trkpt>
      <trkpt lat="46.205247100442648" lon="8.291265293955803">
        <ele>1711.28</ele>
        <time>2015-03-01T11:08:53Z</time>
      </trkpt>
      <trkpt lat="46.205237964168191" lon="8.291258169338107">
        <ele>1710.8</ele>
        <time>2015-03-01T11:09:32Z</time>
      </trkpt>
      <trkpt lat="46.205234359949827" lon="8.291248697787523">
        <ele>1710.8</ele>
        <time>2015-03-01T11:10:04Z</time>
      </trkpt>
      <trkpt lat="46.205229666084051" lon="8.29124266281724">
        <ele>1710.8</ele>
        <time>2015-03-01T11:10:29Z</time>
      </trkpt>
      <trkpt lat="46.205241065472364" lon="8.291265713050962">
        <ele>1710.8</ele>
        <time>2015-03-01T11:10:53Z</time>
      </trkpt>
      <trkpt lat="46.205252548679709" lon="8.291269233450294">
        <ele>1710.8</ele>
        <time>2015-03-01T11:11:16Z</time>
      </trkpt>
      <trkpt lat="46.20523838326335" lon="8.291278705000877">
        <ele>1710.8</ele>
        <time>2015-03-01T11:11:44Z</time>
      </trkpt>
      <trkpt lat="46.205246932804585" lon="8.291263869032264">
        <ele>1710.8</ele>
        <time>2015-03-01T11:12:16Z</time>
      </trkpt>
      <trkpt lat="46.205247938632965" lon="8.291266886517406">
        <ele>1710.8</ele>
        <time>2015-03-01T11:12:54Z</time>
      </trkpt>
      <trkpt lat="46.205243580043316" lon="8.291267557069659">
        <ele>1710.3199999999999</ele>
        <time>2015-03-01T11:13:21Z</time>
      </trkpt>
      <trkpt lat="46.20525942184031" lon="8.29127149656415">
        <ele>1710.3199999999999</ele>
        <time>2015-03-01T11:13:56Z</time>
      </trkpt>
      <trkpt lat="46.205260176211596" lon="8.291263869032264">
        <ele>1710.3199999999999</ele>
        <time>2015-03-01T11:14:24Z</time>
      </trkpt>
      <trkpt lat="46.205276101827621" lon="8.291257247328758">
        <ele>1710.3199999999999</ele>
        <time>2015-03-01T11:14:46Z</time>
      </trkpt>
      <trkpt lat="46.20526478625834" lon="8.291272250935435">
        <ele>1710.3199999999999</ele>
        <time>2015-03-01T11:15:14Z</time>
      </trkpt>
      <trkpt lat="46.205269647762179" lon="8.291282393038273">
        <ele>1710.3199999999999</ele>
        <time>2015-03-01T11:15:35Z</time>
      </trkpt>
      <trkpt lat="46.205262690782547" lon="8.291270239278674">
        <ele>1710.3199999999999</ele>
        <time>2015-03-01T11:15:59Z</time>
      </trkpt>
      <trkpt lat="46.205252464860678" lon="8.291288008913398">
        <ele>1710.3199999999999</ele>
        <time>2015-03-01T11:16:26Z</time>
      </trkpt>
      <trkpt lat="46.20526285842061" lon="8.291251882910729">
        <ele>1710.3199999999999</ele>
        <time>2015-03-01T11:16:53Z</time>
      </trkpt>
      <trkpt lat="46.205261684954166" lon="8.29127149656415">
        <ele>1710.3199999999999</ele>
        <time>2015-03-01T11:17:20Z</time>
      </trkpt>
      <trkpt lat="46.205239472910762" lon="8.291269233450294">
        <ele>1710.3199999999999</ele>
        <time>2015-03-01T11:17:46Z</time>
      </trkpt>
      <trkpt lat="46.205241736024618" lon="8.291274765506387">
        <ele>1710.3199999999999</ele>
        <time>2015-03-01T11:18:04Z</time>
      </trkpt>
      <trkpt lat="46.20523352175951" lon="8.291282141581178">
        <ele>1710.3199999999999</ele>
        <time>2015-03-01T11:18:26Z</time>
      </trkpt>
      <trkpt lat="46.205227822065353" lon="8.291295971721411">
        <ele>1710.3199999999999</ele>
        <time>2015-03-01T11:18:58Z</time>
      </trkpt>
      <trkpt lat="46.205222373828292" lon="8.291302006691694">
        <ele>1710.3199999999999</ele>
        <time>2015-03-01T11:19:30Z</time>
      </trkpt>
      <trkpt lat="46.205233689397573" lon="8.291259426623583">
        <ele>1710.3199999999999</ele>
        <time>2015-03-01T11:19:57Z</time>
      </trkpt>
      <trkpt lat="46.205227570608258" lon="8.291266886517406">
        <ele>1710.3199999999999</ele>
        <time>2015-03-01T11:20:31Z</time>
      </trkpt>
      <trkpt lat="46.205240059643984" lon="8.291274011135101">
        <ele>1710.3199999999999</ele>
        <time>2015-03-01T11:20:53Z</time>
      </trkpt>
      <trkpt lat="46.205240311101079" lon="8.291257247328758">
        <ele>1710.3199999999999</ele>
        <time>2015-03-01T11:21:17Z</time>
      </trkpt>
      <trkpt lat="46.205216506496072" lon="8.291276358067989">
        <ele>1710.3199999999999</ele>
        <time>2015-03-01T11:21:48Z</time>
      </trkpt>
      <trkpt lat="46.205233605578542" lon="8.291265377774835">
        <ele>1709.8399999999999</ele>
        <time>2015-03-01T11:22:10Z</time>
      </trkpt>
      <trkpt lat="46.205209298059344" lon="8.291272753849626">
        <ele>1710.3199999999999</ele>
        <time>2015-03-01T11:22:35Z</time>
      </trkpt>
      <trkpt lat="46.205230001360178" lon="8.29127392731607">
        <ele>1709.8399999999999</ele>
        <time>2015-03-01T11:23:04Z</time>
      </trkpt>
      <trkpt lat="46.205233437940478" lon="8.291285494342446">
        <ele>1710.3199999999999</ele>
        <time>2015-03-01T11:23:18Z</time>
      </trkpt>
      <trkpt lat="46.20522229000926" lon="8.291264455765486">
        <ele>1710.3199999999999</ele>
        <time>2015-03-01T11:23:49Z</time>
      </trkpt>
      <trkpt lat="46.205212231725454" lon="8.291289014741778">
        <ele>1709.8399999999999</ele>
        <time>2015-03-01T11:24:13Z</time>
      </trkpt>
      <trkpt lat="46.205232767388225" lon="8.291289601475">
        <ele>1709.8399999999999</ele>
        <time>2015-03-01T11:24:37Z</time>
      </trkpt>
      <trkpt lat="46.205232180655003" lon="8.291295468807221">
        <ele>1710.3199999999999</ele>
        <time>2015-03-01T11:25:01Z</time>
      </trkpt>
      <trkpt lat="46.2052305880934" lon="8.291276777163148">
        <ele>1709.8399999999999</ele>
        <time>2015-03-01T11:25:25Z</time>
      </trkpt>
      <trkpt lat="46.205240394920111" lon="8.291276190429926">
        <ele>1709.8399999999999</ele>
        <time>2015-03-01T11:25:49Z</time>
      </trkpt>
      <trkpt lat="46.205247770994902" lon="8.291276022791863">
        <ele>1710.3199999999999</ele>
        <time>2015-03-01T11:26:11Z</time>
      </trkpt>
      <trkpt lat="46.205250285565853" lon="8.291284656152129">
        <ele>1710.3199999999999</ele>
        <time>2015-03-01T11:26:36Z</time>
      </trkpt>
      <trkpt lat="46.205237712711096" lon="8.29129203222692">
        <ele>1710.8</ele>
        <time>2015-03-01T11:27:06Z</time>
      </trkpt>
      <trkpt lat="46.205246597528458" lon="8.291284237056971">
        <ele>1710.8</ele>
        <time>2015-03-01T11:27:27Z</time>
      </trkpt>
      <trkpt lat="46.205225978046656" lon="8.291366379708052">
        <ele>1712.73</ele>
        <time>2015-03-01T11:27:37Z</time>
      </trkpt>
      <trkpt lat="46.205221535637975" lon="8.29137803055346">
        <ele>1711.76</ele>
        <time>2015-03-01T11:27:38Z</time>
      </trkpt>
      <trkpt lat="46.205194126814604" lon="8.291523037478328">
        <ele>1710.8</ele>
        <time>2015-03-01T11:27:52Z</time>
      </trkpt>
      <trkpt lat="46.205206196755171" lon="8.291656728833914">
        <ele>1711.28</ele>
        <time>2015-03-01T11:28:06Z</time>
      </trkpt>
      <trkpt lat="46.205244837328792" lon="8.291811374947429">
        <ele>1710.8</ele>
        <time>2015-03-01T11:28:20Z</time>
      </trkpt>
      <trkpt lat="46.205186080187559" lon="8.291889661923051">
        <ele>1708.8800000000001</ele>
        <time>2015-03-01T11:28:34Z</time>
      </trkpt>
      <trkpt lat="46.205140482634306" lon="8.291955627501011">
        <ele>1706.96</ele>
        <time>2015-03-01T11:28:44Z</time>
      </trkpt>
      <trkpt lat="46.205128999426961" lon="8.29205721616745">
        <ele>1704.0699999999999</ele>
        <time>2015-03-01T11:28:57Z</time>
      </trkpt>
      <trkpt lat="46.205160180106759" lon="8.292047325521708">
        <ele>1703.5899999999999</ele>
        <time>2015-03-01T11:29:15Z</time>
      </trkpt>
      <trkpt lat="46.205163281410933" lon="8.292070124298334">
        <ele>1703.5899999999999</ele>
        <time>2015-03-01T11:29:44Z</time>
      </trkpt>
      <trkpt lat="46.205144841223955" lon="8.29208554700017">
        <ele>1703.5899999999999</ele>
        <time>2015-03-01T11:30:04Z</time>
      </trkpt>
      <trkpt lat="46.205107038840652" lon="8.292177747935057">
        <ele>1702.6300000000001</ele>
        <time>2015-03-01T11:30:20Z</time>
      </trkpt>
      <trkpt lat="46.205090107396245" lon="8.292205156758428">
        <ele>1702.1500000000001</ele>
        <time>2015-03-01T11:30:23Z</time>
      </trkpt>
      <trkpt lat="46.205109218135476" lon="8.29220624640584">
        <ele>1701.6700000000001</ele>
        <time>2015-03-01T11:30:37Z</time>
      </trkpt>
      <trkpt lat="46.205151211470366" lon="8.29205721616745">
        <ele>1703.5899999999999</ele>
        <time>2015-03-01T11:30:52Z</time>
      </trkpt>
      <trkpt lat="46.205174010246992" lon="8.292051935568452">
        <ele>1703.5899999999999</ele>
        <time>2015-03-01T11:31:07Z</time>
      </trkpt>
      <trkpt lat="46.205155905336142" lon="8.292047074064612">
        <ele>1703.1099999999999</ele>
        <time>2015-03-01T11:31:18Z</time>
      </trkpt>
      <trkpt lat="46.205152217298746" lon="8.292027544230223">
        <ele>1703.1099999999999</ele>
        <time>2015-03-01T11:31:31Z</time>
      </trkpt>
      <trkpt lat="46.205157665535808" lon="8.292004493996501">
        <ele>1704.0699999999999</ele>
        <time>2015-03-01T11:31:34Z</time>
      </trkpt>
      <trkpt lat="46.205172250047326" lon="8.291936684399843">
        <ele>1705.52</ele>
        <time>2015-03-01T11:31:45Z</time>
      </trkpt>
      <trkpt lat="46.205185241997242" lon="8.291881866753101">
        <ele>1706.96</ele>
        <time>2015-03-01T11:31:56Z</time>
      </trkpt>
      <trkpt lat="46.205201335251331" lon="8.291869880631566">
        <ele>1707.4400000000001</ele>
        <time>2015-03-01T11:32:07Z</time>
      </trkpt>
      <trkpt lat="46.205213153734803" lon="8.291853368282318">
        <ele>1707.9200000000001</ele>
        <time>2015-03-01T11:32:21Z</time>
      </trkpt>
      <trkpt lat="46.205253973603249" lon="8.291822606697679">
        <ele>1708.8800000000001</ele>
        <time>2015-03-01T11:32:31Z</time>
      </trkpt>
      <trkpt lat="46.205257745459676" lon="8.291799640282989">
        <ele>1709.8399999999999</ele>
        <time>2015-03-01T11:32:34Z</time>
      </trkpt>
      <trkpt lat="46.205214578658342" lon="8.291720096021891">
        <ele>1710.3199999999999</ele>
        <time>2015-03-01T11:32:42Z</time>
      </trkpt>
      <trkpt lat="46.205210722982883" lon="8.291644742712379">
        <ele>1710.3199999999999</ele>
        <time>2015-03-01T11:32:49Z</time>
      </trkpt>
      <trkpt lat="46.205211896449327" lon="8.291483893990517">
        <ele>1710.3199999999999</ele>
        <time>2015-03-01T11:33:01Z</time>
      </trkpt>
      <trkpt lat="46.205200999975204" lon="8.291413737460971">
        <ele>1709.8399999999999</ele>
        <time>2015-03-01T11:33:07Z</time>
      </trkpt>
      <trkpt lat="46.205225810408592" lon="8.291311142966151">
        <ele>1710.3199999999999</ele>
        <time>2015-03-01T11:33:18Z</time>
      </trkpt>
      <trkpt lat="46.205228241160512" lon="8.29123729839921">
        <ele>1710.8</ele>
        <time>2015-03-01T11:33:29Z</time>
      </trkpt>
      <trkpt lat="46.205230923369527" lon="8.291240315884352">
        <ele>1710.8</ele>
        <time>2015-03-01T11:33:40Z</time>
      </trkpt>
      <trkpt lat="46.20524282567203" lon="8.291255487129092">
        <ele>1710.3199999999999</ele>
        <time>2015-03-01T11:33:53Z</time>
      </trkpt>
      <trkpt lat="46.205248944461346" lon="8.29127736389637">
        <ele>1710.3199999999999</ele>
        <time>2015-03-01T11:34:10Z</time>
      </trkpt>
      <trkpt lat="46.205232348293066" lon="8.291300414130092">
        <ele>1710.3199999999999</ele>
        <time>2015-03-01T11:34:34Z</time>
      </trkpt>
      <trkpt lat="46.205219272524118" lon="8.291305359452963">
        <ele>1710.8</ele>
        <time>2015-03-01T11:34:53Z</time>
      </trkpt>
      <trkpt lat="46.205217847600579" lon="8.291292199864984">
        <ele>1710.8</ele>
        <time>2015-03-01T11:35:14Z</time>
      </trkpt>
      <trkpt lat="46.205226480960846" lon="8.291295468807221">
        <ele>1712.25</ele>
        <time>2015-03-01T11:35:42Z</time>
      </trkpt>
      <trkpt lat="46.20522229000926" lon="8.291272334754467">
        <ele>1711.28</ele>
        <time>2015-03-01T11:36:13Z</time>
      </trkpt>
      <trkpt lat="46.205222541466355" lon="8.291285326704383">
        <ele>1711.76</ele>
        <time>2015-03-01T11:36:36Z</time>
      </trkpt>
      <trkpt lat="46.20521692559123" lon="8.291267305612564">
        <ele>1711.76</ele>
        <time>2015-03-01T11:36:53Z</time>
      </trkpt>
      <trkpt lat="46.205210136249661" lon="8.291293457150459">
        <ele>1711.76</ele>
        <time>2015-03-01T11:37:13Z</time>
      </trkpt>
      <trkpt lat="46.20523595251143" lon="8.291297731921077">
        <ele>1712.25</ele>
        <time>2015-03-01T11:37:46Z</time>
      </trkpt>
      <trkpt lat="46.205235198140144" lon="8.291284320876002">
        <ele>1711.76</ele>
        <time>2015-03-01T11:38:12Z</time>
      </trkpt>
      <trkpt lat="46.2052340246737" lon="8.29129253514111">
        <ele>1711.76</ele>
        <time>2015-03-01T11:38:31Z</time>
      </trkpt>
      <trkpt lat="46.205211393535137" lon="8.291303096339107">
        <ele>1711.76</ele>
        <time>2015-03-01T11:38:59Z</time>
      </trkpt>
      <trkpt lat="46.205213069915771" lon="8.291313657537103">
        <ele>1711.28</ele>
        <time>2015-03-01T11:39:29Z</time>
      </trkpt>
      <trkpt lat="46.205211477354169" lon="8.291291864588857">
        <ele>1711.28</ele>
        <time>2015-03-01T11:40:00Z</time>
      </trkpt>
      <trkpt lat="46.205229330807924" lon="8.291266383603215">
        <ele>1710.8</ele>
        <time>2015-03-01T11:40:35Z</time>
      </trkpt>
      <trkpt lat="46.205223714932799" lon="8.291274262592197">
        <ele>1710.8</ele>
        <time>2015-03-01T11:40:59Z</time>
      </trkpt>
      <trkpt lat="46.20521642267704" lon="8.291283147409558">
        <ele>1710.8</ele>
        <time>2015-03-01T11:41:16Z</time>
      </trkpt>
      <trkpt lat="46.205208962783217" lon="8.291284069418907">
        <ele>1710.8</ele>
        <time>2015-03-01T11:41:39Z</time>
      </trkpt>
      <trkpt lat="46.205217931419611" lon="8.291287086904049">
        <ele>1710.8</ele>
        <time>2015-03-01T11:41:57Z</time>
      </trkpt>
      <trkpt lat="46.205229833722115" lon="8.291290942579508">
        <ele>1710.8</ele>
        <time>2015-03-01T11:42:20Z</time>
      </trkpt>
      <trkpt lat="46.20524181984365" lon="8.291276022791863">
        <ele>1710.8</ele>
        <time>2015-03-01T11:42:43Z</time>
      </trkpt>
      <trkpt lat="46.205229163169861" lon="8.291274765506387">
        <ele>1710.8</ele>
        <time>2015-03-01T11:43:13Z</time>
      </trkpt>
      <trkpt lat="46.20525355450809" lon="8.291278956457973">
        <ele>1710.8</ele>
        <time>2015-03-01T11:43:39Z</time>
      </trkpt>
      <trkpt lat="46.20525699108839" lon="8.291293708607554">
        <ele>1710.8</ele>
        <time>2015-03-01T11:43:59Z</time>
      </trkpt>
      <trkpt lat="46.205253638327122" lon="8.291262527927756">
        <ele>1710.8</ele>
        <time>2015-03-01T11:44:23Z</time>
      </trkpt>
      <trkpt lat="46.205250704661012" lon="8.291268981993198">
        <ele>1711.28</ele>
        <time>2015-03-01T11:44:49Z</time>
      </trkpt>
      <trkpt lat="46.20524819009006" lon="8.291260013356805">
        <ele>1711.28</ele>
        <time>2015-03-01T11:45:13Z</time>
      </trkpt>
      <trkpt lat="46.205244082957506" lon="8.291276022791863">
        <ele>1710.8</ele>
        <time>2015-03-01T11:45:34Z</time>
      </trkpt>
      <trkpt lat="46.205236790701747" lon="8.291268311440945">
        <ele>1711.28</ele>
        <time>2015-03-01T11:45:54Z</time>
      </trkpt>
      <trkpt lat="46.205254392698407" lon="8.291267976164818">
        <ele>1710.8</ele>
        <time>2015-03-01T11:46:21Z</time>
      </trkpt>
      <trkpt lat="46.205241400748491" lon="8.291276693344116">
        <ele>1711.76</ele>
        <time>2015-03-01T11:46:53Z</time>
      </trkpt>
      <trkpt lat="46.205230755731463" lon="8.291268311440945">
        <ele>1711.76</ele>
        <time>2015-03-01T11:47:28Z</time>
      </trkpt>
      <trkpt lat="46.205232348293066" lon="8.29124366864562">
        <ele>1711.28</ele>
        <time>2015-03-01T11:48:05Z</time>
      </trkpt>
      <trkpt lat="46.205222709104419" lon="8.291248278692365">
        <ele>1711.28</ele>
        <time>2015-03-01T11:48:38Z</time>
      </trkpt>
      <trkpt lat="46.205231174826622" lon="8.291267808526754">
        <ele>1711.76</ele>
        <time>2015-03-01T11:49:17Z</time>
      </trkpt>
      <trkpt lat="46.205250285565853" lon="8.291277615353465">
        <ele>1711.28</ele>
        <time>2015-03-01T11:49:44Z</time>
      </trkpt>
      <trkpt lat="46.205239556729794" lon="8.291272167116404">
        <ele>1711.28</ele>
        <time>2015-03-01T11:50:10Z</time>
      </trkpt>
      <trkpt lat="46.205233857035637" lon="8.291280046105385">
        <ele>1711.76</ele>
        <time>2015-03-01T11:50:23Z</time>
      </trkpt>
      <trkpt lat="46.205218266695738" lon="8.291245931759477">
        <ele>1711.76</ele>
        <time>2015-03-01T11:50:37Z</time>
      </trkpt>
      <trkpt lat="46.205214494839311" lon="8.291230592876673">
        <ele>1711.76</ele>
        <time>2015-03-01T11:50:52Z</time>
      </trkpt>
      <trkpt lat="46.205222457647324" lon="8.291245931759477">
        <ele>1711.76</ele>
        <time>2015-03-01T11:51:05Z</time>
      </trkpt>
      <trkpt lat="46.2052340246737" lon="8.291276944801211">
        <ele>1712.25</ele>
        <time>2015-03-01T11:51:26Z</time>
      </trkpt>
      <trkpt lat="46.205231510102749" lon="8.291272250935435">
        <ele>1712.25</ele>
        <time>2015-03-01T11:51:47Z</time>
      </trkpt>
      <trkpt lat="46.205244585871696" lon="8.291301755234599">
        <ele>1712.73</ele>
        <time>2015-03-01T11:51:53Z</time>
      </trkpt>
      <trkpt lat="46.205235617235303" lon="8.291355147957802">
        <ele>1712.73</ele>
        <time>2015-03-01T11:52:09Z</time>
      </trkpt>
      <trkpt lat="46.205237461254001" lon="8.291334947571158">
        <ele>1712.73</ele>
        <time>2015-03-01T11:52:36Z</time>
      </trkpt>
      <trkpt lat="46.205229582265019" lon="8.291325224563479">
        <ele>1712.73</ele>
        <time>2015-03-01T11:52:51Z</time>
      </trkpt>
      <trkpt lat="46.205220026895404" lon="8.291350537911058">
        <ele>1712.25</ele>
        <time>2015-03-01T11:53:07Z</time>
      </trkpt>
      <trkpt lat="46.20521835051477" lon="8.291473751887679">
        <ele>1711.28</ele>
        <time>2015-03-01T11:53:19Z</time>
      </trkpt>
      <trkpt lat="46.205216757953167" lon="8.29152069054544">
        <ele>1711.28</ele>
        <time>2015-03-01T11:53:22Z</time>
      </trkpt>
      <trkpt lat="46.205222709104419" lon="8.291685478761792">
        <ele>1711.76</ele>
        <time>2015-03-01T11:53:35Z</time>
      </trkpt>
      <trkpt lat="46.20524181984365" lon="8.29185152426362">
        <ele>1710.3199999999999</ele>
        <time>2015-03-01T11:53:49Z</time>
      </trkpt>
      <trkpt lat="46.20519538410008" lon="8.291904078796506">
        <ele>1708.8800000000001</ele>
        <time>2015-03-01T11:53:56Z</time>
      </trkpt>
      <trkpt lat="46.20515045709908" lon="8.292008098214865">
        <ele>1705.52</ele>
        <time>2015-03-01T11:54:09Z</time>
      </trkpt>
      <trkpt lat="46.205156408250332" lon="8.292041625827551">
        <ele>1703.5899999999999</ele>
        <time>2015-03-01T11:54:21Z</time>
      </trkpt>
      <trkpt lat="46.205140398815274" lon="8.292023269459605">
        <ele>1703.5899999999999</ele>
        <time>2015-03-01T11:54:38Z</time>
      </trkpt>
      <trkpt lat="46.205141907557845" lon="8.29202595166862">
        <ele>1703.5899999999999</ele>
        <time>2015-03-01T11:54:50Z</time>
      </trkpt>
      <trkpt lat="46.205130591988564" lon="8.292029555886984">
        <ele>1703.1099999999999</ele>
        <time>2015-03-01T11:55:09Z</time>
      </trkpt>
      <trkpt lat="46.205126233398914" lon="8.292011199519038">
        <ele>1703.5899999999999</ele>
        <time>2015-03-01T11:55:34Z</time>
      </trkpt>
      <trkpt lat="46.205131765455008" lon="8.292003991082311">
        <ele>1703.5899999999999</ele>
        <time>2015-03-01T11:55:50Z</time>
      </trkpt>
      <trkpt lat="46.205175099894404" lon="8.292036931961775">
        <ele>1701.1900000000001</ele>
        <time>2015-03-01T11:55:58Z</time>
      </trkpt>
      <trkpt lat="46.205179877579212" lon="8.292039195075631">
        <ele>1700.71</ele>
        <time>2015-03-01T11:55:59Z</time>
      </trkpt>
      <trkpt lat="46.205263193696737" lon="8.292093928903341">
        <ele>1697.3399999999999</ele>
        <time>2015-03-01T11:56:11Z</time>
      </trkpt>
      <trkpt lat="46.205274760723114" lon="8.292116057127714">
        <ele>1696.8599999999999</ele>
        <time>2015-03-01T11:56:14Z</time>
      </trkpt>
      <trkpt lat="46.205375092104077" lon="8.292194344103336">
        <ele>1696.8599999999999</ele>
        <time>2015-03-01T11:56:28Z</time>
      </trkpt>
      <trkpt lat="46.205434519797564" lon="8.292320072650909">
        <ele>1693.98</ele>
        <time>2015-03-01T11:56:42Z</time>
      </trkpt>
      <trkpt lat="46.205408787354827" lon="8.292386792600155">
        <ele>1691.5799999999999</ele>
        <time>2015-03-01T11:56:54Z</time>
      </trkpt>
      <trkpt lat="46.205404680222273" lon="8.292445465922356">
        <ele>1690.6199999999999</ele>
        <time>2015-03-01T11:57:07Z</time>
      </trkpt>
      <trkpt lat="46.205416582524776" lon="8.292474886402488">
        <ele>1689.6500000000001</ele>
        <time>2015-03-01T11:57:09Z</time>
      </trkpt>
      <trkpt lat="46.205439968034625" lon="8.292521573603153">
        <ele>1688.6900000000001</ele>
        <time>2015-03-01T11:57:13Z</time>
      </trkpt>
      <trkpt lat="46.205371236428618" lon="8.292608242481947">
        <ele>1687.25</ele>
        <time>2015-03-01T11:57:22Z</time>
      </trkpt>
      <trkpt lat="46.205310886725783" lon="8.292515957728028">
        <ele>1685.3299999999999</ele>
        <time>2015-03-01T11:57:32Z</time>
      </trkpt>
      <trkpt lat="46.205279538407922" lon="8.292558789253235">
        <ele>1684.3699999999999</ele>
        <time>2015-03-01T11:57:37Z</time>
      </trkpt>
      <trkpt lat="46.20525062084198" lon="8.292565159499645">
        <ele>1683.4100000000001</ele>
        <time>2015-03-01T11:57:40Z</time>
      </trkpt>
      <trkpt lat="46.20519001968205" lon="8.292642273008823">
        <ele>1680.04</ele>
        <time>2015-03-01T11:57:50Z</time>
      </trkpt>
      <trkpt lat="46.205182475969195" lon="8.292648643255234">
        <ele>1679.5599999999999</ele>
        <time>2015-03-01T11:57:51Z</time>
      </trkpt>
      <trkpt lat="46.205164957791567" lon="8.292687200009823">
        <ele>1679.0799999999999</ele>
        <time>2015-03-01T11:57:54Z</time>
      </trkpt>
      <trkpt lat="46.205154648050666" lon="8.29276179894805">
        <ele>1677.1600000000001</ele>
        <time>2015-03-01T11:57:58Z</time>
      </trkpt>
      <trkpt lat="46.205168813467026" lon="8.292786693200469">
        <ele>1675.72</ele>
        <time>2015-03-01T11:58:02Z</time>
      </trkpt>
      <trkpt lat="46.205132268369198" lon="8.292818963527679">
        <ele>1673.3099999999999</ele>
        <time>2015-03-01T11:58:07Z</time>
      </trkpt>
      <trkpt lat="46.205078540369868" lon="8.292910493910313">
        <ele>1669.47</ele>
        <time>2015-03-01T11:58:18Z</time>
      </trkpt>
      <trkpt lat="46.205070912837982" lon="8.293078383430839">
        <ele>1666.5799999999999</ele>
        <time>2015-03-01T11:58:30Z</time>
      </trkpt>
      <trkpt lat="46.205101842060685" lon="8.293126747012138">
        <ele>1665.1400000000001</ele>
        <time>2015-03-01T11:58:35Z</time>
      </trkpt>
      <trkpt lat="46.205100752413273" lon="8.293174523860216">
        <ele>1664.6600000000001</ele>
        <time>2015-03-01T11:58:46Z</time>
      </trkpt>
      <trkpt lat="46.205071667209268" lon="8.293208470568061">
        <ele>1663.7</ele>
        <time>2015-03-01T11:58:59Z</time>
      </trkpt>
      <trkpt lat="46.205095471814275" lon="8.293229257687926">
        <ele>1665.1400000000001</ele>
        <time>2015-03-01T11:59:12Z</time>
      </trkpt>
      <trkpt lat="46.20516705326736" lon="8.293211571872234">
        <ele>1666.5799999999999</ele>
        <time>2015-03-01T11:59:21Z</time>
      </trkpt>
      <trkpt lat="46.2051753513515" lon="8.293267898261547">
        <ele>1666.0999999999999</ele>
        <time>2015-03-01T11:59:26Z</time>
      </trkpt>
      <trkpt lat="46.205135872587562" lon="8.293357081711292">
        <ele>1663.22</ele>
        <time>2015-03-01T11:59:38Z</time>
      </trkpt>
      <trkpt lat="46.205129334703088" lon="8.293360350653529">
        <ele>1663.22</ele>
        <time>2015-03-01T11:59:39Z</time>
      </trkpt>
      <trkpt lat="46.205081809312105" lon="8.293361607939005">
        <ele>1662.74</ele>
        <time>2015-03-01T11:59:44Z</time>
      </trkpt>
      <trkpt lat="46.204995643347502" lon="8.2932548224926">
        <ele>1663.22</ele>
        <time>2015-03-01T11:59:58Z</time>
      </trkpt>
      <trkpt lat="46.204976281151175" lon="8.293253229930997">
        <ele>1663.7</ele>
        <time>2015-03-01T12:00:01Z</time>
      </trkpt>
      <trkpt lat="46.204875949770212" lon="8.293344173580408">
        <ele>1664.1800000000001</ele>
        <time>2015-03-01T12:00:14Z</time>
      </trkpt>
      <trkpt lat="46.204850804060698" lon="8.293316932395101">
        <ele>1663.7</ele>
        <time>2015-03-01T12:00:26Z</time>
      </trkpt>
      <trkpt lat="46.204837560653687" lon="8.293342832475901">
        <ele>1664.1800000000001</ele>
        <time>2015-03-01T12:00:40Z</time>
      </trkpt>
      <trkpt lat="46.204850887879729" lon="8.293389854952693">
        <ele>1662.26</ele>
        <time>2015-03-01T12:00:52Z</time>
      </trkpt>
      <trkpt lat="46.204886259511113" lon="8.293343838304281">
        <ele>1662.26</ele>
        <time>2015-03-01T12:01:10Z</time>
      </trkpt>
      <trkpt lat="46.204846445471048" lon="8.293348951265216">
        <ele>1663.7</ele>
        <time>2015-03-01T12:01:21Z</time>
      </trkpt>
      <trkpt lat="46.204819455742836" lon="8.293357584625483">
        <ele>1662.74</ele>
        <time>2015-03-01T12:01:27Z</time>
      </trkpt>
      <trkpt lat="46.204800428822637" lon="8.293370576575398">
        <ele>1661.78</ele>
        <time>2015-03-01T12:01:29Z</time>
      </trkpt>
      <trkpt lat="46.204778635874391" lon="8.293369906023145">
        <ele>1660.8099999999999</ele>
        <time>2015-03-01T12:01:31Z</time>
      </trkpt>
      <trkpt lat="46.204697750508785" lon="8.293395806103945">
        <ele>1658.4100000000001</ele>
        <time>2015-03-01T12:01:45Z</time>
      </trkpt>
      <trkpt lat="46.204603789374232" lon="8.293455233797431">
        <ele>1656.97</ele>
        <time>2015-03-01T12:01:59Z</time>
      </trkpt>
      <trkpt lat="46.204539081081748" lon="8.293491108343005">
        <ele>1655.53</ele>
        <time>2015-03-01T12:02:09Z</time>
      </trkpt>
      <trkpt lat="46.204480491578579" lon="8.293530503287911">
        <ele>1652.6400000000001</ele>
        <time>2015-03-01T12:02:21Z</time>
      </trkpt>
      <trkpt lat="46.204458195716143" lon="8.293572496622801">
        <ele>1649.76</ele>
        <time>2015-03-01T12:02:33Z</time>
      </trkpt>
      <trkpt lat="46.204447215422988" lon="8.293593283742666">
        <ele>1648.3199999999999</ele>
        <time>2015-03-01T12:02:38Z</time>
      </trkpt>
      <trkpt lat="46.204455262050033" lon="8.293626895174384">
        <ele>1645.9100000000001</ele>
        <time>2015-03-01T12:02:50Z</time>
      </trkpt>
      <trkpt lat="46.204486861824989" lon="8.293642485514283">
        <ele>1644.47</ele>
        <time>2015-03-01T12:03:05Z</time>
      </trkpt>
      <trkpt lat="46.20451083406806" lon="8.293681126087904">
        <ele>1643.03</ele>
        <time>2015-03-01T12:03:20Z</time>
      </trkpt>
      <trkpt lat="46.204574117437005" lon="8.29372881911695">
        <ele>1641.1099999999999</ele>
        <time>2015-03-01T12:03:37Z</time>
      </trkpt>
      <trkpt lat="46.20454017072916" lon="8.293775003403425">
        <ele>1638.7</ele>
        <time>2015-03-01T12:03:50Z</time>
      </trkpt>
      <trkpt lat="46.20446146465838" lon="8.293743319809437">
        <ele>1637.74</ele>
        <time>2015-03-01T12:04:02Z</time>
      </trkpt>
      <trkpt lat="46.204450568184257" lon="8.293733093887568">
        <ele>1638.22</ele>
        <time>2015-03-01T12:04:16Z</time>
      </trkpt>
      <trkpt lat="46.204427015036345" lon="8.293811799958348">
        <ele>1636.78</ele>
        <time>2015-03-01T12:04:30Z</time>
      </trkpt>
      <trkpt lat="46.204460877925158" lon="8.293852536007762">
        <ele>1635.8199999999999</ele>
        <time>2015-03-01T12:04:42Z</time>
      </trkpt>
      <trkpt lat="46.204529693350196" lon="8.293795371428132">
        <ele>1634.3800000000001</ele>
        <time>2015-03-01T12:05:02Z</time>
      </trkpt>
      <trkpt lat="46.204506056383252" lon="8.293819930404425">
        <ele>1632.46</ele>
        <time>2015-03-01T12:05:15Z</time>
      </trkpt>
      <trkpt lat="46.204509576782584" lon="8.293922189623117">
        <ele>1630.05</ele>
        <time>2015-03-01T12:05:33Z</time>
      </trkpt>
      <trkpt lat="46.204488454386592" lon="8.293907688930631">
        <ele>1630.05</ele>
        <time>2015-03-01T12:05:47Z</time>
      </trkpt>
      <trkpt lat="46.204440174624324" lon="8.293978599831462">
        <ele>1629.0899999999999</ele>
        <time>2015-03-01T12:05:59Z</time>
      </trkpt>
      <trkpt lat="46.204402456060052" lon="8.294004080817103">
        <ele>1627.1700000000001</ele>
        <time>2015-03-01T12:06:10Z</time>
      </trkpt>
      <trkpt lat="46.204442605376244" lon="8.293974408879876">
        <ele>1625.25</ele>
        <time>2015-03-01T12:06:24Z</time>
      </trkpt>
      <trkpt lat="46.204460626468062" lon="8.293937528505921">
        <ele>1625.25</ele>
        <time>2015-03-01T12:06:39Z</time>
      </trkpt>
      <trkpt lat="46.20448200032115" lon="8.293943395838141">
        <ele>1625.25</ele>
        <time>2015-03-01T12:06:57Z</time>
      </trkpt>
      <trkpt lat="46.204494405537844" lon="8.293999973684549">
        <ele>1623.8</ele>
        <time>2015-03-01T12:07:14Z</time>
      </trkpt>
      <trkpt lat="46.204517120495439" lon="8.294094437733293">
        <ele>1622.3599999999999</ele>
        <time>2015-03-01T12:07:30Z</time>
      </trkpt>
      <trkpt lat="46.204546457156539" lon="8.294124780222774">
        <ele>1620.9200000000001</ele>
        <time>2015-03-01T12:07:44Z</time>
      </trkpt>
      <trkpt lat="46.204501949250698" lon="8.294181609526277">
        <ele>1618.52</ele>
        <time>2015-03-01T12:07:58Z</time>
      </trkpt>
      <trkpt lat="46.204460207372904" lon="8.294108184054494">
        <ele>1619</ele>
        <time>2015-03-01T12:08:28Z</time>
      </trkpt>
      <trkpt lat="46.204431373625994" lon="8.294219747185707">
        <ele>1619</ele>
        <time>2015-03-01T12:08:55Z</time>
      </trkpt>
      <trkpt lat="46.204431876540184" lon="8.294221004471183">
        <ele>1618.52</ele>
        <time>2015-03-01T12:09:02Z</time>
      </trkpt>
      <trkpt lat="46.204423997551203" lon="8.294287640601397">
        <ele>1616.1099999999999</ele>
        <time>2015-03-01T12:09:14Z</time>
      </trkpt>
      <trkpt lat="46.204443778842688" lon="8.294269451871514">
        <ele>1614.6700000000001</ele>
        <time>2015-03-01T12:09:30Z</time>
      </trkpt>
      <trkpt lat="46.204437576234341" lon="8.294261572882533">
        <ele>1613.71</ele>
        <time>2015-03-01T12:09:43Z</time>
      </trkpt>
      <trkpt lat="46.204382423311472" lon="8.294316725805402">
        <ele>1611.79</ele>
        <time>2015-03-01T12:09:54Z</time>
      </trkpt>
      <trkpt lat="46.20438183657825" lon="8.294366849586368">
        <ele>1608.4200000000001</ele>
        <time>2015-03-01T12:10:06Z</time>
      </trkpt>
      <trkpt lat="46.204415028914809" lon="8.294411944225431">
        <ele>1605.0599999999999</ele>
        <time>2015-03-01T12:10:18Z</time>
      </trkpt>
      <trkpt lat="46.204450400546193" lon="8.294438598677516">
        <ele>1602.6600000000001</ele>
        <time>2015-03-01T12:10:34Z</time>
      </trkpt>
      <trkpt lat="46.2044742051512" lon="8.2944031432271">
        <ele>1601.21</ele>
        <time>2015-03-01T12:10:50Z</time>
      </trkpt>
      <trkpt lat="46.204364988952875" lon="8.294482184574008">
        <ele>1599.29</ele>
        <time>2015-03-01T12:11:01Z</time>
      </trkpt>
      <trkpt lat="46.204325342550874" lon="8.29453356564045">
        <ele>1597.3699999999999</ele>
        <time>2015-03-01T12:11:14Z</time>
      </trkpt>
      <trkpt lat="46.204323079437017" lon="8.294533314183354">
        <ele>1597.3699999999999</ele>
        <time>2015-03-01T12:11:15Z</time>
      </trkpt>
      <trkpt lat="46.204285193234682" lon="8.29448763281107">
        <ele>1597.8499999999999</ele>
        <time>2015-03-01T12:11:27Z</time>
      </trkpt>
      <trkpt lat="46.204339256510139" lon="8.294454859569669">
        <ele>1597.8499999999999</ele>
        <time>2015-03-01T12:11:48Z</time>
      </trkpt>
      <trkpt lat="46.204361971467733" lon="8.294569440186024">
        <ele>1597.8499999999999</ele>
        <time>2015-03-01T12:12:20Z</time>
      </trkpt>
      <trkpt lat="46.204251497983932" lon="8.294635070487857">
        <ele>1598.8099999999999</ele>
        <time>2015-03-01T12:12:54Z</time>
      </trkpt>
      <trkpt lat="46.204275721684098" lon="8.294521411880851">
        <ele>1599.29</ele>
        <time>2015-03-01T12:13:03Z</time>
      </trkpt>
      <trkpt lat="46.204303968697786" lon="8.294610846787691">
        <ele>1598.8099999999999</ele>
        <time>2015-03-01T12:13:25Z</time>
      </trkpt>
      <trkpt lat="46.204333892092109" lon="8.294599950313568">
        <ele>1599.29</ele>
        <time>2015-03-01T12:13:50Z</time>
      </trkpt>
      <trkpt lat="46.20431394316256" lon="8.294597268104553">
        <ele>1599.77</ele>
        <time>2015-03-01T12:14:18Z</time>
      </trkpt>
      <trkpt lat="46.204343615099788" lon="8.294522166252136">
        <ele>1599.77</ele>
        <time>2015-03-01T12:14:46Z</time>
      </trkpt>
      <trkpt lat="46.204356690868735" lon="8.294493919238448">
        <ele>1599.77</ele>
        <time>2015-03-01T12:15:25Z</time>
      </trkpt>
      <trkpt lat="46.204385692253709" lon="8.294420912861824">
        <ele>1599.77</ele>
        <time>2015-03-01T12:15:51Z</time>
      </trkpt>
      <trkpt lat="46.204372365027666" lon="8.294387552887201">
        <ele>1599.77</ele>
        <time>2015-03-01T12:16:15Z</time>
      </trkpt>
      <trkpt lat="46.204405976459384" lon="8.294419990852475">
        <ele>1599.77</ele>
        <time>2015-03-01T12:16:42Z</time>
      </trkpt>
      <trkpt lat="46.204361720010638" lon="8.29444756731391">
        <ele>1600.25</ele>
        <time>2015-03-01T12:17:15Z</time>
      </trkpt>
      <trkpt lat="46.204340681433678" lon="8.29446760006249">
        <ele>1599.29</ele>
        <time>2015-03-01T12:17:31Z</time>
      </trkpt>
      <trkpt lat="46.204367838799953" lon="8.294443544000387">
        <ele>1599.29</ele>
        <time>2015-03-01T12:17:53Z</time>
      </trkpt>
      <trkpt lat="46.204376891255379" lon="8.294445890933275">
        <ele>1599.77</ele>
        <time>2015-03-01T12:18:20Z</time>
      </trkpt>
      <trkpt lat="46.204363144934177" lon="8.294465504586697">
        <ele>1599.77</ele>
        <time>2015-03-01T12:18:43Z</time>
      </trkpt>
      <trkpt lat="46.204266585409641" lon="8.2945292070508">
        <ele>1598.3299999999999</ele>
        <time>2015-03-01T12:18:57Z</time>
      </trkpt>
      <trkpt lat="46.204225094988942" lon="8.294540774077177">
        <ele>1596.8900000000001</ele>
        <time>2015-03-01T12:19:10Z</time>
      </trkpt>
      <trkpt lat="46.204173965379596" lon="8.294566925615072">
        <ele>1595.9300000000001</ele>
        <time>2015-03-01T12:19:23Z</time>
      </trkpt>
      <trkpt lat="46.204139431938529" lon="8.29460539855063">
        <ele>1593.04</ele>
        <time>2015-03-01T12:19:37Z</time>
      </trkpt>
      <trkpt lat="46.204114370048046" lon="8.294655606150627">
        <ele>1590.6400000000001</ele>
        <time>2015-03-01T12:19:49Z</time>
      </trkpt>
      <trkpt lat="46.204112358391285" lon="8.294650409370661">
        <ele>1590.6400000000001</ele>
        <time>2015-03-01T12:19:50Z</time>
      </trkpt>
      <trkpt lat="46.204095929861069" lon="8.294675219804049">
        <ele>1588.72</ele>
        <time>2015-03-01T12:20:00Z</time>
      </trkpt>
      <trkpt lat="46.204077992588282" lon="8.294693073257804">
        <ele>1586.3099999999999</ele>
        <time>2015-03-01T12:20:10Z</time>
      </trkpt>
      <trkpt lat="46.204025186598301" lon="8.294748896732926">
        <ele>1583.4300000000001</ele>
        <time>2015-03-01T12:20:22Z</time>
      </trkpt>
      <trkpt lat="46.204028874635696" lon="8.294791309162974">
        <ele>1581.51</ele>
        <time>2015-03-01T12:20:32Z</time>
      </trkpt>
      <trkpt lat="46.204061731696129" lon="8.294793153181672">
        <ele>1581.51</ele>
        <time>2015-03-01T12:20:48Z</time>
      </trkpt>
      <trkpt lat="46.204125266522169" lon="8.294781418517232">
        <ele>1579.5799999999999</ele>
        <time>2015-03-01T12:21:05Z</time>
      </trkpt>
      <trkpt lat="46.204122668132186" lon="8.294797595590353">
        <ele>1579.0999999999999</ele>
        <time>2015-03-01T12:21:20Z</time>
      </trkpt>
      <trkpt lat="46.204144712537527" lon="8.29478426836431">
        <ele>1577.1800000000001</ele>
        <time>2015-03-01T12:21:35Z</time>
      </trkpt>
      <trkpt lat="46.204080255702138" lon="8.294729199260473">
        <ele>1578.1400000000001</ele>
        <time>2015-03-01T12:21:50Z</time>
      </trkpt>
      <trkpt lat="46.204105317592621" lon="8.294751914218068">
        <ele>1579.5799999999999</ele>
        <time>2015-03-01T12:22:09Z</time>
      </trkpt>
      <trkpt lat="46.204104563221335" lon="8.294781837612391">
        <ele>1579.5799999999999</ele>
        <time>2015-03-01T12:22:26Z</time>
      </trkpt>
      <trkpt lat="46.204080674797297" lon="8.294814862310886">
        <ele>1577.1800000000001</ele>
        <time>2015-03-01T12:22:42Z</time>
      </trkpt>
      <trkpt lat="46.204109257087111" lon="8.294840091839433">
        <ele>1576.22</ele>
        <time>2015-03-01T12:22:57Z</time>
      </trkpt>
      <trkpt lat="46.204123087227345" lon="8.294853251427412">
        <ele>1575.26</ele>
        <time>2015-03-01T12:23:12Z</time>
      </trkpt>
      <trkpt lat="46.204130379483104" lon="8.294851072132587">
        <ele>1574.3</ele>
        <time>2015-03-01T12:23:27Z</time>
      </trkpt>
      <trkpt lat="46.204146556556225" lon="8.294889545068145">
        <ele>1572.8499999999999</ele>
        <time>2015-03-01T12:23:41Z</time>
      </trkpt>
      <trkpt lat="46.204105066135526" lon="8.294976884499192">
        <ele>1570.45</ele>
        <time>2015-03-01T12:23:56Z</time>
      </trkpt>
      <trkpt lat="46.204158123582602" lon="8.295029606670141">
        <ele>1567.5699999999999</ele>
        <time>2015-03-01T12:24:12Z</time>
      </trkpt>
      <trkpt lat="46.204220904037356" lon="8.295000102370977">
        <ele>1564.6800000000001</ele>
        <time>2015-03-01T12:24:27Z</time>
      </trkpt>
      <trkpt lat="46.204286450520158" lon="8.295001862570643">
        <ele>1561.8</ele>
        <time>2015-03-01T12:24:44Z</time>
      </trkpt>
      <trkpt lat="46.204340262338519" lon="8.295020721852779">
        <ele>1560.3599999999999</ele>
        <time>2015-03-01T12:24:58Z</time>
      </trkpt>
      <trkpt lat="46.204343950375915" lon="8.29510529525578">
        <ele>1559.8800000000001</ele>
        <time>2015-03-01T12:25:18Z</time>
      </trkpt>
      <trkpt lat="46.204379154369235" lon="8.295162711292505">
        <ele>1556.51</ele>
        <time>2015-03-01T12:25:30Z</time>
      </trkpt>
      <trkpt lat="46.204357026144862" lon="8.295234041288495">
        <ele>1553.1500000000001</ele>
        <time>2015-03-01T12:25:42Z</time>
      </trkpt>
      <trkpt lat="46.204379824921489" lon="8.295204034075141">
        <ele>1551.71</ele>
        <time>2015-03-01T12:25:59Z</time>
      </trkpt>
      <trkpt lat="46.204371526837349" lon="8.295211410149932">
        <ele>1551.71</ele>
        <time>2015-03-01T12:26:20Z</time>
      </trkpt>
      <trkpt lat="46.204396840184927" lon="8.295229682698846">
        <ele>1551.71</ele>
        <time>2015-03-01T12:26:35Z</time>
      </trkpt>
      <trkpt lat="46.204389799386263" lon="8.295187437906861">
        <ele>1551.71</ele>
        <time>2015-03-01T12:26:58Z</time>
      </trkpt>
      <trkpt lat="46.204384602606297" lon="8.295236136764288">
        <ele>1551.71</ele>
        <time>2015-03-01T12:27:13Z</time>
      </trkpt>
      <trkpt lat="46.204405808821321" lon="8.295225910842419">
        <ele>1551.71</ele>
        <time>2015-03-01T12:27:38Z</time>
      </trkpt>
      <trkpt lat="46.204391056671739" lon="8.295204620808363">
        <ele>1552.1900000000001</ele>
        <time>2015-03-01T12:28:04Z</time>
      </trkpt>
      <trkpt lat="46.204381166025996" lon="8.295237394049764">
        <ele>1552.1900000000001</ele>
        <time>2015-03-01T12:28:34Z</time>
      </trkpt>
      <trkpt lat="46.204380244016647" lon="8.295238232240081">
        <ele>1552.6700000000001</ele>
        <time>2015-03-01T12:28:58Z</time>
      </trkpt>
      <trkpt lat="46.204379489645362" lon="8.295228341594338">
        <ele>1552.6700000000001</ele>
        <time>2015-03-01T12:29:27Z</time>
      </trkpt>
      <trkpt lat="46.20437647216022" lon="8.295214092358947">
        <ele>1552.1900000000001</ele>
        <time>2015-03-01T12:29:52Z</time>
      </trkpt>
      <trkpt lat="46.204368844628334" lon="8.295235214754939">
        <ele>1552.1900000000001</ele>
        <time>2015-03-01T12:30:16Z</time>
      </trkpt>
      <trkpt lat="46.20433833450079" lon="8.295214595273137">
        <ele>1552.1900000000001</ele>
        <time>2015-03-01T12:30:39Z</time>
      </trkpt>
      <trkpt lat="46.204329701140523" lon="8.295250134542584">
        <ele>1552.6700000000001</ele>
        <time>2015-03-01T12:31:04Z</time>
      </trkpt>
      <trkpt lat="46.204318888485432" lon="8.295189952477813">
        <ele>1552.6700000000001</ele>
        <time>2015-03-01T12:31:28Z</time>
      </trkpt>
      <trkpt lat="46.204343196004629" lon="8.295165309682488">
        <ele>1552.6700000000001</ele>
        <time>2015-03-01T12:31:57Z</time>
      </trkpt>
      <trkpt lat="46.204346045851707" lon="8.295184336602688">
        <ele>1552.6700000000001</ele>
        <time>2015-03-01T12:32:22Z</time>
      </trkpt>
      <trkpt lat="46.20433397591114" lon="8.295193640515208">
        <ele>1552.6700000000001</ele>
        <time>2015-03-01T12:32:44Z</time>
      </trkpt>
      <trkpt lat="46.20435937307775" lon="8.295186180621386">
        <ele>1552.1900000000001</ele>
        <time>2015-03-01T12:33:07Z</time>
      </trkpt>
      <trkpt lat="46.204351158812642" lon="8.295188192278147">
        <ele>1552.1900000000001</ele>
        <time>2015-03-01T12:33:33Z</time>
      </trkpt>
      <trkpt lat="46.2043412681669" lon="8.295181654393673">
        <ele>1552.1900000000001</ele>
        <time>2015-03-01T12:33:57Z</time>
      </trkpt>
      <trkpt lat="46.204346716403961" lon="8.295184168964624">
        <ele>1552.6700000000001</ele>
        <time>2015-03-01T12:34:19Z</time>
      </trkpt>
      <trkpt lat="46.204324923455715" lon="8.295203447341919">
        <ele>1552.6700000000001</ele>
        <time>2015-03-01T12:34:45Z</time>
      </trkpt>
      <trkpt lat="46.204330455511808" lon="8.295219708234072">
        <ele>1552.6700000000001</ele>
        <time>2015-03-01T12:35:09Z</time>
      </trkpt>
      <trkpt lat="46.204353170469403" lon="8.295152401551604">
        <ele>1552.6700000000001</ele>
        <time>2015-03-01T12:35:32Z</time>
      </trkpt>
      <trkpt lat="46.204345710575581" lon="8.295176541432738">
        <ele>1553.1500000000001</ele>
        <time>2015-03-01T12:36:00Z</time>
      </trkpt>
      <trkpt lat="46.204343698918819" lon="8.29527092166245">
        <ele>1553.1500000000001</ele>
        <time>2015-03-01T12:36:25Z</time>
      </trkpt>
      <trkpt lat="46.204378567636013" lon="8.29522205516696">
        <ele>1553.1500000000001</ele>
        <time>2015-03-01T12:36:52Z</time>
      </trkpt>
      <trkpt lat="46.204337915405631" lon="8.295155921950936">
        <ele>1553.1500000000001</ele>
        <time>2015-03-01T12:37:15Z</time>
      </trkpt>
      <trkpt lat="46.204330287873745" lon="8.295165309682488">
        <ele>1553.6300000000001</ele>
        <time>2015-03-01T12:37:47Z</time>
      </trkpt>
      <trkpt lat="46.204347303137183" lon="8.295181067660451">
        <ele>1553.6300000000001</ele>
        <time>2015-03-01T12:38:11Z</time>
      </trkpt>
      <trkpt lat="46.204382088035345" lon="8.295218534767628">
        <ele>1553.6300000000001</ele>
        <time>2015-03-01T12:38:35Z</time>
      </trkpt>
      <trkpt lat="46.204352835193276" lon="8.295200429856777">
        <ele>1553.6300000000001</ele>
        <time>2015-03-01T12:39:06Z</time>
      </trkpt>
      <trkpt lat="46.204341351985931" lon="8.2951819896698">
        <ele>1553.1500000000001</ele>
        <time>2015-03-01T12:39:26Z</time>
      </trkpt>
      <trkpt lat="46.204344788566232" lon="8.295203531160951">
        <ele>1553.6300000000001</ele>
        <time>2015-03-01T12:39:44Z</time>
      </trkpt>
      <trkpt lat="46.20433053933084" lon="8.295191125944257">
        <ele>1553.6300000000001</ele>
        <time>2015-03-01T12:40:10Z</time>
      </trkpt>
      <trkpt lat="46.204317547380924" lon="8.295187605544925">
        <ele>1553.6300000000001</ele>
        <time>2015-03-01T12:40:33Z</time>
      </trkpt>
      <trkpt lat="46.204288126900792" lon="8.295204034075141">
        <ele>1553.6300000000001</ele>
        <time>2015-03-01T12:40:56Z</time>
      </trkpt>
      <trkpt lat="46.204272285103798" lon="8.295229431241751">
        <ele>1554.1099999999999</ele>
        <time>2015-03-01T12:41:19Z</time>
      </trkpt>
      <trkpt lat="46.204318385571241" lon="8.295251643285155">
        <ele>1554.5899999999999</ele>
        <time>2015-03-01T12:41:51Z</time>
      </trkpt>
      <trkpt lat="46.204352667555213" lon="8.295287014916539">
        <ele>1554.5899999999999</ele>
        <time>2015-03-01T12:42:13Z</time>
      </trkpt>
      <trkpt lat="46.204327186569571" lon="8.295270083472133">
        <ele>1554.1099999999999</ele>
        <time>2015-03-01T12:42:25Z</time>
      </trkpt>
      <trkpt lat="46.204336574301124" lon="8.295327164232731">
        <ele>1554.1099999999999</ele>
        <time>2015-03-01T12:42:44Z</time>
      </trkpt>
      <trkpt lat="46.2043188046664" lon="8.295324482023716">
        <ele>1555.0699999999999</ele>
        <time>2015-03-01T12:42:55Z</time>
      </trkpt>
      <trkpt lat="46.204294078052044" lon="8.295258097350597">
        <ele>1555.0699999999999</ele>
        <time>2015-03-01T12:43:17Z</time>
      </trkpt>
      <trkpt lat="46.204299442470074" lon="8.295195316895843">
        <ele>1555.55</ele>
        <time>2015-03-01T12:43:37Z</time>
      </trkpt>
      <trkpt lat="46.204299107193947" lon="8.295210739597678">
        <ele>1555.55</ele>
        <time>2015-03-01T12:44:02Z</time>
      </trkpt>
      <trkpt lat="46.204269519075751" lon="8.295287014916539">
        <ele>1555.55</ele>
        <time>2015-03-01T12:44:34Z</time>
      </trkpt>
      <trkpt lat="46.204339424148202" lon="8.295252565294504">
        <ele>1556.03</ele>
        <time>2015-03-01T12:45:11Z</time>
      </trkpt>
      <trkpt lat="46.204312182962894" lon="8.295233706012368">
        <ele>1556.51</ele>
        <time>2015-03-01T12:45:29Z</time>
      </trkpt>
      <trkpt lat="46.204310841858387" lon="8.295250134542584">
        <ele>1556.51</ele>
        <time>2015-03-01T12:45:51Z</time>
      </trkpt>
      <trkpt lat="46.204357445240021" lon="8.295219875872135">
        <ele>1556.99</ele>
        <time>2015-03-01T12:46:19Z</time>
      </trkpt>
      <trkpt lat="46.204436905682087" lon="8.295278549194336">
        <ele>1556.51</ele>
        <time>2015-03-01T12:46:43Z</time>
      </trkpt>
      <trkpt lat="46.204411676153541" lon="8.295228844508529">
        <ele>1556.99</ele>
        <time>2015-03-01T12:47:10Z</time>
      </trkpt>
      <trkpt lat="46.204373454675078" lon="8.295224821195006">
        <ele>1556.99</ele>
        <time>2015-03-01T12:47:33Z</time>
      </trkpt>
      <trkpt lat="46.204343782737851" lon="8.295179307460785">
        <ele>1556.99</ele>
        <time>2015-03-01T12:48:02Z</time>
      </trkpt>
      <trkpt lat="46.204309333115816" lon="8.295345269143581">
        <ele>1557.47</ele>
        <time>2015-03-01T12:48:29Z</time>
      </trkpt>
      <trkpt lat="46.204355349764228" lon="8.295250134542584">
        <ele>1557.47</ele>
        <time>2015-03-01T12:48:54Z</time>
      </trkpt>
      <trkpt lat="46.20434956625104" lon="8.295274106785655">
        <ele>1557.47</ele>
        <time>2015-03-01T12:49:20Z</time>
      </trkpt>
      <trkpt lat="46.204318637028337" lon="8.295331103727222">
        <ele>1557.95</ele>
        <time>2015-03-01T12:49:45Z</time>
      </trkpt>
      <trkpt lat="46.204328192397952" lon="8.295275112614036">
        <ele>1557.95</ele>
        <time>2015-03-01T12:50:06Z</time>
      </trkpt>
      <trkpt lat="46.204347051680088" lon="8.295380221679807">
        <ele>1557.95</ele>
        <time>2015-03-01T12:50:25Z</time>
      </trkpt>
      <trkpt lat="46.204331712797284" lon="8.295385837554932">
        <ele>1557.95</ele>
        <time>2015-03-01T12:50:41Z</time>
      </trkpt>
      <trkpt lat="46.204395834356546" lon="8.295406205579639">
        <ele>1554.5899999999999</ele>
        <time>2015-03-01T12:50:52Z</time>
      </trkpt>
      <trkpt lat="46.20440430007875" lon="8.295428417623043">
        <ele>1551.22</ele>
        <time>2015-03-01T12:51:04Z</time>
      </trkpt>
      <trkpt lat="46.20443313382566" lon="8.29544392414391">
        <ele>1548.8199999999999</ele>
        <time>2015-03-01T12:51:10Z</time>
      </trkpt>
      <trkpt lat="46.204494321718812" lon="8.295448115095496">
        <ele>1545.9400000000001</ele>
        <time>2015-03-01T12:51:22Z</time>
      </trkpt>
      <trkpt lat="46.20454603806138" lon="8.2954668905586">
        <ele>1542.0899999999999</ele>
        <time>2015-03-01T12:51:32Z</time>
      </trkpt>
      <trkpt lat="46.204558778554201" lon="8.295473512262106">
        <ele>1541.1300000000001</ele>
        <time>2015-03-01T12:51:34Z</time>
      </trkpt>
      <trkpt lat="46.204541008919477" lon="8.295548111200333">
        <ele>1538.73</ele>
        <time>2015-03-01T12:51:46Z</time>
      </trkpt>
      <trkpt lat="46.204600352793932" lon="8.295621871948242">
        <ele>1535.8399999999999</ele>
        <time>2015-03-01T12:51:55Z</time>
      </trkpt>
      <trkpt lat="46.204631701111794" lon="8.295652298256755">
        <ele>1532.48</ele>
        <time>2015-03-01T12:52:02Z</time>
      </trkpt>
      <trkpt lat="46.204661121591926" lon="8.295636791735888">
        <ele>1531.04</ele>
        <time>2015-03-01T12:52:25Z</time>
      </trkpt>
      <trkpt lat="46.204678807407618" lon="8.295536376535893">
        <ele>1531.04</ele>
        <time>2015-03-01T12:52:48Z</time>
      </trkpt>
      <trkpt lat="46.204681405797601" lon="8.295644083991647">
        <ele>1530.0799999999999</ele>
        <time>2015-03-01T12:53:12Z</time>
      </trkpt>
      <trkpt lat="46.204706048592925" lon="8.295723628252745">
        <ele>1527.1900000000001</ele>
        <time>2015-03-01T12:53:21Z</time>
      </trkpt>
      <trkpt lat="46.204776959493756" lon="8.295786827802658">
        <ele>1523.8299999999999</ele>
        <time>2015-03-01T12:53:34Z</time>
      </trkpt>
      <trkpt lat="46.204878212884068" lon="8.295785570517182">
        <ele>1520.46</ele>
        <time>2015-03-01T12:53:47Z</time>
      </trkpt>
      <trkpt lat="46.204910483211279" lon="8.295836197212338">
        <ele>1517.5799999999999</ele>
        <time>2015-03-01T12:53:58Z</time>
      </trkpt>
      <trkpt lat="46.204955829307437" lon="8.295883638784289">
        <ele>1514.21</ele>
        <time>2015-03-01T12:54:11Z</time>
      </trkpt>
      <trkpt lat="46.205002684146166" lon="8.295914148911834">
        <ele>1511.3299999999999</ele>
        <time>2015-03-01T12:54:21Z</time>
      </trkpt>
      <trkpt lat="46.205078037455678" lon="8.295966284349561">
        <ele>1507.97</ele>
        <time>2015-03-01T12:54:36Z</time>
      </trkpt>
      <trkpt lat="46.205115169286728" lon="8.296024287119508">
        <ele>1505.0799999999999</ele>
        <time>2015-03-01T12:54:47Z</time>
      </trkpt>
      <trkpt lat="46.205209884792566" lon="8.296035435050726">
        <ele>1503.1600000000001</ele>
        <time>2015-03-01T12:55:03Z</time>
      </trkpt>
      <trkpt lat="46.205283896997571" lon="8.296102741733193">
        <ele>1500.27</ele>
        <time>2015-03-01T12:55:13Z</time>
      </trkpt>
      <trkpt lat="46.205332009121776" lon="8.296109363436699">
        <ele>1497.3900000000001</ele>
        <time>2015-03-01T12:55:26Z</time>
      </trkpt>
      <trkpt lat="46.205376014113426" lon="8.296131072565913">
        <ele>1494.03</ele>
        <time>2015-03-01T12:55:36Z</time>
      </trkpt>
      <trkpt lat="46.205458575859666" lon="8.296132078394294">
        <ele>1493.55</ele>
        <time>2015-03-01T12:55:50Z</time>
      </trkpt>
      <trkpt lat="46.205429658293724" lon="8.29608304426074">
        <ele>1493.55</ele>
        <time>2015-03-01T12:56:10Z</time>
      </trkpt>
      <trkpt lat="46.205410631373525" lon="8.296063849702478">
        <ele>1493.55</ele>
        <time>2015-03-01T12:56:36Z</time>
      </trkpt>
      <trkpt lat="46.205396130681038" lon="8.29606544226408">
        <ele>1493.0599999999999</ele>
        <time>2015-03-01T12:57:00Z</time>
      </trkpt>
      <trkpt lat="46.205546669661999" lon="8.296183375641704">
        <ele>1489.7</ele>
        <time>2015-03-01T12:57:14Z</time>
      </trkpt>
      <trkpt lat="46.205560499802232" lon="8.29618857242167">
        <ele>1489.7</ele>
        <time>2015-03-01T12:57:15Z</time>
      </trkpt>
      <trkpt lat="46.205696202814579" lon="8.296172646805644">
        <ele>1487.78</ele>
        <time>2015-03-01T12:57:30Z</time>
      </trkpt>
      <trkpt lat="46.205825032666326" lon="8.296240204945207">
        <ele>1484.4100000000001</ele>
        <time>2015-03-01T12:57:45Z</time>
      </trkpt>
      <trkpt lat="46.20591027662158" lon="8.296324526891112">
        <ele>1481.05</ele>
        <time>2015-03-01T12:57:55Z</time>
      </trkpt>
      <trkpt lat="46.205969452857971" lon="8.296396695077419">
        <ele>1478.1600000000001</ele>
        <time>2015-03-01T12:58:07Z</time>
      </trkpt>
      <trkpt lat="46.205945564433932" lon="8.296371717005968">
        <ele>1478.1600000000001</ele>
        <time>2015-03-01T12:58:20Z</time>
      </trkpt>
      <trkpt lat="46.206030221655965" lon="8.296401053667069">
        <ele>1477.2</ele>
        <time>2015-03-01T12:58:34Z</time>
      </trkpt>
      <trkpt lat="46.206159889698029" lon="8.296519322320819">
        <ele>1473.8399999999999</ele>
        <time>2015-03-01T12:58:50Z</time>
      </trkpt>
      <trkpt lat="46.206265250220895" lon="8.296585036441684">
        <ele>1471.9200000000001</ele>
        <time>2015-03-01T12:59:06Z</time>
      </trkpt>
      <trkpt lat="46.206383937969804" lon="8.296657288447022">
        <ele>1469.51</ele>
        <time>2015-03-01T12:59:18Z</time>
      </trkpt>
      <trkpt lat="46.206446886062622" lon="8.296754686161876">
        <ele>1466.6300000000001</ele>
        <time>2015-03-01T12:59:31Z</time>
      </trkpt>
      <trkpt lat="46.206468092277646" lon="8.296814113855362">
        <ele>1463.26</ele>
        <time>2015-03-01T12:59:43Z</time>
      </trkpt>
      <trkpt lat="46.206396510824561" lon="8.296909248456359">
        <ele>1459.9000000000001</ele>
        <time>2015-03-01T12:59:55Z</time>
      </trkpt>
      <trkpt lat="46.206320989876986" lon="8.296945039182901">
        <ele>1457.5</ele>
        <time>2015-03-01T13:00:07Z</time>
      </trkpt>
      <trkpt lat="46.206342447549105" lon="8.297037743031979">
        <ele>1454.6099999999999</ele>
        <time>2015-03-01T13:00:15Z</time>
      </trkpt>
      <trkpt lat="46.206350410357118" lon="8.297084681689739">
        <ele>1453.1700000000001</ele>
        <time>2015-03-01T13:00:19Z</time>
      </trkpt>
      <trkpt lat="46.206283690407872" lon="8.297169674187899">
        <ele>1452.6900000000001</ele>
        <time>2015-03-01T13:00:32Z</time>
      </trkpt>
      <trkpt lat="46.206250665709376" lon="8.297215774655342">
        <ele>1449.8099999999999</ele>
        <time>2015-03-01T13:00:37Z</time>
      </trkpt>
      <trkpt lat="46.206136336550117" lon="8.297308227047324">
        <ele>1448.3599999999999</ele>
        <time>2015-03-01T13:00:50Z</time>
      </trkpt>
      <trkpt lat="46.206131307408214" lon="8.297392465174198">
        <ele>1445</ele>
        <time>2015-03-01T13:01:02Z</time>
      </trkpt>
      <trkpt lat="46.206145389005542" lon="8.297459939494729">
        <ele>1442.1099999999999</ele>
        <time>2015-03-01T13:01:11Z</time>
      </trkpt>
      <trkpt lat="46.20615360327065" lon="8.297499921172857">
        <ele>1441.1500000000001</ele>
        <time>2015-03-01T13:01:22Z</time>
      </trkpt>
      <trkpt lat="46.206157207489014" lon="8.297611819580197">
        <ele>1439.23</ele>
        <time>2015-03-01T13:01:42Z</time>
      </trkpt>
      <trkpt lat="46.206167014315724" lon="8.297606958076358">
        <ele>1438.75</ele>
        <time>2015-03-01T13:01:48Z</time>
      </trkpt>
      <trkpt lat="46.20621076785028" lon="8.297697566449642">
        <ele>1437.79</ele>
        <time>2015-03-01T13:02:00Z</time>
      </trkpt>
      <trkpt lat="46.206306656822562" lon="8.29773411154747">
        <ele>1437.3099999999999</ele>
        <time>2015-03-01T13:02:13Z</time>
      </trkpt>
      <trkpt lat="46.206360552459955" lon="8.297747857868671">
        <ele>1435.8699999999999</ele>
        <time>2015-03-01T13:02:24Z</time>
      </trkpt>
      <trkpt lat="46.206366000697017" lon="8.297746013849974">
        <ele>1434.4200000000001</ele>
        <time>2015-03-01T13:02:31Z</time>
      </trkpt>
      <trkpt lat="46.206372287124395" lon="8.297765795141459">
        <ele>1435.3900000000001</ele>
        <time>2015-03-01T13:02:53Z</time>
      </trkpt>
      <trkpt lat="46.206325767561793" lon="8.297755736857653">
        <ele>1435.3900000000001</ele>
        <time>2015-03-01T13:03:18Z</time>
      </trkpt>
      <trkpt lat="46.20634563267231" lon="8.297753725200892">
        <ele>1434.4200000000001</ele>
        <time>2015-03-01T13:03:30Z</time>
      </trkpt>
      <trkpt lat="46.206336747854948" lon="8.297780463472009">
        <ele>1435.3900000000001</ele>
        <time>2015-03-01T13:03:48Z</time>
      </trkpt>
      <trkpt lat="46.206337753683329" lon="8.297761688008905">
        <ele>1434.9100000000001</ele>
        <time>2015-03-01T13:04:09Z</time>
      </trkpt>
      <trkpt lat="46.206330880522728" lon="8.29777074046433">
        <ele>1433.9400000000001</ele>
        <time>2015-03-01T13:04:21Z</time>
      </trkpt>
      <trkpt lat="46.206327863037586" lon="8.297788426280022">
        <ele>1434.4200000000001</ele>
        <time>2015-03-01T13:04:43Z</time>
      </trkpt>
      <trkpt lat="46.206309758126736" lon="8.297795886173844">
        <ele>1434.4200000000001</ele>
        <time>2015-03-01T13:05:02Z</time>
      </trkpt>
      <trkpt lat="46.206331886351109" lon="8.297789180651307">
        <ele>1434.4200000000001</ele>
        <time>2015-03-01T13:05:26Z</time>
      </trkpt>
      <trkpt lat="46.206319648772478" lon="8.297770237550139">
        <ele>1435.3900000000001</ele>
        <time>2015-03-01T13:05:51Z</time>
      </trkpt>
      <trkpt lat="46.206326186656952" lon="8.297754395753145">
        <ele>1434.9100000000001</ele>
        <time>2015-03-01T13:06:14Z</time>
      </trkpt>
      <trkpt lat="46.206411011517048" lon="8.29780887812376">
        <ele>1435.3900000000001</ele>
        <time>2015-03-01T13:06:43Z</time>
      </trkpt>
      <trkpt lat="46.206415286287665" lon="8.297775434330106">
        <ele>1434.9100000000001</ele>
        <time>2015-03-01T13:07:11Z</time>
      </trkpt>
      <trkpt lat="46.206426853314042" lon="8.297774847596884">
        <ele>1433.9400000000001</ele>
        <time>2015-03-01T13:07:34Z</time>
      </trkpt>
      <trkpt lat="46.206406150013208" lon="8.29777317121625">
        <ele>1433.9400000000001</ele>
        <time>2015-03-01T13:07:57Z</time>
      </trkpt>
      <trkpt lat="46.206335993483663" lon="8.297727070748806">
        <ele>1433.9400000000001</ele>
        <time>2015-03-01T13:08:20Z</time>
      </trkpt>
      <trkpt lat="46.20635979808867" lon="8.297711983323097">
        <ele>1433.9400000000001</ele>
        <time>2015-03-01T13:08:43Z</time>
      </trkpt>
      <trkpt lat="46.206341190263629" lon="8.297725059092045">
        <ele>1433.9400000000001</ele>
        <time>2015-03-01T13:09:02Z</time>
      </trkpt>
      <trkpt lat="46.206364240497351" lon="8.297734865918756">
        <ele>1433.9400000000001</ele>
        <time>2015-03-01T13:09:25Z</time>
      </trkpt>
      <trkpt lat="46.206427523866296" lon="8.297747187316418">
        <ele>1433.9400000000001</ele>
        <time>2015-03-01T13:09:55Z</time>
      </trkpt>
      <trkpt lat="46.206372873857617" lon="8.297749869525433">
        <ele>1433.9400000000001</ele>
        <time>2015-03-01T13:10:13Z</time>
      </trkpt>
      <trkpt lat="46.206370862200856" lon="8.297736961394548">
        <ele>1433.9400000000001</ele>
        <time>2015-03-01T13:10:32Z</time>
      </trkpt>
      <trkpt lat="46.206352589651942" lon="8.297751881182194">
        <ele>1433.9400000000001</ele>
        <time>2015-03-01T13:10:55Z</time>
      </trkpt>
      <trkpt lat="46.206359881907701" lon="8.29776487313211">
        <ele>1434.4200000000001</ele>
        <time>2015-03-01T13:11:20Z</time>
      </trkpt>
      <trkpt lat="46.20637740008533" lon="8.297736877575517">
        <ele>1434.4200000000001</ele>
        <time>2015-03-01T13:11:41Z</time>
      </trkpt>
      <trkpt lat="46.206330545246601" lon="8.297764705494046">
        <ele>1434.4200000000001</ele>
        <time>2015-03-01T13:12:01Z</time>
      </trkpt>
      <trkpt lat="46.206317972391844" lon="8.297746852040291">
        <ele>1436.3499999999999</ele>
        <time>2015-03-01T13:12:39Z</time>
      </trkpt>
      <trkpt lat="46.206461638212204" lon="8.297789683565497">
        <ele>1434.4200000000001</ele>
        <time>2015-03-01T13:12:55Z</time>
      </trkpt>
      <trkpt lat="46.206578817218542" lon="8.29783134162426">
        <ele>1432.5</ele>
        <time>2015-03-01T13:13:09Z</time>
      </trkpt>
      <trkpt lat="46.20670773088932" lon="8.297890014946461">
        <ele>1432.98</ele>
        <time>2015-03-01T13:13:24Z</time>
      </trkpt>
      <trkpt lat="46.206829100847244" lon="8.29800283536315">
        <ele>1430.5799999999999</ele>
        <time>2015-03-01T13:13:40Z</time>
      </trkpt>
      <trkpt lat="46.206878218799829" lon="8.298056228086352">
        <ele>1428.6600000000001</ele>
        <time>2015-03-01T13:13:48Z</time>
      </trkpt>
      <trkpt lat="46.206915434449911" lon="8.298096628859639">
        <ele>1427.21</ele>
        <time>2015-03-01T13:13:54Z</time>
      </trkpt>
      <trkpt lat="46.20701752603054" lon="8.298201821744442">
        <ele>1423.8499999999999</ele>
        <time>2015-03-01T13:14:06Z</time>
      </trkpt>
      <trkpt lat="46.207059938460588" lon="8.298249514773488">
        <ele>1422.8900000000001</ele>
        <time>2015-03-01T13:14:11Z</time>
      </trkpt>
      <trkpt lat="46.20710545219481" lon="8.298368453979492">
        <ele>1420.97</ele>
        <time>2015-03-01T13:14:25Z</time>
      </trkpt>
      <trkpt lat="46.207101177424192" lon="8.298374656587839">
        <ele>1420.49</ele>
        <time>2015-03-01T13:14:46Z</time>
      </trkpt>
      <trkpt lat="46.207141745835543" lon="8.298412291333079">
        <ele>1419.04</ele>
        <time>2015-03-01T13:14:57Z</time>
      </trkpt>
      <trkpt lat="46.207143422216177" lon="8.298434922471643">
        <ele>1418.5599999999999</ele>
        <time>2015-03-01T13:15:13Z</time>
      </trkpt>
      <trkpt lat="46.207145433872938" lon="8.298514718189836">
        <ele>1417.5999999999999</ele>
        <time>2015-03-01T13:15:23Z</time>
      </trkpt>
      <trkpt lat="46.207085754722357" lon="8.29856182448566">
        <ele>1415.2</ele>
        <time>2015-03-01T13:15:31Z</time>
      </trkpt>
      <trkpt lat="46.207082821056247" lon="8.298603817820549">
        <ele>1413.76</ele>
        <time>2015-03-01T13:15:34Z</time>
      </trkpt>
      <trkpt lat="46.207201676443219" lon="8.298666765913367">
        <ele>1414.24</ele>
        <time>2015-03-01T13:15:49Z</time>
      </trkpt>
      <trkpt lat="46.207272335886955" lon="8.298675063997507">
        <ele>1414.72</ele>
        <time>2015-03-01T13:15:58Z</time>
      </trkpt>
      <trkpt lat="46.207312066107988" lon="8.298685541376472">
        <ele>1413.76</ele>
        <time>2015-03-01T13:16:08Z</time>
      </trkpt>
      <trkpt lat="46.207359842956066" lon="8.29872502014041">
        <ele>1414.24</ele>
        <time>2015-03-01T13:16:21Z</time>
      </trkpt>
      <trkpt lat="46.207394208759069" lon="8.298759637400508">
        <ele>1415.6800000000001</ele>
        <time>2015-03-01T13:16:42Z</time>
      </trkpt>
      <trkpt lat="46.207394041121006" lon="8.298827111721039">
        <ele>1413.28</ele>
        <time>2015-03-01T13:16:48Z</time>
      </trkpt>
      <trkpt lat="46.207418851554394" lon="8.298943787813187">
        <ele>1411.3499999999999</ele>
        <time>2015-03-01T13:17:01Z</time>
      </trkpt>
      <trkpt lat="46.207442069426179" lon="8.298963233828545">
        <ele>1410.8699999999999</ele>
        <time>2015-03-01T13:17:04Z</time>
      </trkpt>
      <trkpt lat="46.207560002803802" lon="8.29900598153472">
        <ele>1409.9100000000001</ele>
        <time>2015-03-01T13:17:18Z</time>
      </trkpt>
      <trkpt lat="46.207560924813151" lon="8.299014950171113">
        <ele>1409.4300000000001</ele>
        <time>2015-03-01T13:17:29Z</time>
      </trkpt>
      <trkpt lat="46.20763074606657" lon="8.299060128629208">
        <ele>1407.51</ele>
        <time>2015-03-01T13:17:42Z</time>
      </trkpt>
      <trkpt lat="46.207599733024836" lon="8.299089632928371">
        <ele>1407.03</ele>
        <time>2015-03-01T13:17:52Z</time>
      </trkpt>
      <trkpt lat="46.207589926198125" lon="8.299056692048907">
        <ele>1407.51</ele>
        <time>2015-03-01T13:18:07Z</time>
      </trkpt>
      <trkpt lat="46.207555141299963" lon="8.299030624330044">
        <ele>1407.99</ele>
        <time>2015-03-01T13:18:12Z</time>
      </trkpt>
      <trkpt lat="46.207487247884274" lon="8.298990810289979">
        <ele>1408.95</ele>
        <time>2015-03-01T13:18:25Z</time>
      </trkpt>
      <trkpt lat="46.207427149638534" lon="8.298984942957759">
        <ele>1408.95</ele>
        <time>2015-03-01T13:18:34Z</time>
      </trkpt>
      <trkpt lat="46.207386581227183" lon="8.298868099227548">
        <ele>1410.8699999999999</ele>
        <time>2015-03-01T13:18:47Z</time>
      </trkpt>
      <trkpt lat="46.207360597327352" lon="8.298799367621541">
        <ele>1411.3499999999999</ele>
        <time>2015-03-01T13:19:00Z</time>
      </trkpt>
      <trkpt lat="46.207350455224514" lon="8.298818310722709">
        <ele>1410.8699999999999</ele>
        <time>2015-03-01T13:19:20Z</time>
      </trkpt>
      <trkpt lat="46.20733805000782" lon="8.298825519159436">
        <ele>1410.8699999999999</ele>
        <time>2015-03-01T13:19:33Z</time>
      </trkpt>
      <trkpt lat="46.207314413040876" lon="8.298846054822207">
        <ele>1410.3900000000001</ele>
        <time>2015-03-01T13:19:37Z</time>
      </trkpt>
      <trkpt lat="46.207258421927691" lon="8.298814287409186">
        <ele>1409.4300000000001</ele>
        <time>2015-03-01T13:19:48Z</time>
      </trkpt>
      <trkpt lat="46.207202933728695" lon="8.298815293237567">
        <ele>1408.47</ele>
        <time>2015-03-01T13:20:00Z</time>
      </trkpt>
      <trkpt lat="46.207212740555406" lon="8.298795931041241">
        <ele>1407.51</ele>
        <time>2015-03-01T13:20:18Z</time>
      </trkpt>
      <trkpt lat="46.207208884879947" lon="8.298782436177135">
        <ele>1407.03</ele>
        <time>2015-03-01T13:20:41Z</time>
      </trkpt>
      <trkpt lat="46.207213075831532" lon="8.298780927434564">
        <ele>1406.55</ele>
        <time>2015-03-01T13:21:07Z</time>
      </trkpt>
      <trkpt lat="46.207194719463587" lon="8.298788722604513">
        <ele>1406.55</ele>
        <time>2015-03-01T13:21:34Z</time>
      </trkpt>
      <trkpt lat="46.207208214327693" lon="8.298798780888319">
        <ele>1406.55</ele>
        <time>2015-03-01T13:21:57Z</time>
      </trkpt>
      <trkpt lat="46.207226403057575" lon="8.29879391938448">
        <ele>1407.51</ele>
        <time>2015-03-01T13:22:13Z</time>
      </trkpt>
      <trkpt lat="46.207270743325353" lon="8.29881445504725">
        <ele>1407.99</ele>
        <time>2015-03-01T13:22:26Z</time>
      </trkpt>
      <trkpt lat="46.207266468554735" lon="8.298790901899338">
        <ele>1408.47</ele>
        <time>2015-03-01T13:22:38Z</time>
      </trkpt>
      <trkpt lat="46.207267809659243" lon="8.298783609643579">
        <ele>1408.47</ele>
        <time>2015-03-01T13:23:05Z</time>
      </trkpt>
      <trkpt lat="46.207282561808825" lon="8.298808839172125">
        <ele>1408.95</ele>
        <time>2015-03-01T13:23:23Z</time>
      </trkpt>
      <trkpt lat="46.207276694476604" lon="8.298802971839905">
        <ele>1408.47</ele>
        <time>2015-03-01T13:23:37Z</time>
      </trkpt>
      <trkpt lat="46.207280047237873" lon="8.298796685412526">
        <ele>1408.95</ele>
        <time>2015-03-01T13:23:50Z</time>
      </trkpt>
      <trkpt lat="46.207279544323683" lon="8.298787297680974">
        <ele>1408.95</ele>
        <time>2015-03-01T13:24:06Z</time>
      </trkpt>
      <trkpt lat="46.207283986732364" lon="8.29874555580318">
        <ele>1408.95</ele>
        <time>2015-03-01T13:24:24Z</time>
      </trkpt>
      <trkpt lat="46.207260936498642" lon="8.29878562130034">
        <ele>1408.95</ele>
        <time>2015-03-01T13:24:39Z</time>
      </trkpt>
      <trkpt lat="46.20726864784956" lon="8.298810515552759">
        <ele>1408.95</ele>
        <time>2015-03-01T13:24:57Z</time>
      </trkpt>
      <trkpt lat="46.207266384735703" lon="8.298782603815198">
        <ele>1407.99</ele>
        <time>2015-03-01T13:25:09Z</time>
      </trkpt>
      <trkpt lat="46.207261271774769" lon="8.29882082529366">
        <ele>1407.99</ele>
        <time>2015-03-01T13:25:20Z</time>
      </trkpt>
      <trkpt lat="46.207250459119678" lon="8.298826860263944">
        <ele>1407.99</ele>
        <time>2015-03-01T13:25:29Z</time>
      </trkpt>
      <trkpt lat="46.207255655899644" lon="8.29884865321219">
        <ele>1407.99</ele>
        <time>2015-03-01T13:25:43Z</time>
      </trkpt>
      <trkpt lat="46.207266468554735" lon="8.298766845837236">
        <ele>1407.99</ele>
        <time>2015-03-01T13:25:58Z</time>
      </trkpt>
      <trkpt lat="46.207258170470595" lon="8.298799535259605">
        <ele>1407.51</ele>
        <time>2015-03-01T13:26:15Z</time>
      </trkpt>
      <trkpt lat="46.207258757203817" lon="8.298803893849254">
        <ele>1407.51</ele>
        <time>2015-03-01T13:26:26Z</time>
      </trkpt>
      <trkpt lat="46.207258254289627" lon="8.29880565404892">
        <ele>1407.99</ele>
        <time>2015-03-01T13:26:36Z</time>
      </trkpt>
      <trkpt lat="46.207258841022849" lon="8.298816382884979">
        <ele>1409.4300000000001</ele>
        <time>2015-03-01T13:26:48Z</time>
      </trkpt>
      <trkpt lat="46.207257835194468" lon="8.29878319054842">
        <ele>1408.95</ele>
        <time>2015-03-01T13:27:06Z</time>
      </trkpt>
      <trkpt lat="46.20724668726325" lon="8.298778329044581">
        <ele>1409.4300000000001</ele>
        <time>2015-03-01T13:27:25Z</time>
      </trkpt>
      <trkpt lat="46.207273174077272" lon="8.298776233568788">
        <ele>1409.4300000000001</ele>
        <time>2015-03-01T13:27:38Z</time>
      </trkpt>
      <trkpt lat="46.207272000610828" lon="8.298829458653927">
        <ele>1409.4300000000001</ele>
        <time>2015-03-01T13:27:52Z</time>
      </trkpt>
      <trkpt lat="46.207275856286287" lon="8.298820490017533">
        <ele>1409.9100000000001</ele>
        <time>2015-03-01T13:28:07Z</time>
      </trkpt>
      <trkpt lat="46.207261271774769" lon="8.298801630735397">
        <ele>1409.9100000000001</ele>
        <time>2015-03-01T13:28:18Z</time>
      </trkpt>
      <trkpt lat="46.207237299531698" lon="8.298798277974129">
        <ele>1410.3900000000001</ele>
        <time>2015-03-01T13:28:30Z</time>
      </trkpt>
      <trkpt lat="46.207251464948058" lon="8.298818143084645">
        <ele>1409.9100000000001</ele>
        <time>2015-03-01T13:28:45Z</time>
      </trkpt>
      <trkpt lat="46.207263534888625" lon="8.298811689019203">
        <ele>1409.4300000000001</ele>
        <time>2015-03-01T13:29:14Z</time>
      </trkpt>
      <trkpt lat="46.207267809659243" lon="8.298817304894328">
        <ele>1409.4300000000001</ele>
        <time>2015-03-01T13:29:29Z</time>
      </trkpt>
      <trkpt lat="46.207266636192799" lon="8.298815209418535">
        <ele>1409.4300000000001</ele>
        <time>2015-03-01T13:29:47Z</time>
      </trkpt>
      <trkpt lat="46.207259763032198" lon="8.298797523602843">
        <ele>1409.4300000000001</ele>
        <time>2015-03-01T13:30:07Z</time>
      </trkpt>
      <trkpt lat="46.207244172692299" lon="8.29880565404892">
        <ele>1409.9100000000001</ele>
        <time>2015-03-01T13:30:23Z</time>
      </trkpt>
      <trkpt lat="46.207243837416172" lon="8.298808168619871">
        <ele>1409.9100000000001</ele>
        <time>2015-03-01T13:30:49Z</time>
      </trkpt>
      <trkpt lat="46.207264037802815" lon="8.298808503895998">
        <ele>1409.9100000000001</ele>
        <time>2015-03-01T13:31:12Z</time>
      </trkpt>
      <trkpt lat="46.207261271774769" lon="8.298821244388819">
        <ele>1409.4300000000001</ele>
        <time>2015-03-01T13:31:28Z</time>
      </trkpt>
      <trkpt lat="46.207256158813834" lon="8.298809006810188">
        <ele>1409.4300000000001</ele>
        <time>2015-03-01T13:31:42Z</time>
      </trkpt>
      <trkpt lat="46.207252303138375" lon="8.298817472532392">
        <ele>1409.4300000000001</ele>
        <time>2015-03-01T13:31:54Z</time>
      </trkpt>
      <trkpt lat="46.207263031974435" lon="8.29880372621119">
        <ele>1409.4300000000001</ele>
        <time>2015-03-01T13:32:03Z</time>
      </trkpt>
      <trkpt lat="46.207241490483284" lon="8.298795511946082">
        <ele>1409.4300000000001</ele>
        <time>2015-03-01T13:32:18Z</time>
      </trkpt>
      <trkpt lat="46.20725255459547" lon="8.29880565404892">
        <ele>1409.4300000000001</ele>
        <time>2015-03-01T13:32:37Z</time>
      </trkpt>
      <trkpt lat="46.207254817709327" lon="8.298811102285981">
        <ele>1408.95</ele>
        <time>2015-03-01T13:32:53Z</time>
      </trkpt>
      <trkpt lat="46.207249453291297" lon="8.298788471147418">
        <ele>1408.95</ele>
        <time>2015-03-01T13:33:15Z</time>
      </trkpt>
      <trkpt lat="46.2072510458529" lon="8.298782855272293">
        <ele>1409.4300000000001</ele>
        <time>2015-03-01T13:33:29Z</time>
      </trkpt>
      <trkpt lat="46.207257583737373" lon="8.298772126436234">
        <ele>1408.95</ele>
        <time>2015-03-01T13:33:40Z</time>
      </trkpt>
      <trkpt lat="46.207244340330362" lon="8.298786375671625">
        <ele>1407.99</ele>
        <time>2015-03-01T13:33:52Z</time>
      </trkpt>
      <trkpt lat="46.207231851294637" lon="8.298801630735397">
        <ele>1408.47</ele>
        <time>2015-03-01T13:34:02Z</time>
      </trkpt>
      <trkpt lat="46.207227911800146" lon="8.298814035952091">
        <ele>1407.99</ele>
        <time>2015-03-01T13:34:13Z</time>
      </trkpt>
      <trkpt lat="46.207231432199478" lon="8.298801798373461">
        <ele>1407.51</ele>
        <time>2015-03-01T13:34:23Z</time>
      </trkpt>
      <trkpt lat="46.207226486876607" lon="8.29881202429533">
        <ele>1407.99</ele>
        <time>2015-03-01T13:34:33Z</time>
      </trkpt>
      <trkpt lat="46.207243921235204" lon="8.298801379278302">
        <ele>1407.99</ele>
        <time>2015-03-01T13:34:47Z</time>
      </trkpt>
      <trkpt lat="46.207245513796806" lon="8.298789393156767">
        <ele>1407.99</ele>
        <time>2015-03-01T13:34:58Z</time>
      </trkpt>
      <trkpt lat="46.207233276218176" lon="8.298812443390489">
        <ele>1408.95</ele>
        <time>2015-03-01T13:35:10Z</time>
      </trkpt>
      <trkpt lat="46.207254147157073" lon="8.298781849443913">
        <ele>1407.99</ele>
        <time>2015-03-01T13:35:25Z</time>
      </trkpt>
      <trkpt lat="46.207273257896304" lon="8.29878562130034">
        <ele>1408.47</ele>
        <time>2015-03-01T13:35:34Z</time>
      </trkpt>
      <trkpt lat="46.207240652292967" lon="8.29880909062922">
        <ele>1408.95</ele>
        <time>2015-03-01T13:35:55Z</time>
      </trkpt>
      <trkpt lat="46.207267474383116" lon="8.298789393156767">
        <ele>1408.95</ele>
        <time>2015-03-01T13:36:13Z</time>
      </trkpt>
      <trkpt lat="46.207265211269259" lon="8.298804648220539">
        <ele>1408.47</ele>
        <time>2015-03-01T13:36:36Z</time>
      </trkpt>
      <trkpt lat="46.207264456897974" lon="8.298808168619871">
        <ele>1408.95</ele>
        <time>2015-03-01T13:36:56Z</time>
      </trkpt>
      <trkpt lat="46.207252303138375" lon="8.298828452825546">
        <ele>1407.51</ele>
        <time>2015-03-01T13:37:23Z</time>
      </trkpt>
      <trkpt lat="46.20726621709764" lon="8.298796601593494">
        <ele>1407.99</ele>
        <time>2015-03-01T13:37:50Z</time>
      </trkpt>
      <trkpt lat="46.207272335886955" lon="8.298789728432894">
        <ele>1407.51</ele>
        <time>2015-03-01T13:38:18Z</time>
      </trkpt>
      <trkpt lat="46.207261020317674" lon="8.298810096457601">
        <ele>1407.99</ele>
        <time>2015-03-01T13:38:41Z</time>
      </trkpt>
      <trkpt lat="46.207264037802815" lon="8.298787884414196">
        <ele>1407.03</ele>
        <time>2015-03-01T13:38:52Z</time>
      </trkpt>
      <trkpt lat="46.207281220704317" lon="8.298773467540741">
        <ele>1407.03</ele>
        <time>2015-03-01T13:39:26Z</time>
      </trkpt>
      <trkpt lat="46.207292033359408" lon="8.298806827515364">
        <ele>1407.03</ele>
        <time>2015-03-01T13:39:55Z</time>
      </trkpt>
      <trkpt lat="46.207285998389125" lon="8.298858627676964">
        <ele>1407.51</ele>
        <time>2015-03-01T13:40:33Z</time>
      </trkpt>
      <trkpt lat="46.20728088542819" lon="8.298767264932394">
        <ele>1407.99</ele>
        <time>2015-03-01T13:40:58Z</time>
      </trkpt>
      <trkpt lat="46.207276359200478" lon="8.298815209418535">
        <ele>1407.99</ele>
        <time>2015-03-01T13:41:35Z</time>
      </trkpt>
      <trkpt lat="46.207289434969425" lon="8.29877095296979">
        <ele>1407.99</ele>
        <time>2015-03-01T13:41:54Z</time>
      </trkpt>
      <trkpt lat="46.207268731668591" lon="8.298773635178804">
        <ele>1409.4300000000001</ele>
        <time>2015-03-01T13:42:01Z</time>
      </trkpt>
      <trkpt lat="46.20725255459547" lon="8.298828704282641">
        <ele>1409.4300000000001</ele>
        <time>2015-03-01T13:42:16Z</time>
      </trkpt>
      <trkpt lat="46.207274096086621" lon="8.298805486410856">
        <ele>1408.47</ele>
        <time>2015-03-01T13:42:30Z</time>
      </trkpt>
      <trkpt lat="46.207242412492633" lon="8.298763409256935">
        <ele>1409.4300000000001</ele>
        <time>2015-03-01T13:42:45Z</time>
      </trkpt>
      <trkpt lat="46.207249956205487" lon="8.298762403428555">
        <ele>1408.47</ele>
        <time>2015-03-01T13:42:54Z</time>
      </trkpt>
      <trkpt lat="46.207242077216506" lon="8.298807498067617">
        <ele>1408.47</ele>
        <time>2015-03-01T13:43:06Z</time>
      </trkpt>
      <trkpt lat="46.207260768860579" lon="8.298766929656267">
        <ele>1408.47</ele>
        <time>2015-03-01T13:43:29Z</time>
      </trkpt>
      <trkpt lat="46.207301504909992" lon="8.298808252438903">
        <ele>1407.99</ele>
        <time>2015-03-01T13:43:36Z</time>
      </trkpt>
      <trkpt lat="46.20740401558578" lon="8.298801714554429">
        <ele>1409.4300000000001</ele>
        <time>2015-03-01T13:43:49Z</time>
      </trkpt>
      <trkpt lat="46.207406865432858" lon="8.298859549686313">
        <ele>1409.4300000000001</ele>
        <time>2015-03-01T13:43:53Z</time>
      </trkpt>
      <trkpt lat="46.207395298406482" lon="8.298904225230217">
        <ele>1409.9100000000001</ele>
        <time>2015-03-01T13:43:56Z</time>
      </trkpt>
      <trkpt lat="46.207505520433187" lon="8.29894931986928">
        <ele>1408.95</ele>
        <time>2015-03-01T13:44:10Z</time>
      </trkpt>
      <trkpt lat="46.207521446049213" lon="8.298953846096993">
        <ele>1408.95</ele>
        <time>2015-03-01T13:44:12Z</time>
      </trkpt>
      <trkpt lat="46.207549190148711" lon="8.298972621560097">
        <ele>1408.47</ele>
        <time>2015-03-01T13:44:15Z</time>
      </trkpt>
      <trkpt lat="46.207633931189775" lon="8.299021488055587">
        <ele>1407.03</ele>
        <time>2015-03-01T13:44:22Z</time>
      </trkpt>
      <trkpt lat="46.207656562328339" lon="8.299038168042898">
        <ele>1406.55</ele>
        <time>2015-03-01T13:44:24Z</time>
      </trkpt>
      <trkpt lat="46.20779000222683" lon="8.299048142507672">
        <ele>1404.1400000000001</ele>
        <time>2015-03-01T13:44:39Z</time>
      </trkpt>
      <trkpt lat="46.207891507074237" lon="8.299107486382127">
        <ele>1402.7</ele>
        <time>2015-03-01T13:44:54Z</time>
      </trkpt>
      <trkpt lat="46.207907265052199" lon="8.299126345664263">
        <ele>1402.22</ele>
        <time>2015-03-01T13:44:56Z</time>
      </trkpt>
      <trkpt lat="46.208011955022812" lon="8.299267580732703">
        <ele>1398.8599999999999</ele>
        <time>2015-03-01T13:45:09Z</time>
      </trkpt>
      <trkpt lat="46.208029808476567" lon="8.299291972070932">
        <ele>1397.8900000000001</ele>
        <time>2015-03-01T13:45:11Z</time>
      </trkpt>
      <trkpt lat="46.208049589768052" lon="8.299332624301314">
        <ele>1397.4100000000001</ele>
        <time>2015-03-01T13:45:14Z</time>
      </trkpt>
      <trkpt lat="46.208033496513963" lon="8.299489198252559">
        <ele>1395.01</ele>
        <time>2015-03-01T13:45:25Z</time>
      </trkpt>
      <trkpt lat="46.208073981106281" lon="8.299508476629853">
        <ele>1395.49</ele>
        <time>2015-03-01T13:45:39Z</time>
      </trkpt>
      <trkpt lat="46.208094097673893" lon="8.299547787755728">
        <ele>1395.97</ele>
        <time>2015-03-01T13:45:43Z</time>
      </trkpt>
      <trkpt lat="46.208189902827144" lon="8.299629595130682">
        <ele>1396.45</ele>
        <time>2015-03-01T13:45:58Z</time>
      </trkpt>
      <trkpt lat="46.208276823163033" lon="8.29965733923018">
        <ele>1394.53</ele>
        <time>2015-03-01T13:46:10Z</time>
      </trkpt>
      <trkpt lat="46.208284199237823" lon="8.299657925963402">
        <ele>1394.53</ele>
        <time>2015-03-01T13:46:11Z</time>
      </trkpt>
      <trkpt lat="46.208382602781057" lon="8.299672761932015">
        <ele>1393.5699999999999</ele>
        <time>2015-03-01T13:46:22Z</time>
      </trkpt>
      <trkpt lat="46.208419064059854" lon="8.299684748053551">
        <ele>1392.6099999999999</ele>
        <time>2015-03-01T13:46:26Z</time>
      </trkpt>
      <trkpt lat="46.208518305793405" lon="8.299752892926335">
        <ele>1390.2</ele>
        <time>2015-03-01T13:46:38Z</time>
      </trkpt>
      <trkpt lat="46.208555521443486" lon="8.299785749986768">
        <ele>1390.6800000000001</ele>
        <time>2015-03-01T13:46:41Z</time>
      </trkpt>
      <trkpt lat="46.208606315776706" lon="8.299878118559718">
        <ele>1389.24</ele>
        <time>2015-03-01T13:46:50Z</time>
      </trkpt>
      <trkpt lat="46.20870471931994" lon="8.299956992268562">
        <ele>1387.3199999999999</ele>
        <time>2015-03-01T13:47:01Z</time>
      </trkpt>
      <trkpt lat="46.208809660747647" lon="8.300057156011462">
        <ele>1383.96</ele>
        <time>2015-03-01T13:47:16Z</time>
      </trkpt>
      <trkpt lat="46.208888199180365" lon="8.300115158781409">
        <ele>1381.55</ele>
        <time>2015-03-01T13:47:27Z</time>
      </trkpt>
      <trkpt lat="46.208945196121931" lon="8.300153966993094">
        <ele>1379.1500000000001</ele>
        <time>2015-03-01T13:47:33Z</time>
      </trkpt>
      <trkpt lat="46.209012754261494" lon="8.300193613395095">
        <ele>1378.6700000000001</ele>
        <time>2015-03-01T13:47:42Z</time>
      </trkpt>
      <trkpt lat="46.209125993773341" lon="8.300258992239833">
        <ele>1376.26</ele>
        <time>2015-03-01T13:47:56Z</time>
      </trkpt>
      <trkpt lat="46.209252811968327" lon="8.300229990854859">
        <ele>1374.8199999999999</ele>
        <time>2015-03-01T13:48:10Z</time>
      </trkpt>
      <trkpt lat="46.209399243816733" lon="8.300250777974725">
        <ele>1371.9400000000001</ele>
        <time>2015-03-01T13:48:25Z</time>
      </trkpt>
      <trkpt lat="46.209540059790015" lon="8.300261171534658">
        <ele>1370.02</ele>
        <time>2015-03-01T13:48:39Z</time>
      </trkpt>
      <trkpt lat="46.209665788337588" lon="8.300218088552356">
        <ele>1369.05</ele>
        <time>2015-03-01T13:48:53Z</time>
      </trkpt>
      <trkpt lat="46.209798892959952" lon="8.300192356109619">
        <ele>1367.6099999999999</ele>
        <time>2015-03-01T13:49:07Z</time>
      </trkpt>
      <trkpt lat="46.209913725033402" lon="8.300134856253862">
        <ele>1367.6099999999999</ele>
        <time>2015-03-01T13:49:21Z</time>
      </trkpt>
      <trkpt lat="46.210051858797669" lon="8.300103675574064">
        <ele>1367.6099999999999</ele>
        <time>2015-03-01T13:49:35Z</time>
      </trkpt>
      <trkpt lat="46.210148250684142" lon="8.300042655318975">
        <ele>1367.1300000000001</ele>
        <time>2015-03-01T13:49:51Z</time>
      </trkpt>
      <trkpt lat="46.210230477154255" lon="8.299975180998445">
        <ele>1366.1700000000001</ele>
        <time>2015-03-01T13:50:04Z</time>
      </trkpt>
      <trkpt lat="46.210229219868779" lon="8.299966212362051">
        <ele>1365.21</ele>
        <time>2015-03-01T13:50:11Z</time>
      </trkpt>
      <trkpt lat="46.210241122171283" lon="8.299980461597443">
        <ele>1365.21</ele>
        <time>2015-03-01T13:50:22Z</time>
      </trkpt>
      <trkpt lat="46.210258891806006" lon="8.299847273156047">
        <ele>1362.3299999999999</ele>
        <time>2015-03-01T13:50:35Z</time>
      </trkpt>
      <trkpt lat="46.210313877090812" lon="8.299770494922996">
        <ele>1358.96</ele>
        <time>2015-03-01T13:50:45Z</time>
      </trkpt>
      <trkpt lat="46.210390655323863" lon="8.299631187692285">
        <ele>1356.0799999999999</ele>
        <time>2015-03-01T13:50:59Z</time>
      </trkpt>
      <trkpt lat="46.210400043055415" lon="8.299609897658229">
        <ele>1358.48</ele>
        <time>2015-03-01T13:51:02Z</time>
      </trkpt>
      <trkpt lat="46.210467852652073" lon="8.299589864909649">
        <ele>1355.1199999999999</ele>
        <time>2015-03-01T13:51:16Z</time>
      </trkpt>
      <trkpt lat="46.210565753281116" lon="8.299507386982441">
        <ele>1356.5599999999999</ele>
        <time>2015-03-01T13:51:29Z</time>
      </trkpt>
      <trkpt lat="46.210632892325521" lon="8.299444941803813">
        <ele>1357.52</ele>
        <time>2015-03-01T13:51:46Z</time>
      </trkpt>
      <trkpt lat="46.210649823769927" lon="8.299391465261579">
        <ele>1357.52</ele>
        <time>2015-03-01T13:52:09Z</time>
      </trkpt>
      <trkpt lat="46.210810504853725" lon="8.299303706735373">
        <ele>1357.04</ele>
        <time>2015-03-01T13:52:27Z</time>
      </trkpt>
      <trkpt lat="46.210941849276423" lon="8.299268586561084">
        <ele>1354.6300000000001</ele>
        <time>2015-03-01T13:52:40Z</time>
      </trkpt>
      <trkpt lat="46.211012592539191" lon="8.299192981794477">
        <ele>1355.1199999999999</ele>
        <time>2015-03-01T13:52:53Z</time>
      </trkpt>
      <trkpt lat="46.211125077679753" lon="8.299145707860589">
        <ele>1356.0799999999999</ele>
        <time>2015-03-01T13:53:09Z</time>
      </trkpt>
      <trkpt lat="46.211224654689431" lon="8.299074294045568">
        <ele>1356.0799999999999</ele>
        <time>2015-03-01T13:53:24Z</time>
      </trkpt>
      <trkpt lat="46.211319789290428" lon="8.299035402014852">
        <ele>1355.1199999999999</ele>
        <time>2015-03-01T13:53:40Z</time>
      </trkpt>
      <trkpt lat="46.211476530879736" lon="8.298851503059268">
        <ele>1354.1500000000001</ele>
        <time>2015-03-01T13:53:57Z</time>
      </trkpt>
      <trkpt lat="46.211546435952187" lon="8.298901878297329">
        <ele>1351.27</ele>
        <time>2015-03-01T13:54:06Z</time>
      </trkpt>
      <trkpt lat="46.211626147851348" lon="8.298916378989816">
        <ele>1348.3900000000001</ele>
        <time>2015-03-01T13:54:16Z</time>
      </trkpt>
      <trkpt lat="46.211738046258688" lon="8.298854939639568">
        <ele>1347.4300000000001</ele>
        <time>2015-03-01T13:54:32Z</time>
      </trkpt>
      <trkpt lat="46.211770065128803" lon="8.298850581049919">
        <ele>1345.5</ele>
        <time>2015-03-01T13:54:46Z</time>
      </trkpt>
      <trkpt lat="46.211762772873044" lon="8.298896513879299">
        <ele>1345.5</ele>
        <time>2015-03-01T13:55:04Z</time>
      </trkpt>
      <trkpt lat="46.211830917745829" lon="8.298788219690323">
        <ele>1343.5799999999999</ele>
        <time>2015-03-01T13:55:20Z</time>
      </trkpt>
      <trkpt lat="46.211806358769536" lon="8.298792662099004">
        <ele>1343.0999999999999</ele>
        <time>2015-03-01T13:55:38Z</time>
      </trkpt>
      <trkpt lat="46.211830833926797" lon="8.298857789486647">
        <ele>1342.6199999999999</ele>
        <time>2015-03-01T13:55:55Z</time>
      </trkpt>
      <trkpt lat="46.211861930787563" lon="8.298864746466279">
        <ele>1339.25</ele>
        <time>2015-03-01T13:56:10Z</time>
      </trkpt>
      <trkpt lat="46.21188422665" lon="8.298872206360102">
        <ele>1338.77</ele>
        <time>2015-03-01T13:56:23Z</time>
      </trkpt>
      <trkpt lat="46.211905935779214" lon="8.298768689855933">
        <ele>1338.29</ele>
        <time>2015-03-01T13:56:38Z</time>
      </trkpt>
      <trkpt lat="46.211951449513435" lon="8.298721583560109">
        <ele>1336.8499999999999</ele>
        <time>2015-03-01T13:56:53Z</time>
      </trkpt>
      <trkpt lat="46.211949773132801" lon="8.298785956576467">
        <ele>1336.3699999999999</ele>
        <time>2015-03-01T13:57:07Z</time>
      </trkpt>
      <trkpt lat="46.211982294917107" lon="8.298764247447252">
        <ele>1333.97</ele>
        <time>2015-03-01T13:57:21Z</time>
      </trkpt>
      <trkpt lat="46.211935859173536" lon="8.298852844163775">
        <ele>1333.01</ele>
        <time>2015-03-01T13:57:32Z</time>
      </trkpt>
      <trkpt lat="46.211930997669697" lon="8.298910763114691">
        <ele>1333.01</ele>
        <time>2015-03-01T13:57:46Z</time>
      </trkpt>
      <trkpt lat="46.211965279653668" lon="8.298817556351423">
        <ele>1332.04</ele>
        <time>2015-03-01T13:58:00Z</time>
      </trkpt>
      <trkpt lat="46.211948934942484" lon="8.298738095909357">
        <ele>1330.5999999999999</ele>
        <time>2015-03-01T13:58:18Z</time>
      </trkpt>
      <trkpt lat="46.211989587172866" lon="8.298763995990157">
        <ele>1330.1199999999999</ele>
        <time>2015-03-01T13:58:35Z</time>
      </trkpt>
      <trkpt lat="46.211998807266355" lon="8.298682942986488">
        <ele>1330.1199999999999</ele>
        <time>2015-03-01T13:58:50Z</time>
      </trkpt>
      <trkpt lat="46.212009033188224" lon="8.298635082319379">
        <ele>1329.6400000000001</ele>
        <time>2015-03-01T13:59:06Z</time>
      </trkpt>
      <trkpt lat="46.212051110342145" lon="8.298721583560109">
        <ele>1329.1600000000001</ele>
        <time>2015-03-01T13:59:18Z</time>
      </trkpt>
      <trkpt lat="46.212089248001575" lon="8.298595352098346">
        <ele>1328.2</ele>
        <time>2015-03-01T13:59:36Z</time>
      </trkpt>
      <trkpt lat="46.212120009586215" lon="8.298732060939074">
        <ele>1329.1600000000001</ele>
        <time>2015-03-01T13:59:57Z</time>
      </trkpt>
      <trkpt lat="46.212166529148817" lon="8.298586718738079">
        <ele>1326.28</ele>
        <time>2015-03-01T14:00:16Z</time>
      </trkpt>
      <trkpt lat="46.212237440049648" lon="8.298399802297354">
        <ele>1326.76</ele>
        <time>2015-03-01T14:00:33Z</time>
      </trkpt>
      <trkpt lat="46.212257975712419" lon="8.298423103988171">
        <ele>1327.72</ele>
        <time>2015-03-01T14:00:48Z</time>
      </trkpt>
      <trkpt lat="46.212269458919764" lon="8.298396281898022">
        <ele>1326.76</ele>
        <time>2015-03-01T14:01:05Z</time>
      </trkpt>
      <trkpt lat="46.212243977934122" lon="8.298461409285665">
        <ele>1326.76</ele>
        <time>2015-03-01T14:01:22Z</time>
      </trkpt>
      <trkpt lat="46.21225269511342" lon="8.298349343240261">
        <ele>1327.24</ele>
        <time>2015-03-01T14:01:38Z</time>
      </trkpt>
      <trkpt lat="46.212283875793219" lon="8.29832243733108">
        <ele>1328.6800000000001</ele>
        <time>2015-03-01T14:01:54Z</time>
      </trkpt>
      <trkpt lat="46.212342297658324" lon="8.298300560563803">
        <ele>1329.1600000000001</ele>
        <time>2015-03-01T14:02:12Z</time>
      </trkpt>
      <trkpt lat="46.212379764765501" lon="8.29831019975245">
        <ele>1328.6800000000001</ele>
        <time>2015-03-01T14:02:34Z</time>
      </trkpt>
      <trkpt lat="46.212434498593211" lon="8.298331322148442">
        <ele>1326.28</ele>
        <time>2015-03-01T14:02:49Z</time>
      </trkpt>
      <trkpt lat="46.212430391460657" lon="8.298268457874656">
        <ele>1328.2</ele>
        <time>2015-03-01T14:03:05Z</time>
      </trkpt>
      <trkpt lat="46.212462661787868" lon="8.298202911391854">
        <ele>1330.5999999999999</ele>
        <time>2015-03-01T14:03:22Z</time>
      </trkpt>
      <trkpt lat="46.212513791397214" lon="8.298180615529418">
        <ele>1330.1199999999999</ele>
        <time>2015-03-01T14:03:36Z</time>
      </trkpt>
      <trkpt lat="46.212516557425261" lon="8.298132251948118">
        <ele>1330.5999999999999</ele>
        <time>2015-03-01T14:03:50Z</time>
      </trkpt>
      <trkpt lat="46.212588474154472" lon="8.298073243349791">
        <ele>1330.1199999999999</ele>
        <time>2015-03-01T14:04:09Z</time>
      </trkpt>
      <trkpt lat="46.212660809978843" lon="8.29800576902926">
        <ele>1331.5599999999999</ele>
        <time>2015-03-01T14:04:31Z</time>
      </trkpt>
      <trkpt lat="46.212712274864316" lon="8.297976013273001">
        <ele>1329.6400000000001</ele>
        <time>2015-03-01T14:04:45Z</time>
      </trkpt>
      <trkpt lat="46.212733229622245" lon="8.297993531450629">
        <ele>1328.6800000000001</ele>
        <time>2015-03-01T14:05:04Z</time>
      </trkpt>
      <trkpt lat="46.212727781385183" lon="8.297905437648296">
        <ele>1328.2</ele>
        <time>2015-03-01T14:05:25Z</time>
      </trkpt>
      <trkpt lat="46.212760135531425" lon="8.297874508425593">
        <ele>1325.8</ele>
        <time>2015-03-01T14:05:38Z</time>
      </trkpt>
      <trkpt lat="46.212813528254628" lon="8.297798484563828">
        <ele>1326.76</ele>
        <time>2015-03-01T14:05:55Z</time>
      </trkpt>
      <trkpt lat="46.212838171049953" lon="8.297824552282691">
        <ele>1327.24</ele>
        <time>2015-03-01T14:06:11Z</time>
      </trkpt>
      <trkpt lat="46.212902963161469" lon="8.29788506962359">
        <ele>1324.3499999999999</ele>
        <time>2015-03-01T14:06:25Z</time>
      </trkpt>
      <trkpt lat="46.212882762774825" lon="8.297902420163155">
        <ele>1321.95</ele>
        <time>2015-03-01T14:06:41Z</time>
      </trkpt>
      <trkpt lat="46.212892485782504" lon="8.29786797054112">
        <ele>1321.95</ele>
        <time>2015-03-01T14:06:59Z</time>
      </trkpt>
      <trkpt lat="46.212954595685005" lon="8.297880375757814">
        <ele>1320.03</ele>
        <time>2015-03-01T14:07:11Z</time>
      </trkpt>
      <trkpt lat="46.21294361539185" lon="8.297884063795209">
        <ele>1319.55</ele>
        <time>2015-03-01T14:07:27Z</time>
      </trkpt>
      <trkpt lat="46.212933976203203" lon="8.297933517023921">
        <ele>1318.0999999999999</ele>
        <time>2015-03-01T14:07:40Z</time>
      </trkpt>
      <trkpt lat="46.212936574593186" lon="8.297866629436612">
        <ele>1320.51</ele>
        <time>2015-03-01T14:07:55Z</time>
      </trkpt>
      <trkpt lat="46.212960630655289" lon="8.297845087945461">
        <ele>1320.51</ele>
        <time>2015-03-01T14:08:09Z</time>
      </trkpt>
      <trkpt lat="46.21304671280086" lon="8.297884315252304">
        <ele>1318.0999999999999</ele>
        <time>2015-03-01T14:08:24Z</time>
      </trkpt>
      <trkpt lat="46.213056268170476" lon="8.297842741012573">
        <ele>1317.6199999999999</ele>
        <time>2015-03-01T14:08:47Z</time>
      </trkpt>
      <trkpt lat="46.213115947321057" lon="8.297868892550468">
        <ele>1318.0999999999999</ele>
        <time>2015-03-01T14:09:06Z</time>
      </trkpt>
      <trkpt lat="46.213123574852943" lon="8.297859085723758">
        <ele>1318.5899999999999</ele>
        <time>2015-03-01T14:09:20Z</time>
      </trkpt>
      <trkpt lat="46.213064817711711" lon="8.297862019389868">
        <ele>1318.5899999999999</ele>
        <time>2015-03-01T14:09:38Z</time>
      </trkpt>
      <trkpt lat="46.213067416101694" lon="8.297804854810238">
        <ele>1319.55</ele>
        <time>2015-03-01T14:09:53Z</time>
      </trkpt>
      <trkpt lat="46.213124748319387" lon="8.297812314704061">
        <ele>1318.5899999999999</ele>
        <time>2015-03-01T14:10:06Z</time>
      </trkpt>
      <trkpt lat="46.213187864050269" lon="8.297763112932444">
        <ele>1318.5899999999999</ele>
        <time>2015-03-01T14:10:23Z</time>
      </trkpt>
      <trkpt lat="46.213167496025562" lon="8.297756742686033">
        <ele>1318.5899999999999</ele>
        <time>2015-03-01T14:10:40Z</time>
      </trkpt>
      <trkpt lat="46.213122820481658" lon="8.297748947516084">
        <ele>1319.0699999999999</ele>
        <time>2015-03-01T14:10:57Z</time>
      </trkpt>
      <trkpt lat="46.213074959814548" lon="8.297751965001226">
        <ele>1319.55</ele>
        <time>2015-03-01T14:11:23Z</time>
      </trkpt>
      <trkpt lat="46.213133297860622" lon="8.297762777656317">
        <ele>1319.55</ele>
        <time>2015-03-01T14:11:41Z</time>
      </trkpt>
      <trkpt lat="46.213128268718719" lon="8.297714497894049">
        <ele>1319.55</ele>
        <time>2015-03-01T14:12:10Z</time>
      </trkpt>
      <trkpt lat="46.213149726390839" lon="8.297773841768503">
        <ele>1319.55</ele>
        <time>2015-03-01T14:12:32Z</time>
      </trkpt>
      <trkpt lat="46.213137740269303" lon="8.297765292227268">
        <ele>1318.5899999999999</ele>
        <time>2015-03-01T14:12:49Z</time>
      </trkpt>
      <trkpt lat="46.213167915120721" lon="8.297753557562828">
        <ele>1318.5899999999999</ele>
        <time>2015-03-01T14:13:02Z</time>
      </trkpt>
      <trkpt lat="46.21315810829401" lon="8.297734363004565">
        <ele>1319.55</ele>
        <time>2015-03-01T14:13:13Z</time>
      </trkpt>
      <trkpt lat="46.213180487975478" lon="8.297765795141459">
        <ele>1319.55</ele>
        <time>2015-03-01T14:13:32Z</time>
      </trkpt>
      <trkpt lat="46.213201023638248" lon="8.297796305269003">
        <ele>1319.55</ele>
        <time>2015-03-01T14:13:50Z</time>
      </trkpt>
      <trkpt lat="46.213132292032242" lon="8.297841232270002">
        <ele>1319.55</ele>
        <time>2015-03-01T14:14:06Z</time>
      </trkpt>
      <trkpt lat="46.213055094704032" lon="8.29783427529037">
        <ele>1319.55</ele>
        <time>2015-03-01T14:14:23Z</time>
      </trkpt>
      <trkpt lat="46.213060123845935" lon="8.297845590859652">
        <ele>1319.55</ele>
        <time>2015-03-01T14:14:44Z</time>
      </trkpt>
      <trkpt lat="46.212998768314719" lon="8.297873334959149">
        <ele>1320.51</ele>
        <time>2015-03-01T14:15:02Z</time>
      </trkpt>
      <trkpt lat="46.212967587634921" lon="8.297818684950471">
        <ele>1320.99</ele>
        <time>2015-03-01T14:15:24Z</time>
      </trkpt>
      <trkpt lat="46.212996253743768" lon="8.297832682728767">
        <ele>1320.51</ele>
        <time>2015-03-01T14:15:47Z</time>
      </trkpt>
      <trkpt lat="46.212908746674657" lon="8.29785481095314">
        <ele>1320.99</ele>
        <time>2015-03-01T14:16:23Z</time>
      </trkpt>
      <trkpt lat="46.212953422218561" lon="8.297863779589534">
        <ele>1321.95</ele>
        <time>2015-03-01T14:16:37Z</time>
      </trkpt>
      <trkpt lat="46.213025338947773" lon="8.297830754891038">
        <ele>1320.51</ele>
        <time>2015-03-01T14:16:57Z</time>
      </trkpt>
      <trkpt lat="46.213152827695012" lon="8.297747606411576">
        <ele>1320.03</ele>
        <time>2015-03-01T14:17:12Z</time>
      </trkpt>
      <trkpt lat="46.213227342814207" lon="8.297711228951812">
        <ele>1320.03</ele>
        <time>2015-03-01T14:17:37Z</time>
      </trkpt>
      <trkpt lat="46.213302277028561" lon="8.297638893127441">
        <ele>1318.5899999999999</ele>
        <time>2015-03-01T14:17:54Z</time>
      </trkpt>
      <trkpt lat="46.213435968384147" lon="8.297573681920767">
        <ele>1318.5899999999999</ele>
        <time>2015-03-01T14:18:13Z</time>
      </trkpt>
      <trkpt lat="46.213543172925711" lon="8.297488940879703">
        <ele>1319.55</ele>
        <time>2015-03-01T14:18:29Z</time>
      </trkpt>
      <trkpt lat="46.213561613112688" lon="8.297380395233631">
        <ele>1320.51</ele>
        <time>2015-03-01T14:18:42Z</time>
      </trkpt>
      <trkpt lat="46.213609473779798" lon="8.297284841537476">
        <ele>1320.99</ele>
        <time>2015-03-01T14:18:55Z</time>
      </trkpt>
      <trkpt lat="46.21363596059382" lon="8.297158358618617">
        <ele>1320.99</ele>
        <time>2015-03-01T14:19:08Z</time>
      </trkpt>
      <trkpt lat="46.2136853300035" lon="8.297033971175551">
        <ele>1320.99</ele>
        <time>2015-03-01T14:19:21Z</time>
      </trkpt>
      <trkpt lat="46.213779961690307" lon="8.29691612161696">
        <ele>1320.99</ele>
        <time>2015-03-01T14:19:37Z</time>
      </trkpt>
      <trkpt lat="46.2139184307307" lon="8.296851078048348">
        <ele>1320.51</ele>
        <time>2015-03-01T14:19:51Z</time>
      </trkpt>
      <trkpt lat="46.214041141793132" lon="8.296731971204281">
        <ele>1320.99</ele>
        <time>2015-03-01T14:20:07Z</time>
      </trkpt>
      <trkpt lat="46.214183131232858" lon="8.296721912920475">
        <ele>1322.9100000000001</ele>
        <time>2015-03-01T14:20:24Z</time>
      </trkpt>
      <trkpt lat="46.21419352479279" lon="8.296657791361213">
        <ele>1323.8699999999999</ele>
        <time>2015-03-01T14:20:37Z</time>
      </trkpt>
      <trkpt lat="46.214241972193122" lon="8.296545138582587">
        <ele>1325.3099999999999</ele>
        <time>2015-03-01T14:20:51Z</time>
      </trkpt>
      <trkpt lat="46.21428245678544" lon="8.296422008424997">
        <ele>1326.76</ele>
        <time>2015-03-01T14:21:04Z</time>
      </trkpt>
      <trkpt lat="46.214336520060897" lon="8.296332322061062">
        <ele>1328.2</ele>
        <time>2015-03-01T14:21:15Z</time>
      </trkpt>
      <trkpt lat="46.214391002431512" lon="8.296223692595959">
        <ele>1328.6800000000001</ele>
        <time>2015-03-01T14:21:27Z</time>
      </trkpt>
      <trkpt lat="46.214432492852211" lon="8.296147082000971">
        <ele>1328.2</ele>
        <time>2015-03-01T14:21:35Z</time>
      </trkpt>
      <trkpt lat="46.21451698243618" lon="8.296004254370928">
        <ele>1328.2</ele>
        <time>2015-03-01T14:21:48Z</time>
      </trkpt>
      <trkpt lat="46.214566854760051" lon="8.295899899676442">
        <ele>1327.72</ele>
        <time>2015-03-01T14:21:57Z</time>
      </trkpt>
      <trkpt lat="46.214637430384755" lon="8.295742236077786">
        <ele>1327.24</ele>
        <time>2015-03-01T14:22:11Z</time>
      </trkpt>
      <trkpt lat="46.214654110372066" lon="8.295756569132209">
        <ele>1327.72</ele>
        <time>2015-03-01T14:22:12Z</time>
      </trkpt>
      <trkpt lat="46.214679423719645" lon="8.295730501413345">
        <ele>1327.24</ele>
        <time>2015-03-01T14:22:16Z</time>
      </trkpt>
      <trkpt lat="46.214750502258539" lon="8.295559091493487">
        <ele>1324.8299999999999</ele>
        <time>2015-03-01T14:22:31Z</time>
      </trkpt>
      <trkpt lat="46.214838679879904" lon="8.295524809509516">
        <ele>1323.3900000000001</ele>
        <time>2015-03-01T14:22:45Z</time>
      </trkpt>
      <trkpt lat="46.214857874438167" lon="8.295525312423706">
        <ele>1323.3900000000001</ele>
        <time>2015-03-01T14:22:56Z</time>
      </trkpt>
      <trkpt lat="46.214933563023806" lon="8.295380976051092">
        <ele>1320.51</ele>
        <time>2015-03-01T14:23:10Z</time>
      </trkpt>
      <trkpt lat="46.21489467099309" lon="8.295184252783656">
        <ele>1320.51</ele>
        <time>2015-03-01T14:23:23Z</time>
      </trkpt>
      <trkpt lat="46.214890060946345" lon="8.295168075710535">
        <ele>1320.51</ele>
        <time>2015-03-01T14:23:24Z</time>
      </trkpt>
      <trkpt lat="46.214885199442506" lon="8.295089118182659">
        <ele>1320.03</ele>
        <time>2015-03-01T14:23:29Z</time>
      </trkpt>
      <trkpt lat="46.214916966855526" lon="8.295049387961626">
        <ele>1319.55</ele>
        <time>2015-03-01T14:23:33Z</time>
      </trkpt>
      <trkpt lat="46.2151238322258" lon="8.294930197298527">
        <ele>1318.5899999999999</ele>
        <time>2015-03-01T14:23:46Z</time>
      </trkpt>
      <trkpt lat="46.215211506932974" lon="8.294811844825745">
        <ele>1318.0999999999999</ele>
        <time>2015-03-01T14:23:57Z</time>
      </trkpt>
      <trkpt lat="46.215311922132969" lon="8.294669771566987">
        <ele>1317.1400000000001</ele>
        <time>2015-03-01T14:24:08Z</time>
      </trkpt>
      <trkpt lat="46.215379731729627" lon="8.294531805440784">
        <ele>1316.6600000000001</ele>
        <time>2015-03-01T14:24:22Z</time>
      </trkpt>
      <trkpt lat="46.21541996486485" lon="8.294458882883191">
        <ele>1316.6600000000001</ele>
        <time>2015-03-01T14:24:31Z</time>
      </trkpt>
      <trkpt lat="46.215422311797738" lon="8.294448489323258">
        <ele>1316.1800000000001</ele>
        <time>2015-03-01T14:24:32Z</time>
      </trkpt>
      <trkpt lat="46.215470926836133" lon="8.29436014406383">
        <ele>1317.1400000000001</ele>
        <time>2015-03-01T14:24:41Z</time>
      </trkpt>
      <trkpt lat="46.215481068938971" lon="8.294345978647471">
        <ele>1315.7</ele>
        <time>2015-03-01T14:24:42Z</time>
      </trkpt>
      <trkpt lat="46.215600930154324" lon="8.294240869581699">
        <ele>1314.74</ele>
        <time>2015-03-01T14:24:55Z</time>
      </trkpt>
      <trkpt lat="46.21565843001008" lon="8.294068537652493">
        <ele>1315.22</ele>
        <time>2015-03-01T14:25:06Z</time>
      </trkpt>
      <trkpt lat="46.215791869908571" lon="8.293992094695568">
        <ele>1314.26</ele>
        <time>2015-03-01T14:25:21Z</time>
      </trkpt>
      <trkpt lat="46.215880969539285" lon="8.293893774971366">
        <ele>1314.26</ele>
        <time>2015-03-01T14:25:35Z</time>
      </trkpt>
      <trkpt lat="46.215938217937946" lon="8.293812554329634">
        <ele>1313.3</ele>
        <time>2015-03-01T14:25:48Z</time>
      </trkpt>
      <trkpt lat="46.216031424701214" lon="8.293747846037149">
        <ele>1313.78</ele>
        <time>2015-03-01T14:26:04Z</time>
      </trkpt>
      <trkpt lat="46.216192943975329" lon="8.293688921257854">
        <ele>1313.3</ele>
        <time>2015-03-01T14:26:17Z</time>
      </trkpt>
      <trkpt lat="46.216233093291521" lon="8.29366629011929">
        <ele>1313.3</ele>
        <time>2015-03-01T14:26:24Z</time>
      </trkpt>
      <trkpt lat="46.216317331418395" lon="8.293558163568378">
        <ele>1313.78</ele>
        <time>2015-03-01T14:26:40Z</time>
      </trkpt>
      <trkpt lat="46.216380866244435" lon="8.293479960411787">
        <ele>1314.26</ele>
        <time>2015-03-01T14:26:55Z</time>
      </trkpt>
      <trkpt lat="46.216484466567636" lon="8.29341072589159">
        <ele>1314.26</ele>
        <time>2015-03-01T14:27:08Z</time>
      </trkpt>
      <trkpt lat="46.216551773250103" lon="8.29340385273099">
        <ele>1314.74</ele>
        <time>2015-03-01T14:27:22Z</time>
      </trkpt>
      <trkpt lat="46.216589156538248" lon="8.293333947658539">
        <ele>1314.26</ele>
        <time>2015-03-01T14:27:36Z</time>
      </trkpt>
      <trkpt lat="46.216715555638075" lon="8.293257337063551">
        <ele>1314.26</ele>
        <time>2015-03-01T14:27:51Z</time>
      </trkpt>
      <trkpt lat="46.216785963624716" lon="8.293148539960384">
        <ele>1313.78</ele>
        <time>2015-03-01T14:28:05Z</time>
      </trkpt>
      <trkpt lat="46.216894425451756" lon="8.293078970164061">
        <ele>1313.3</ele>
        <time>2015-03-01T14:28:22Z</time>
      </trkpt>
      <trkpt lat="46.21698603965342" lon="8.292995318770409">
        <ele>1311.8599999999999</ele>
        <time>2015-03-01T14:28:36Z</time>
      </trkpt>
      <trkpt lat="46.217047646641731" lon="8.292844947427511">
        <ele>1310.4100000000001</ele>
        <time>2015-03-01T14:28:49Z</time>
      </trkpt>
      <trkpt lat="46.217190222814679" lon="8.292753249406815">
        <ele>1309.9300000000001</ele>
        <time>2015-03-01T14:29:01Z</time>
      </trkpt>
      <trkpt lat="46.217213273048401" lon="8.292666161432862">
        <ele>1309.45</ele>
        <time>2015-03-01T14:29:08Z</time>
      </trkpt>
      <trkpt lat="46.217225342988968" lon="8.29259030520916">
        <ele>1309.9300000000001</ele>
        <time>2015-03-01T14:29:13Z</time>
      </trkpt>
      <trkpt lat="46.21737252920866" lon="8.292547725141048">
        <ele>1309.45</ele>
        <time>2015-03-01T14:29:28Z</time>
      </trkpt>
      <trkpt lat="46.21746732853353" lon="8.292483268305659">
        <ele>1309.45</ele>
        <time>2015-03-01T14:29:42Z</time>
      </trkpt>
      <trkpt lat="46.217565815895796" lon="8.292351085692644">
        <ele>1308.49</ele>
        <time>2015-03-01T14:29:57Z</time>
      </trkpt>
      <trkpt lat="46.217680899426341" lon="8.292245054617524">
        <ele>1308.01</ele>
        <time>2015-03-01T14:30:13Z</time>
      </trkpt>
      <trkpt lat="46.21777075342834" lon="8.292110022157431">
        <ele>1306.5699999999999</ele>
        <time>2015-03-01T14:30:29Z</time>
      </trkpt>
      <trkpt lat="46.217801095917821" lon="8.292067525908351">
        <ele>1306.0899999999999</ele>
        <time>2015-03-01T14:30:33Z</time>
      </trkpt>
      <trkpt lat="46.217948282137513" lon="8.291941126808524">
        <ele>1305.1300000000001</ele>
        <time>2015-03-01T14:30:47Z</time>
      </trkpt>
      <trkpt lat="46.218118015676737" lon="8.291811207309365">
        <ele>1304.1700000000001</ele>
        <time>2015-03-01T14:31:02Z</time>
      </trkpt>
      <trkpt lat="46.218233518302441" lon="8.291745241731405">
        <ele>1303.6900000000001</ele>
        <time>2015-03-01T14:31:19Z</time>
      </trkpt>
      <trkpt lat="46.218431163579226" lon="8.291693441569805">
        <ele>1303.6900000000001</ele>
        <time>2015-03-01T14:31:34Z</time>
      </trkpt>
      <trkpt lat="46.218612045049667" lon="8.291760077700019">
        <ele>1303.2</ele>
        <time>2015-03-01T14:32:02Z</time>
      </trkpt>
      <trkpt lat="46.218654541298747" lon="8.291700733825564">
        <ele>1304.1700000000001</ele>
        <time>2015-03-01T14:32:16Z</time>
      </trkpt>
      <trkpt lat="46.218718243762851" lon="8.291667038574815">
        <ele>1304.1700000000001</ele>
        <time>2015-03-01T14:32:25Z</time>
      </trkpt>
      <trkpt lat="46.21875629760325" lon="8.291648849844933">
        <ele>1304.1700000000001</ele>
        <time>2015-03-01T14:32:29Z</time>
      </trkpt>
      <trkpt lat="46.218929216265678" lon="8.291621776297689">
        <ele>1303.6900000000001</ele>
        <time>2015-03-01T14:32:43Z</time>
      </trkpt>
      <trkpt lat="46.219048909842968" lon="8.291599564254284">
        <ele>1302.72</ele>
        <time>2015-03-01T14:33:00Z</time>
      </trkpt>
      <trkpt lat="46.219196850433946" lon="8.291591349989176">
        <ele>1300.3199999999999</ele>
        <time>2015-03-01T14:33:16Z</time>
      </trkpt>
      <trkpt lat="46.219304809346795" lon="8.291603587567806">
        <ele>1299.8399999999999</ele>
        <time>2015-03-01T14:33:29Z</time>
      </trkpt>
      <trkpt lat="46.219462221488357" lon="8.291637534275651">
        <ele>1298.8800000000001</ele>
        <time>2015-03-01T14:33:45Z</time>
      </trkpt>
      <trkpt lat="46.219619130715728" lon="8.291617082431912">
        <ele>1297.4400000000001</ele>
        <time>2015-03-01T14:33:58Z</time>
      </trkpt>
      <trkpt lat="46.219697166234255" lon="8.29164088703692">
        <ele>1296.48</ele>
        <time>2015-03-01T14:34:06Z</time>
      </trkpt>
      <trkpt lat="46.219722060486674" lon="8.291644575074315">
        <ele>1296.48</ele>
        <time>2015-03-01T14:34:09Z</time>
      </trkpt>
      <trkpt lat="46.219868743792176" lon="8.291628481820226">
        <ele>1295.99</ele>
        <time>2015-03-01T14:34:26Z</time>
      </trkpt>
      <trkpt lat="46.219977289438248" lon="8.291674749925733">
        <ele>1295.99</ele>
        <time>2015-03-01T14:34:39Z</time>
      </trkpt>
      <trkpt lat="46.220132270827889" lon="8.291622614488006">
        <ele>1295.99</ele>
        <time>2015-03-01T14:34:55Z</time>
      </trkpt>
      <trkpt lat="46.220260849222541" lon="8.29156125895679">
        <ele>1297.9200000000001</ele>
        <time>2015-03-01T14:35:11Z</time>
      </trkpt>
      <trkpt lat="46.220382302999496" lon="8.291477775201201">
        <ele>1299.3599999999999</ele>
        <time>2015-03-01T14:35:27Z</time>
      </trkpt>
      <trkpt lat="46.220398396253586" lon="8.291464112699032">
        <ele>1299.3599999999999</ele>
        <time>2015-03-01T14:35:29Z</time>
      </trkpt>
      <trkpt lat="46.220453381538391" lon="8.291432010009885">
        <ele>1299.8399999999999</ele>
        <time>2015-03-01T14:35:34Z</time>
      </trkpt>
      <trkpt lat="46.220510294660926" lon="8.291333522647619">
        <ele>1299.8399999999999</ele>
        <time>2015-03-01T14:35:42Z</time>
      </trkpt>
      <trkpt lat="46.220630072057247" lon="8.291315836831927">
        <ele>1300.3199999999999</ele>
        <time>2015-03-01T14:35:54Z</time>
      </trkpt>
      <trkpt lat="46.220708694308996" lon="8.291315082460642">
        <ele>1301.28</ele>
        <time>2015-03-01T14:36:05Z</time>
      </trkpt>
      <trkpt lat="46.220898041501641" lon="8.29133159480989">
        <ele>1301.76</ele>
        <time>2015-03-01T14:36:16Z</time>
      </trkpt>
      <trkpt lat="46.221013460308313" lon="8.291367134079337">
        <ele>1302.24</ele>
        <time>2015-03-01T14:36:31Z</time>
      </trkpt>
      <trkpt lat="46.221033241599798" lon="8.29145816154778">
        <ele>1302.24</ele>
        <time>2015-03-01T14:36:46Z</time>
      </trkpt>
      <trkpt lat="46.221045730635524" lon="8.29146402888">
        <ele>1301.76</ele>
        <time>2015-03-01T14:37:03Z</time>
      </trkpt>
      <trkpt lat="46.221076576039195" lon="8.291439218446612">
        <ele>1301.76</ele>
        <time>2015-03-01T14:37:20Z</time>
      </trkpt>
      <trkpt lat="46.221066098660231" lon="8.291492611169815">
        <ele>1301.76</ele>
        <time>2015-03-01T14:37:38Z</time>
      </trkpt>
      <trkpt lat="46.221076240763068" lon="8.291420359164476">
        <ele>1301.76</ele>
        <time>2015-03-01T14:37:53Z</time>
      </trkpt>
      <trkpt lat="46.221001977100968" lon="8.291464196518064">
        <ele>1301.76</ele>
        <time>2015-03-01T14:38:16Z</time>
      </trkpt>
      <trkpt lat="46.221001809462905" lon="8.291475931182504">
        <ele>1300.8</ele>
        <time>2015-03-01T14:38:33Z</time>
      </trkpt>
      <trkpt lat="46.220977921038866" lon="8.291510967537761">
        <ele>1301.28</ele>
        <time>2015-03-01T14:38:53Z</time>
      </trkpt>
      <trkpt lat="46.220998708158731" lon="8.291447684168816">
        <ele>1301.28</ele>
        <time>2015-03-01T14:39:10Z</time>
      </trkpt>
      <trkpt lat="46.221014130860567" lon="8.291453802958131">
        <ele>1301.28</ele>
        <time>2015-03-01T14:39:18Z</time>
      </trkpt>
      <trkpt lat="46.221152013167739" lon="8.291560672223568">
        <ele>1300.3199999999999</ele>
        <time>2015-03-01T14:39:31Z</time>
      </trkpt>
      <trkpt lat="46.221267264336348" lon="8.291659411042929">
        <ele>1297.9200000000001</ele>
        <time>2015-03-01T14:39:43Z</time>
      </trkpt>
      <trkpt lat="46.221299869939685" lon="8.291683299466968">
        <ele>1297.9200000000001</ele>
        <time>2015-03-01T14:39:46Z</time>
      </trkpt>
      <trkpt lat="46.221403470262885" lon="8.291765358299017">
        <ele>1296.48</ele>
        <time>2015-03-01T14:40:01Z</time>
      </trkpt>
      <trkpt lat="46.221514949575067" lon="8.291839538142085">
        <ele>1295.99</ele>
        <time>2015-03-01T14:40:12Z</time>
      </trkpt>
      <trkpt lat="46.221590973436832" lon="8.291890332475305">
        <ele>1294.55</ele>
        <time>2015-03-01T14:40:18Z</time>
      </trkpt>
      <trkpt lat="46.221759533509612" lon="8.291953112930059">
        <ele>1291.1900000000001</ele>
        <time>2015-03-01T14:40:30Z</time>
      </trkpt>
      <trkpt lat="46.221928177401423" lon="8.291959399357438">
        <ele>1289.27</ele>
        <time>2015-03-01T14:40:42Z</time>
      </trkpt>
      <trkpt lat="46.222029598429799" lon="8.291962668299675">
        <ele>1287.8199999999999</ele>
        <time>2015-03-01T14:40:53Z</time>
      </trkpt>
      <trkpt lat="46.222047870978713" lon="8.291967026889324">
        <ele>1287.8199999999999</ele>
        <time>2015-03-01T14:40:55Z</time>
      </trkpt>
      <trkpt lat="46.222240068018436" lon="8.291991418227553">
        <ele>1285.4200000000001</ele>
        <time>2015-03-01T14:41:09Z</time>
      </trkpt>
      <trkpt lat="46.222469313070178" lon="8.292004996910691">
        <ele>1282.0599999999999</ele>
        <time>2015-03-01T14:41:25Z</time>
      </trkpt>
      <trkpt lat="46.222666958346963" lon="8.29205964691937">
        <ele>1279.1700000000001</ele>
        <time>2015-03-01T14:41:40Z</time>
      </trkpt>
      <trkpt lat="46.22273862361908" lon="8.292066268622875">
        <ele>1278.21</ele>
        <time>2015-03-01T14:41:46Z</time>
      </trkpt>
      <trkpt lat="46.222928557544947" lon="8.292006757110357">
        <ele>1276.77</ele>
        <time>2015-03-01T14:42:01Z</time>
      </trkpt>
      <trkpt lat="46.223101727664471" lon="8.29196191392839">
        <ele>1275.8099999999999</ele>
        <time>2015-03-01T14:42:14Z</time>
      </trkpt>
      <trkpt lat="46.223111283034086" lon="8.291952358558774">
        <ele>1275.3299999999999</ele>
        <time>2015-03-01T14:42:17Z</time>
      </trkpt>
      <trkpt lat="46.223188815638423" lon="8.291951352730393">
        <ele>1274.3599999999999</ele>
        <time>2015-03-01T14:42:24Z</time>
      </trkpt>
      <trkpt lat="46.223366260528564" lon="8.291932744905353">
        <ele>1271.48</ele>
        <time>2015-03-01T14:42:37Z</time>
      </trkpt>
      <trkpt lat="46.223489223048091" lon="8.291972978040576">
        <ele>1271.48</ele>
        <time>2015-03-01T14:42:50Z</time>
      </trkpt>
      <trkpt lat="46.223513279110193" lon="8.291970212012529">
        <ele>1270.52</ele>
        <time>2015-03-01T14:42:52Z</time>
      </trkpt>
      <trkpt lat="46.223614197224379" lon="8.291988987475634">
        <ele>1270.04</ele>
        <time>2015-03-01T14:43:03Z</time>
      </trkpt>
      <trkpt lat="46.223623249679804" lon="8.291988987475634">
        <ele>1270.04</ele>
        <time>2015-03-01T14:43:04Z</time>
      </trkpt>
      <trkpt lat="46.223678486421704" lon="8.291985718533397">
        <ele>1270.04</ele>
        <time>2015-03-01T14:43:09Z</time>
      </trkpt>
      <trkpt lat="46.223824582993984" lon="8.291937857866287">
        <ele>1268.1199999999999</ele>
        <time>2015-03-01T14:43:20Z</time>
      </trkpt>
      <trkpt lat="46.223846627399325" lon="8.29192478209734">
        <ele>1267.6400000000001</ele>
        <time>2015-03-01T14:43:22Z</time>
      </trkpt>
      <trkpt lat="46.223931200802326" lon="8.29187884926796">
        <ele>1266.1900000000001</ele>
        <time>2015-03-01T14:43:29Z</time>
      </trkpt>
      <trkpt lat="46.224003368988633" lon="8.291816990822554">
        <ele>1264.75</ele>
        <time>2015-03-01T14:43:38Z</time>
      </trkpt>
      <trkpt lat="46.224084505811334" lon="8.291774662211537">
        <ele>1263.79</ele>
        <time>2015-03-01T14:43:42Z</time>
      </trkpt>
      <trkpt lat="46.224105879664421" lon="8.291773656383157">
        <ele>1263.79</ele>
        <time>2015-03-01T14:43:44Z</time>
      </trkpt>
      <trkpt lat="46.224274355918169" lon="8.291670978069305">
        <ele>1260.9100000000001</ele>
        <time>2015-03-01T14:43:55Z</time>
      </trkpt>
      <trkpt lat="46.224349709227681" lon="8.291484732180834">
        <ele>1258.02</ele>
        <time>2015-03-01T14:44:08Z</time>
      </trkpt>
      <trkpt lat="46.224461188539863" lon="8.291376605629921">
        <ele>1255.1400000000001</ele>
        <time>2015-03-01T14:44:20Z</time>
      </trkpt>
      <trkpt lat="46.22461499646306" lon="8.29139756038785">
        <ele>1253.22</ele>
        <time>2015-03-01T14:44:34Z</time>
      </trkpt>
      <trkpt lat="46.224785232916474" lon="8.291422287002206">
        <ele>1251.29</ele>
        <time>2015-03-01T14:44:47Z</time>
      </trkpt>
      <trkpt lat="46.224924875423312" lon="8.291375180706382">
        <ele>1248.8900000000001</ele>
        <time>2015-03-01T14:44:57Z</time>
      </trkpt>
      <trkpt lat="46.225026967003942" lon="8.291296809911728">
        <ele>1246.97</ele>
        <time>2015-03-01T14:45:07Z</time>
      </trkpt>
      <trkpt lat="46.225170213729143" lon="8.291161861270666">
        <ele>1245.04</ele>
        <time>2015-03-01T14:45:21Z</time>
      </trkpt>
      <trkpt lat="46.225291835144162" lon="8.291078545153141">
        <ele>1242.6400000000001</ele>
        <time>2015-03-01T14:45:31Z</time>
      </trkpt>
      <trkpt lat="46.22545687481761" lon="8.290939573198557">
        <ele>1239.76</ele>
        <time>2015-03-01T14:45:45Z</time>
      </trkpt>
      <trkpt lat="46.225622249767184" lon="8.290831279009581">
        <ele>1237.3499999999999</ele>
        <time>2015-03-01T14:45:55Z</time>
      </trkpt>
      <trkpt lat="46.225754097104073" lon="8.290710411965847">
        <ele>1233.99</ele>
        <time>2015-03-01T14:46:08Z</time>
      </trkpt>
      <trkpt lat="46.225768262520432" lon="8.290687948465347">
        <ele>1233.51</ele>
        <time>2015-03-01T14:46:10Z</time>
      </trkpt>
      <trkpt lat="46.225873120129108" lon="8.290604883804917">
        <ele>1230.1400000000001</ele>
        <time>2015-03-01T14:46:23Z</time>
      </trkpt>
      <trkpt lat="46.225906061008573" lon="8.290590886026621">
        <ele>1228.7</ele>
        <time>2015-03-01T14:46:29Z</time>
      </trkpt>
      <trkpt lat="46.226014858111739" lon="8.290582168847323">
        <ele>1225.8199999999999</ele>
        <time>2015-03-01T14:46:43Z</time>
      </trkpt>
      <trkpt lat="46.226169671863317" lon="8.290577558800578">
        <ele>1222.9300000000001</ele>
        <time>2015-03-01T14:46:56Z</time>
      </trkpt>
      <trkpt lat="46.226275619119406" lon="8.290553670376539">
        <ele>1219.5699999999999</ele>
        <time>2015-03-01T14:47:08Z</time>
      </trkpt>
      <trkpt lat="46.22629783116281" lon="8.290551658719778">
        <ele>1219.0899999999999</ele>
        <time>2015-03-01T14:47:10Z</time>
      </trkpt>
      <trkpt lat="46.226318031549454" lon="8.290547467768192">
        <ele>1218.6099999999999</ele>
        <time>2015-03-01T14:47:12Z</time>
      </trkpt>
      <trkpt lat="46.226444765925407" lon="8.290513269603252">
        <ele>1214.76</ele>
        <time>2015-03-01T14:47:25Z</time>
      </trkpt>
      <trkpt lat="46.226410483941436" lon="8.290441436693072">
        <ele>1215.24</ele>
        <time>2015-03-01T14:47:41Z</time>
      </trkpt>
      <trkpt lat="46.226419452577829" lon="8.290484352037311">
        <ele>1214.76</ele>
        <time>2015-03-01T14:47:58Z</time>
      </trkpt>
      <trkpt lat="46.226534452289343" lon="8.290494745597243">
        <ele>1215.24</ele>
        <time>2015-03-01T14:48:25Z</time>
      </trkpt>
      <trkpt lat="46.226505702361465" lon="8.290494242683053">
        <ele>1215.72</ele>
        <time>2015-03-01T14:48:49Z</time>
      </trkpt>
      <trkpt lat="46.226501176133752" lon="8.290574373677373">
        <ele>1216.21</ele>
        <time>2015-03-01T14:49:14Z</time>
      </trkpt>
      <trkpt lat="46.226517269387841" lon="8.290543695911765">
        <ele>1215.72</ele>
        <time>2015-03-01T14:49:38Z</time>
      </trkpt>
      <trkpt lat="46.226484915241599" lon="8.290565069764853">
        <ele>1216.21</ele>
        <time>2015-03-01T14:50:00Z</time>
      </trkpt>
      <trkpt lat="46.226438730955124" lon="8.290563309565187">
        <ele>1216.21</ele>
        <time>2015-03-01T14:50:22Z</time>
      </trkpt>
      <trkpt lat="46.226449627429247" lon="8.290574541315436">
        <ele>1216.21</ele>
        <time>2015-03-01T14:50:50Z</time>
      </trkpt>
      <trkpt lat="46.226416183635592" lon="8.2905556820333">
        <ele>1215.72</ele>
        <time>2015-03-01T14:51:10Z</time>
      </trkpt>
      <trkpt lat="46.226370837539434" lon="8.290520561859012">
        <ele>1215.72</ele>
        <time>2015-03-01T14:51:34Z</time>
      </trkpt>
      <trkpt lat="46.226569404825568" lon="8.290493907406926">
        <ele>1213.3199999999999</ele>
        <time>2015-03-01T14:51:46Z</time>
      </trkpt>
      <trkpt lat="46.226613409817219" lon="8.290512431412935">
        <ele>1213.3199999999999</ele>
        <time>2015-03-01T14:51:48Z</time>
      </trkpt>
      <trkpt lat="46.226673843339086" lon="8.290582504123449">
        <ele>1211.4000000000001</ele>
        <time>2015-03-01T14:51:55Z</time>
      </trkpt>
      <trkpt lat="46.226732013747096" lon="8.290639081969857">
        <ele>1210.4400000000001</ele>
        <time>2015-03-01T14:51:59Z</time>
      </trkpt>
      <trkpt lat="46.226744335144758" lon="8.290754165500403">
        <ele>1209.48</ele>
        <time>2015-03-01T14:52:07Z</time>
      </trkpt>
      <trkpt lat="46.226797308772802" lon="8.29083270393312">
        <ele>1208.51</ele>
        <time>2015-03-01T14:52:13Z</time>
      </trkpt>
      <trkpt lat="46.226813904941082" lon="8.290850222110748">
        <ele>1208.03</ele>
        <time>2015-03-01T14:52:15Z</time>
      </trkpt>
      <trkpt lat="46.226979698985815" lon="8.290868578478694">
        <ele>1205.6300000000001</ele>
        <time>2015-03-01T14:52:29Z</time>
      </trkpt>
      <trkpt lat="46.227111546322703" lon="8.290867656469345">
        <ele>1205.1500000000001</ele>
        <time>2015-03-01T14:52:40Z</time>
      </trkpt>
      <trkpt lat="46.2272516079247" lon="8.290852652862668">
        <ele>1205.6300000000001</ele>
        <time>2015-03-01T14:52:54Z</time>
      </trkpt>
      <trkpt lat="46.22740600258112" lon="8.290869500488043">
        <ele>1204.1900000000001</ele>
        <time>2015-03-01T14:53:08Z</time>
      </trkpt>
      <trkpt lat="46.22755846939981" lon="8.290955414995551">
        <ele>1204.1900000000001</ele>
        <time>2015-03-01T14:53:21Z</time>
      </trkpt>
      <trkpt lat="46.227683946490288" lon="8.291026325896382">
        <ele>1204.1900000000001</ele>
        <time>2015-03-01T14:53:35Z</time>
      </trkpt>
      <trkpt lat="46.227743709459901" lon="8.291037976741791">
        <ele>1203.71</ele>
        <time>2015-03-01T14:53:41Z</time>
      </trkpt>
      <trkpt lat="46.227807579562068" lon="8.2910858374089">
        <ele>1204.1900000000001</ele>
        <time>2015-03-01T14:53:49Z</time>
      </trkpt>
      <trkpt lat="46.227892488241196" lon="8.291162783280015">
        <ele>1204.6700000000001</ele>
        <time>2015-03-01T14:53:58Z</time>
      </trkpt>
      <trkpt lat="46.227954849600792" lon="8.291212404146791">
        <ele>1204.1900000000001</ele>
        <time>2015-03-01T14:54:04Z</time>
      </trkpt>
      <trkpt lat="46.228068172931671" lon="8.291354896500707">
        <ele>1206.5899999999999</ele>
        <time>2015-03-01T14:54:20Z</time>
      </trkpt>
      <trkpt lat="46.228184346109629" lon="8.291461430490017">
        <ele>1206.5899999999999</ele>
        <time>2015-03-01T14:54:32Z</time>
      </trkpt>
      <trkpt lat="46.228282749652863" lon="8.291435865685344">
        <ele>1207.0699999999999</ele>
        <time>2015-03-01T14:54:44Z</time>
      </trkpt>
      <trkpt lat="46.228390373289585" lon="8.291552374139428">
        <ele>1208.03</ele>
        <time>2015-03-01T14:54:57Z</time>
      </trkpt>
      <trkpt lat="46.228468073531985" lon="8.29144986346364">
        <ele>1209.96</ele>
        <time>2015-03-01T14:55:09Z</time>
      </trkpt>
      <trkpt lat="46.228507552295923" lon="8.291380293667316">
        <ele>1211.4000000000001</ele>
        <time>2015-03-01T14:55:20Z</time>
      </trkpt>
      <trkpt lat="46.228577038273215" lon="8.2912602648139">
        <ele>1212.3599999999999</ele>
        <time>2015-03-01T14:55:32Z</time>
      </trkpt>
      <trkpt lat="46.228666976094246" lon="8.29118650406599">
        <ele>1213.8</ele>
        <time>2015-03-01T14:55:45Z</time>
      </trkpt>
      <trkpt lat="46.228762278333306" lon="8.291049040853977">
        <ele>1214.28</ele>
        <time>2015-03-01T14:56:00Z</time>
      </trkpt>
      <trkpt lat="46.228790609166026" lon="8.290959186851978">
        <ele>1215.72</ele>
        <time>2015-03-01T14:56:11Z</time>
      </trkpt>
      <trkpt lat="46.228832015767694" lon="8.290817113593221">
        <ele>1218.1300000000001</ele>
        <time>2015-03-01T14:56:27Z</time>
      </trkpt>
      <trkpt lat="46.22893150895834" lon="8.290726086124778">
        <ele>1219.0899999999999</ele>
        <time>2015-03-01T14:56:39Z</time>
      </trkpt>
      <trkpt lat="46.229053884744644" lon="8.290623491629958">
        <ele>1221.01</ele>
        <time>2015-03-01T14:56:55Z</time>
      </trkpt>
      <trkpt lat="46.229191180318594" lon="8.290631454437971">
        <ele>1223.9000000000001</ele>
        <time>2015-03-01T14:57:11Z</time>
      </trkpt>
      <trkpt lat="46.229236777871847" lon="8.290547551587224">
        <ele>1225.8199999999999</ele>
        <time>2015-03-01T14:57:26Z</time>
      </trkpt>
      <trkpt lat="46.22926720418036" lon="8.290445040911436">
        <ele>1227.26</ele>
        <time>2015-03-01T14:57:39Z</time>
      </trkpt>
      <trkpt lat="46.229272065684199" lon="8.290413608774543">
        <ele>1227.26</ele>
        <time>2015-03-01T14:57:41Z</time>
      </trkpt>
      <trkpt lat="46.229371894150972" lon="8.290274050086737">
        <ele>1228.22</ele>
        <time>2015-03-01T14:57:55Z</time>
      </trkpt>
      <trkpt lat="46.229507429525256" lon="8.290257705375552">
        <ele>1228.7</ele>
        <time>2015-03-01T14:58:08Z</time>
      </trkpt>
      <trkpt lat="46.229639695957303" lon="8.290224010124803">
        <ele>1228.22</ele>
        <time>2015-03-01T14:58:23Z</time>
      </trkpt>
      <trkpt lat="46.229711947962642" lon="8.29018821939826">
        <ele>1227.74</ele>
        <time>2015-03-01T14:58:29Z</time>
      </trkpt>
      <trkpt lat="46.22983256354928" lon="8.290105657652021">
        <ele>1228.7</ele>
        <time>2015-03-01T14:58:42Z</time>
      </trkpt>
      <trkpt lat="46.229926524683833" lon="8.290055450052023">
        <ele>1230.6199999999999</ele>
        <time>2015-03-01T14:58:54Z</time>
      </trkpt>
      <trkpt lat="46.229956028982997" lon="8.290048744529486">
        <ele>1232.0699999999999</ele>
        <time>2015-03-01T14:58:58Z</time>
      </trkpt>
      <trkpt lat="46.230023168027401" lon="8.290057126432657">
        <ele>1233.51</ele>
        <time>2015-03-01T14:59:10Z</time>
      </trkpt>
      <trkpt lat="46.230140514671803" lon="8.290030220523477">
        <ele>1234.47</ele>
        <time>2015-03-01T14:59:22Z</time>
      </trkpt>
      <trkpt lat="46.230271691456437" lon="8.289944808930159">
        <ele>1235.4300000000001</ele>
        <time>2015-03-01T14:59:36Z</time>
      </trkpt>
      <trkpt lat="46.230371184647083" lon="8.289923602715135">
        <ele>1236.8699999999999</ele>
        <time>2015-03-01T14:59:49Z</time>
      </trkpt>
      <trkpt lat="46.230521807447076" lon="8.289917232468724">
        <ele>1237.8299999999999</ele>
        <time>2015-03-01T15:00:04Z</time>
      </trkpt>
      <trkpt lat="46.230641417205334" lon="8.289964506402612">
        <ele>1237.8299999999999</ele>
        <time>2015-03-01T15:00:17Z</time>
      </trkpt>
      <trkpt lat="46.230769660323858" lon="8.289982527494431">
        <ele>1239.28</ele>
        <time>2015-03-01T15:00:31Z</time>
      </trkpt>
      <trkpt lat="46.230899412184954" lon="8.289960734546185">
        <ele>1240.24</ele>
        <time>2015-03-01T15:00:43Z</time>
      </trkpt>
      <trkpt lat="46.231048610061407" lon="8.289915807545185">
        <ele>1241.6800000000001</ele>
        <time>2015-03-01T15:00:58Z</time>
      </trkpt>
      <trkpt lat="46.23117383569479" lon="8.2899478264153">
        <ele>1240.72</ele>
        <time>2015-03-01T15:01:11Z</time>
      </trkpt>
      <trkpt lat="46.231280788779259" lon="8.289922093972564">
        <ele>1240.72</ele>
        <time>2015-03-01T15:01:23Z</time>
      </trkpt>
      <trkpt lat="46.231385814025998" lon="8.289911113679409">
        <ele>1239.28</ele>
        <time>2015-03-01T15:01:36Z</time>
      </trkpt>
      <trkpt lat="46.231417329981923" lon="8.289907425642014">
        <ele>1239.28</ele>
        <time>2015-03-01T15:01:39Z</time>
      </trkpt>
      <trkpt lat="46.231600726023316" lon="8.289923015981913">
        <ele>1237.8299999999999</ele>
        <time>2015-03-01T15:01:56Z</time>
      </trkpt>
      <trkpt lat="46.231668032705784" lon="8.289967942982912">
        <ele>1237.8299999999999</ele>
        <time>2015-03-01T15:02:03Z</time>
      </trkpt>
      <trkpt lat="46.231796694919467" lon="8.290101634338498">
        <ele>1236.3900000000001</ele>
        <time>2015-03-01T15:02:16Z</time>
      </trkpt>
      <trkpt lat="46.231921333819628" lon="8.290236834436655">
        <ele>1233.51</ele>
        <time>2015-03-01T15:02:30Z</time>
      </trkpt>
      <trkpt lat="46.231929548084736" lon="8.290247144177556">
        <ele>1233.03</ele>
        <time>2015-03-01T15:02:31Z</time>
      </trkpt>
      <trkpt lat="46.231961902230978" lon="8.290262902155519">
        <ele>1232.55</ele>
        <time>2015-03-01T15:02:34Z</time>
      </trkpt>
      <trkpt lat="46.232012528926134" lon="8.290284695103765">
        <ele>1232.55</ele>
        <time>2015-03-01T15:02:39Z</time>
      </trkpt>
      <trkpt lat="46.232113614678383" lon="8.29026298597455">
        <ele>1231.5899999999999</ele>
        <time>2015-03-01T15:02:51Z</time>
      </trkpt>
      <trkpt lat="46.232179244980216" lon="8.290268098935485">
        <ele>1231.1099999999999</ele>
        <time>2015-03-01T15:02:56Z</time>
      </trkpt>
      <trkpt lat="46.232206569984555" lon="8.290252760052681">
        <ele>1231.5899999999999</ele>
        <time>2015-03-01T15:02:59Z</time>
      </trkpt>
      <trkpt lat="46.232259543612599" lon="8.290274133905768">
        <ele>1230.1400000000001</ele>
        <time>2015-03-01T15:03:04Z</time>
      </trkpt>
      <trkpt lat="46.232312768697739" lon="8.290210766717792">
        <ele>1228.7</ele>
        <time>2015-03-01T15:03:14Z</time>
      </trkpt>
      <trkpt lat="46.232328694313765" lon="8.290126277133822">
        <ele>1228.22</ele>
        <time>2015-03-01T15:03:28Z</time>
      </trkpt>
      <trkpt lat="46.232317881658673" lon="8.29013692215085">
        <ele>1228.22</ele>
        <time>2015-03-01T15:03:40Z</time>
      </trkpt>
      <trkpt lat="46.232309080660343" lon="8.290143711492419">
        <ele>1228.22</ele>
        <time>2015-03-01T15:04:00Z</time>
      </trkpt>
      <trkpt lat="46.232305224984884" lon="8.290124936029315">
        <ele>1228.22</ele>
        <time>2015-03-01T15:04:12Z</time>
      </trkpt>
    </trkseg>
  </trk>

</gpx>